GFSSW_sfc_temp_000.txt.gz
Temp
62 62 61 61 62 62 62 62 63 63 63 63 62 62 62 62 61 62 70 82 80 80 81 78 79 79 78 76 81 78 63 60 63 65 68 72 70 76 79 73 76 77 72 75 77
61 61 61 61 61 62 62 62 62 62 62 62 62 62 62 62 58 63 78 81 80 80 83 78 76 78 72 74 77 71 65 67 72 72 70 73 74 74 72 71 71 71 75 76 76
61 61 61 61 61 61 61 61 62 61 61 61 62 62 62 61 64 74 82 81 80 82 86 84 83 80 73 73 76 72 69 74 75 76 78 74 74 76 71 66 70 67 70 73 74
60 60 60 60 61 61 61 61 61 61 61 61 62 62 62 58 62 79 81 79 80 81 83 82 79 74 70 71 77 70 78 78 78 79 77 73 75 71 72 71 77 75 74 73 72
60 59 59 60 60 60 61 60 60 60 60 61 62 62 56 58 68 81 82 79 77 79 80 79 76 73 72 73 76 74 75 78 79 77 78 78 73 72 73 75 78 76 75 73 73
59 59 59 59 59 60 60 59 59 59 60 61 62 62 54 59 80 80 80 76 77 78 78 81 79 79 75 75 74 77 77 76 76 74 74 72 72 73 73 76 75 74 73 74 74
59 59 59 59 59 59 59 58 58 59 60 61 62 62 57 69 82 77 73 74 77 79 76 80 81 76 75 72 78 79 71 75 73 73 72 77 68 69 74 76 72 73 73 74 75
59 59 59 59 59 58 58 57 57 60 62 62 63 57 59 78 76 77 76 76 78 77 81 82 80 75 74 77 76 70 69 64 72 74 74 73 61 69 75 73 71 73 73 74 74
58 58 58 58 58 57 56 56 58 61 62 63 55 54 61 80 76 79 79 78 77 76 80 91 79 72 72 68 63 65 60 61 66 74 73 68 61 70 74 72 70 72 73 74 73
58 58 58 57 57 56 55 56 57 59 61 64 66 58 69 75 78 81 78 82 77 76 77 74 69 64 62 61 54 60 61 61 64 72 71 65 62 69 72 72 70 71 72 73 73
58 57 57 57 56 55 53 50 59 58 56 63 64 67 74 79 82 79 81 79 77 71 65 67 63 58 64 68 70 69 65 68 68 73 67 63 63 67 71 71 70 71 71 72 74
57 57 56 56 55 54 49 56 58 58 55 66 68 71 77 76 73 80 83 73 69 64 63 61 59 67 72 71 70 69 64 65 67 72 69 63 64 68 70 70 71 71 72 72 74
57 56 56 55 54 52 49 55 62 58 51 63 67 68 69 74 70 74 79 73 67 63 62 58 64 73 72 67 67 61 65 63 69 68 67 65 59 62 68 71 72 73 74 75 74
56 56 56 54 53 47 53 57 57 58 48 58 63 71 71 72 66 82 82 77 69 65 65 63 72 72 68 68 67 58 70 71 68 64 56 65 51 57 66 66 70 72 73 74 75
56 55 55 54 45 47 59 52 55 58 40 66 67 79 70 68 69 73 81 74 67 67 64 62 66 67 65 69 72 68 71 69 67 61 57 56 54 58 64 61 67 72 74 76 77
55 54 54 50 49 49 54 51 56 51 41 61 69 66 65 65 70 72 76 76 75 69 63 68 72 72 72 74 76 74 68 61 56 54 48 57 58 54 56 66 71 73 76 77 77
54 53 52 54 48 50 52 57 47 41 61 60 58 62 61 63 66 67 68 65 61 54 53 61 67 70 74 67 68 66 58 49 47 45 46 53 54 64 66 72 76 74 75 77 79
52 51 50 52 49 51 53 51 38 54 55 61 63 61 58 62 63 67 63 60 62 60 54 53 54 67 72 69 64 61 60 50 43 44 50 54 51 63 77 76 76 76 78 78 79
52 45 44 49 53 49 52 41 45 52 61 60 61 54 54 61 63 62 60 61 66 64 58 51 54 68 72 73 74 60 56 62 51 44 47 50 58 69 71 71 71 74 74 76 77
46 43 44 54 55 51 46 44 50 60 63 61 51 55 50 54 58 58 55 65 67 69 65 60 51 65 72 71 70 69 67 57 49 43 41 49 51 57 63 68 68 69 72 75 77
40 43 56 53 52 49 42 45 55 62 64 59 55 53 53 54 57 54 58 66 70 70 67 61 55 59 65 65 66 60 57 54 54 49 46 45 50 61 67 69 70 70 75 76 76
40 41 56 55 47 41 41 49 56 59 62 60 58 58 57 59 55 57 58 65 72 70 62 63 60 56 59 65 69 70 63 60 58 48 46 49 53 68 70 69 69 71 75 72 74
38 38 49 52 40 41 46 53 57 57 57 58 58 60 61 57 52 58 62 71 73 69 63 62 52 53 53 57 59 61 59 55 53 51 47 50 54 67 65 67 67 67 69 70 71
41 34 42 47 42 40 41 47 51 63 60 62 60 60 56 55 57 56 59 70 74 72 71 71 53 58 56 60 61 58 62 59 58 49 50 52 59 65 67 66 65 67 68 68 70
43 35 39 36 42 40 40 46 50 51 59 59 54 57 56 49 54 54 62 66 70 68 65 60 58 57 68 63 64 65 64 60 59 58 58 63 59 67 68 67 67 70 68 68 67
41 40 40 38 40 40 40 42 48 52 52 54 53 59 57 53 57 56 60 59 60 60 60 57 56 53 63 66 65 65 66 64 63 61 61 61 60 68 68 67 67 68 68 68 68
40 43 42 41 38 38 40 43 48 51 55 58 57 53 54 58 60 63 63 64 59 59 54 54 52 49 55 58 58 52 66 64 64 63 65 59 67 67 65 68 69 67 69 71 71

GFSSW_sfc_temp_003.txt.gz
Temp
62 62 61 61 62 62 62 62 62 63 63 63 62 62 62 62 62 66 76 87 84 79 82 85 86 85 84 84 87 87 81 75 75 75 78 82 79 82 85 78 80 82 80 84 83
61 61 61 61 61 62 62 62 62 62 62 62 62 62 62 62 64 73 84 81 80 80 86 86 83 84 85 85 87 85 80 79 85 85 82 80 82 80 77 78 78 77 82 83 82
61 61 60 61 61 61 61 62 62 62 61 61 62 62 62 64 72 84 80 80 80 83 92 92 90 87 83 86 86 85 80 85 85 86 87 82 80 84 78 75 79 76 77 79 80
60 60 60 60 61 61 61 61 61 61 61 61 62 62 62 64 72 89 80 80 81 88 91 89 87 84 83 83 88 82 87 88 87 86 86 82 85 80 80 82 87 83 81 80 79
60 60 60 60 60 60 61 61 60 60 60 61 62 62 64 73 79 89 82 81 84 86 89 88 86 85 83 85 86 84 87 88 89 87 87 86 82 81 80 85 87 83 81 80 80
60 59 59 59 60 60 60 60 59 59 60 61 62 62 66 71 90 87 84 82 83 85 86 89 89 90 88 86 86 88 87 87 88 85 85 83 80 82 82 83 81 80 80 81 81
59 59 59 59 59 60 59 58 58 59 60 61 62 63 65 79 89 86 85 86 85 87 85 91 93 90 89 85 89 86 80 82 82 84 81 84 74 77 84 82 79 79 80 80 81
59 59 59 59 59 59 58 57 57 59 61 62 63 63 70 84 85 84 87 87 87 90 92 94 92 90 87 89 86 83 83 76 81 83 81 85 76 81 82 81 78 79 79 79 80
58 58 58 58 58 57 56 56 58 61 62 63 62 62 73 84 83 89 89 87 86 88 89 93 91 86 86 83 79 79 75 75 75 84 80 81 78 81 83 82 79 79 80 80 80
58 58 57 57 57 56 55 56 58 61 63 65 66 64 78 82 87 90 88 89 87 85 84 85 84 82 80 80 71 74 75 77 77 79 81 78 78 77 80 81 80 80 80 80 80
57 57 57 57 56 55 55 63 69 68 65 73 76 75 80 87 89 87 88 87 87 84 77 80 77 74 80 83 85 83 79 78 79 82 80 78 78 77 78 79 79 79 79 80 81
57 57 56 56 55 54 56 66 66 67 64 74 73 75 81 85 78 85 91 82 80 75 77 75 72 80 84 84 81 80 78 78 79 82 81 77 77 80 78 78 80 80 80 80 82
57 56 56 55 54 57 56 63 68 69 63 71 73 74 77 78 74 79 87 83 78 74 75 73 77 80 78 78 77 79 78 78 78 79 78 78 76 75 77 80 80 82 83 84 82
56 56 55 54 58 56 64 66 66 66 62 68 72 78 77 77 72 84 89 85 77 75 74 75 81 77 77 77 81 76 82 82 78 76 70 80 67 74 78 75 77 80 81 82 83
56 56 54 54 53 57 66 64 67 67 50 73 75 86 79 76 79 77 89 84 76 75 75 73 74 75 75 78 81 79 82 80 80 77 73 71 69 77 75 73 77 80 82 84 85
55 55 54 54 53 59 63 63 67 60 49 67 76 75 73 76 78 79 80 86 85 78 75 78 81 82 80 83 82 82 78 75 74 76 65 74 71 74 72 76 81 84 83 84 85
54 53 53 57 58 62 64 68 59 51 68 67 70 73 73 72 73 77 74 73 71 65 66 73 76 82 84 79 82 80 77 65 62 62 63 73 69 75 83 84 86 87 83 85 86
53 51 53 56 59 61 63 64 48 60 65 70 70 71 69 71 72 73 72 71 77 75 70 64 62 75 83 81 76 76 78 68 56 60 66 66 65 76 86 90 87 89 89 87 87
52 55 53 58 58 59 62 53 57 61 68 68 70 67 68 70 70 71 71 73 76 77 67 64 65 78 81 84 84 75 70 84 73 66 67 71 72 79 84 84 85 86 87 86 87
50 49 53 62 61 60 59 54 62 68 71 70 63 67 63 65 68 69 69 75 75 79 82 72 64 78 82 85 84 80 83 70 70 59 57 66 67 73 80 83 86 83 85 87 87
48 50 61 62 61 59 53 57 64 71 71 68 66 65 66 64 67 67 69 74 77 77 80 78 72 72 77 76 76 76 74 73 77 71 64 61 68 81 82 85 87 86 87 88 87
46 49 61 63 55 56 55 57 57 68 72 70 70 68 67 67 66 66 67 73 78 79 72 77 73 66 71 79 84 84 78 77 70 63 68 69 71 87 84 88 89 90 89 89 87
43 44 60 60 50 53 55 57 62 65 67 67 67 70 70 66 61 66 70 78 79 78 75 73 69 62 65 75 78 75 79 80 80 77 68 65 71 84 82 81 83 83 87 83 83
44 41 53 56 53 51 49 53 56 65 65 68 68 69 66 64 67 64 67 75 78 79 70 74 72 67 63 67 75 71 74 77 76 70 70 70 75 82 83 79 84 83 83 83 81
46 44 45 44 50 48 49 51 52 54 63 64 63 65 64 60 63 63 68 71 76 75 75 75 65 70 74 77 76 75 75 75 71 76 71 76 74 82 84 84 85 87 84 80 80
42 42 45 42 45 46 48 50 51 53 54 59 59 65 65 58 62 61 68 70 69 73 73 70 66 66 67 75 76 72 76 77 76 78 76 78 75 87 88 86 83 83 81 79 80
49 50 43 43 44 44 47 49 51 53 57 59 58 56 56 62 64 66 69 70 70 66 67 68 67 64 62 72 71 66 74 76 76 78 79 73 81 86 82 80 83 85 82 81 82

GFSSW_sfc_temp_006.txt.gz
Temp
62 62 62 62 62 62 62 63 63 63 63 63 63 62 62 62 63 74 86 93 92 80 82 97 97 97 98 97 98 98 89 85 84 84 85 92 88 91 94 87 88 91 90 92 92
62 62 61 61 62 62 62 62 62 62 62 62 62 62 63 62 79 89 92 83 81 80 96 94 93 95 96 96 97 94 89 87 93 94 90 90 91 89 87 86 86 86 92 92 91
61 61 61 61 61 62 62 62 62 62 62 62 62 62 62 66 83 94 80 80 80 82 103 101 101 96 93 98 96 95 88 94 93 95 97 91 90 93 89 84 88 85 87 89 89
61 61 60 61 61 61 61 61 61 61 61 61 62 62 63 76 78 96 81 80 80 93 98 98 97 92 91 91 98 90 96 96 97 96 96 92 96 88 90 90 95 94 91 89 87
60 60 60 60 60 61 61 61 60 60 60 61 62 63 72 82 89 99 82 83 93 95 94 94 93 93 90 95 96 92 95 98 99 97 97 97 92 90 90 93 96 94 90 89 89
60 60 60 60 60 60 60 60 59 59 60 61 62 62 76 78 100 98 96 94 97 95 96 98 96 99 95 95 93 97 96 96 98 97 96 92 91 91 92 96 93 91 89 91 90
59 59 59 59 60 60 59 58 58 58 60 61 63 70 77 86 100 100 97 97 98 98 95 100 102 97 98 93 100 96 90 91 93 95 91 95 85 85 94 93 90 89 90 90 91
59 59 59 59 59 59 58 57 57 59 61 63 64 75 80 97 99 95 99 97 98 100 99 102 102 97 98 100 94 91 93 86 91 92 92 92 83 89 94 91 88 89 89 89 90
58 58 58 58 58 57 56 56 58 62 63 64 71 75 83 85 91 99 100 95 96 97 98 100 99 93 96 89 87 90 82 85 85 93 88 89 85 91 94 93 90 89 89 89 89
58 58 58 57 57 56 55 56 62 64 68 73 76 73 87 89 96 96 99 98 94 93 90 91 90 88 89 88 77 82 83 87 85 88 89 86 88 89 92 92 91 89 90 89 89
58 57 57 57 56 55 60 79 76 74 74 82 87 86 90 96 96 95 98 95 95 91 83 89 82 79 86 90 91 90 87 85 90 92 88 87 87 90 89 91 91 90 89 90 91
57 57 56 56 55 55 64 78 75 75 73 87 87 87 92 95 83 92 99 89 87 81 87 84 78 88 92 91 89 89 86 86 91 91 89 89 86 91 92 89 92 91 91 91 92
57 57 56 55 55 64 73 76 81 81 73 83 87 85 87 90 82 86 94 90 85 82 84 80 85 91 89 87 85 87 85 86 86 87 90 89 84 87 92 92 92 94 95 94 93
57 56 55 54 63 73 77 80 81 80 70 79 80 85 85 88 80 94 97 91 86 82 84 83 91 86 83 83 88 82 92 90 87 84 76 88 75 85 91 88 89 91 93 94 94
56 56 54 53 64 71 77 82 82 78 58 80 83 95 90 84 87 85 97 92 82 83 85 80 83 82 80 84 90 85 94 89 88 85 83 82 78 84 89 87 90 92 93 95 96
56 55 54 66 68 72 78 79 77 66 57 76 84 81 81 85 85 85 87 94 93 85 85 85 91 89 87 90 91 92 89 88 88 85 73 81 80 80 86 87 93 96 96 95 96
55 54 55 66 71 80 78 77 65 61 76 74 77 83 82 81 82 83 79 79 78 71 72 80 83 88 91 85 90 89 84 71 69 71 70 84 80 81 92 96 96 98 99 97 98
53 52 63 69 73 73 73 69 56 69 73 80 79 81 76 82 81 82 79 77 83 81 78 71 68 82 88 86 83 83 84 74 62 67 72 82 74 82 94 99 100 102 101 100 98
52 69 70 74 71 72 69 59 64 70 77 77 80 74 76 80 78 79 79 79 83 85 74 74 72 87 89 90 90 83 79 90 80 82 75 80 82 91 95 94 98 98 99 99 98
58 63 68 75 72 68 64 58 71 78 79 80 71 77 72 77 75 77 78 83 82 87 89 81 71 84 87 90 90 88 91 77 81 65 64 74 77 79 86 90 96 97 97 99 99
60 59 71 73 71 65 58 65 71 79 78 75 73 74 75 75 76 76 77 83 86 86 87 85 77 78 83 80 80 82 81 83 84 79 69 67 74 91 89 91 93 98 99 101 100
59 55 71 73 60 66 62 69 65 74 79 76 77 76 74 76 74 74 74 80 87 88 80 85 80 71 76 87 90 89 83 83 74 70 78 77 78 97 96 96 97 99 103 105 103
54 58 75 69 54 60 67 67 70 69 73 74 73 76 78 74 69 74 77 85 86 85 82 85 76 68 71 81 85 82 85 86 85 83 74 71 76 96 96 96 97 96 100 101 98
55 53 64 64 65 58 58 58 61 72 71 75 75 77 74 72 76 71 74 82 85 85 72 80 80 72 69 73 81 76 80 84 83 77 76 78 81 88 92 92 96 98 98 98 94
56 55 55 53 59 55 56 57 56 60 69 73 69 71 71 67 70 70 75 78 81 78 80 81 71 77 79 81 82 81 80 80 79 80 76 81 81 87 91 93 96 100 100 98 93
47 51 53 51 53 52 52 53 55 60 62 63 65 70 72 68 70 69 74 74 75 82 80 83 71 75 74 80 81 77 81 82 82 82 82 83 82 95 96 96 96 98 99 97 93
56 57 48 48 49 48 52 54 54 57 61 65 64 63 63 69 73 77 79 78 79 76 76 76 74 70 67 78 77 71 79 81 82 85 84 78 85 92 92 94 95 97 98 96 95

GFSSW_sfc_temp_009.txt.gz
Temp
62 62 62 62 62 62 63 63 63 63 63 63 63 63 63 63 63 77 89 97 97 80 81 102 102 104 105 102 106 106 81 86 87 79 90 97 94 97 101 94 95 96 95 95 97
62 62 61 61 62 62 62 62 63 63 63 62 62 62 63 63 82 93 94 85 81 81 98 100 98 102 99 101 103 97 68 85 98 89 94 95 96 95 93 91 91 92 98 96 96
61 61 61 61 61 62 62 62 62 62 62 62 62 62 63 67 87 97 81 82 81 85 105 106 105 102 96 102 101 99 82 93 98 100 98 97 96 99 94 88 92 90 91 93 94
61 61 61 61 61 61 61 62 61 61 61 61 62 62 63 81 79 100 81 81 81 97 101 103 101 96 94 94 102 94 98 99 100 101 99 96 100 95 95 96 99 97 96 94 92
60 60 60 60 60 61 61 61 60 60 60 61 62 63 73 86 91 99 82 83 95 98 97 99 97 97 92 97 100 96 98 100 102 102 101 101 96 95 95 100 101 99 96 93 94
60 60 59 60 60 60 60 59 59 59 60 61 62 62 77 81 107 105 103 99 101 99 99 101 99 102 97 97 97 101 100 100 101 102 101 97 97 96 97 101 98 96 94 95 95
59 59 59 59 60 60 59 59 58 59 60 61 63 72 83 88 107 107 105 103 105 102 99 103 104 100 100 95 103 101 94 98 98 100 97 100 92 91 99 99 96 95 94 95 95
59 59 59 59 59 59 58 57 58 59 62 63 64 78 82 106 109 106 105 103 106 107 104 107 106 102 99 103 100 95 95 88 98 99 99 97 84 94 100 97 95 95 94 94 95
58 58 58 58 58 58 56 56 58 62 64 65 74 82 85 90 96 104 105 99 103 104 104 106 103 96 97 90 89 92 84 87 89 99 96 94 79 95 99 98 95 95 95 95 94
58 58 58 58 57 56 56 56 65 63 69 79 84 80 90 92 102 103 106 103 99 98 95 94 94 89 90 89 77 83 85 90 86 94 95 91 84 95 98 97 96 95 96 94 95
58 58 57 57 56 55 61 87 80 76 81 86 90 91 95 102 104 99 103 100 99 94 85 91 85 81 87 91 92 92 90 88 94 97 93 90 91 93 96 97 96 95 95 95 95
58 57 57 56 56 55 64 83 84 84 76 90 92 94 99 102 92 97 104 92 90 84 89 87 81 91 94 94 91 91 89 89 94 93 94 91 89 96 95 95 97 96 96 96 97
57 57 56 55 56 65 83 84 90 90 77 86 94 93 96 99 90 93 99 94 88 85 86 84 88 94 92 90 88 90 88 89 89 91 94 92 85 90 97 97 97 99 100 99 98
57 57 56 54 65 80 83 89 92 90 71 82 87 92 95 96 88 99 102 95 89 85 87 88 95 90 89 87 91 84 94 93 92 83 78 92 76 87 94 94 95 97 99 100 99
57 56 55 53 66 74 85 91 91 86 60 88 89 102 97 90 93 93 102 96 85 87 88 84 88 88 85 88 93 87 96 93 92 88 81 86 81 82 93 91 94 97 98 101 101
56 56 55 69 74 79 86 87 85 67 60 82 89 85 86 90 92 93 92 98 96 88 90 89 97 93 92 94 94 95 92 92 92 89 76 84 79 83 82 92 96 100 100 100 102
55 54 56 67 72 88 88 81 66 62 83 80 83 87 86 85 87 88 85 84 81 74 76 84 87 94 95 88 93 91 86 74 73 74 73 88 82 79 95 98 99 100 102 103 103
53 53 65 76 82 81 77 70 57 73 76 88 88 87 82 89 87 87 83 81 86 86 82 76 73 86 93 89 85 86 86 76 63 70 76 86 78 86 99 103 104 104 106 107 104
53 74 76 83 84 80 71 59 65 72 83 83 85 80 81 87 87 85 83 83 86 88 78 78 76 92 92 94 91 86 81 92 82 84 78 82 87 95 98 99 101 102 104 104 105
60 67 75 85 83 75 64 58 71 80 85 85 76 82 77 82 81 82 83 88 87 91 93 85 76 89 91 94 92 88 94 81 84 67 66 77 80 82 89 92 97 98 101 104 106
62 65 81 84 79 67 58 64 70 79 82 79 78 78 81 81 84 82 81 88 92 91 92 88 83 82 88 84 82 84 83 87 86 82 72 70 78 95 92 94 95 99 102 105 105
64 58 80 82 62 65 62 67 67 76 83 80 80 80 79 82 80 81 81 86 94 93 85 89 84 76 81 91 93 90 85 86 79 73 80 80 80 98 99 99 99 99 102 105 106
58 63 79 78 55 61 66 68 73 72 75 77 76 79 82 78 74 80 83 91 91 90 86 88 79 71 75 84 89 84 86 88 88 86 76 75 79 99 101 99 101 100 102 103 106
56 55 68 70 69 63 61 63 65 76 74 76 76 79 76 74 80 76 80 87 91 89 75 83 83 75 72 75 84 79 83 86 86 79 79 79 82 91 94 95 98 99 101 103 104
54 55 63 53 60 56 54 51 56 54 68 73 70 72 73 69 72 73 80 83 87 83 85 85 74 79 82 84 85 84 83 84 81 83 78 83 83 89 94 96 98 101 101 101 102
47 51 56 56 58 54 51 53 54 58 58 55 60 70 73 68 72 71 78 78 79 85 83 86 73 78 76 83 83 80 84 85 84 84 84 85 84 97 99 100 99 99 99 99 101
53 54 52 50 54 53 53 52 54 60 58 59 55 54 62 69 70 75 82 86 84 80 79 79 77 73 68 79 79 73 81 83 85 88 86 79 86 94 94 95 98 99 100 99 101

GFSSW_sfc_temp_012.txt.gz
Temp
62 62 62 62 62 62 63 63 63 63 63 63 63 62 62 62 63 77 83 95 96 81 80 102 98 100 103 99 102 102 83 77 83 85 88 96 92 99 100 94 93 92 91 92 96
62 62 61 61 62 62 62 62 62 62 62 62 62 62 62 62 75 86 94 88 84 81 98 98 97 100 96 98 100 92 74 80 82 91 91 96 94 94 92 91 92 91 95 96 96
61 61 61 61 62 62 62 62 62 62 62 62 62 62 62 66 82 93 84 84 82 84 102 103 103 101 94 98 98 88 74 88 91 95 94 95 94 97 91 87 91 86 89 93 94
61 61 61 61 61 61 61 61 61 61 61 61 62 62 63 76 75 99 81 81 81 96 99 98 99 94 92 91 99 92 94 95 97 99 96 95 98 94 94 92 97 95 93 93 93
60 60 60 60 60 61 61 61 60 60 60 61 62 62 74 82 87 104 81 83 94 96 96 95 95 94 89 94 97 95 95 100 102 101 100 98 95 94 95 99 100 97 93 91 93
60 60 59 59 60 60 60 60 59 59 60 61 62 62 74 76 103 101 102 98 100 98 97 98 97 100 95 94 94 99 99 99 102 101 101 95 95 96 96 100 97 95 92 92 93
59 59 59 59 59 60 59 59 59 59 60 61 63 69 79 84 106 109 106 102 103 101 97 101 103 98 98 93 100 99 93 97 98 99 98 100 90 91 97 99 95 93 92 93 93
59 59 59 59 59 59 58 58 58 59 61 63 64 75 77 102 107 102 107 103 106 106 103 105 105 99 97 100 96 92 93 85 96 98 99 96 80 94 98 96 93 93 92 92 93
59 59 59 59 58 58 57 57 59 61 63 66 69 76 80 97 97 105 106 99 102 104 104 105 102 95 95 88 84 88 80 84 89 99 96 93 80 87 99 96 93 92 92 93 93
58 58 58 58 57 57 56 57 66 64 68 78 81 78 87 91 101 104 106 104 98 98 95 95 93 88 88 84 72 79 82 86 86 93 95 81 72 78 89 93 93 93 93 92 92
58 57 57 57 57 56 59 77 80 76 76 80 85 86 96 100 106 101 105 100 99 94 84 89 82 77 83 86 88 88 87 86 91 94 92 79 67 65 81 89 94 93 93 93 93
58 57 57 57 56 57 63 79 86 86 74 88 89 90 96 103 93 97 105 91 89 82 88 84 77 86 91 90 87 87 85 86 92 93 92 88 73 75 84 91 95 94 94 94 95
57 57 57 56 56 65 81 83 95 92 75 81 90 88 92 96 90 93 99 94 87 83 84 79 85 91 90 87 85 85 84 85 87 92 94 90 85 84 92 96 97 98 98 97 96
57 57 56 54 66 74 77 92 95 93 67 77 89 91 95 95 87 100 102 95 88 83 85 85 91 89 87 85 88 80 91 90 89 85 77 89 71 76 84 90 93 96 97 97 97
57 56 55 54 62 68 84 91 91 86 55 90 91 105 100 90 94 93 103 95 84 84 86 81 85 86 84 86 91 85 93 90 89 84 82 82 77 82 87 85 90 95 97 99 99
56 55 55 66 70 75 84 88 86 65 56 82 91 87 87 91 92 97 94 97 95 87 88 87 96 92 91 93 93 95 90 89 89 86 73 80 77 78 84 83 88 95 98 99 100
55 54 55 64 66 85 84 81 63 57 83 80 84 88 86 84 86 89 85 83 79 73 74 83 85 93 95 88 92 90 84 72 70 72 71 85 78 79 90 92 94 80 86 100 101
53 53 61 71 78 78 76 67 53 70 72 88 89 88 81 86 85 86 84 79 85 84 78 73 71 86 93 88 84 85 84 75 61 67 73 85 77 84 93 96 94 87 80 102 102
52 69 71 79 85 81 69 55 61 69 80 82 85 81 82 85 86 85 83 82 86 86 75 76 75 92 92 94 91 84 79 89 78 81 75 81 85 94 97 92 93 97 102 102 102
58 62 70 84 85 78 62 53 66 76 81 82 74 80 77 82 82 83 82 87 86 91 91 84 74 88 91 93 93 88 91 77 79 64 63 75 77 80 88 89 94 94 97 102 104
58 62 77 87 85 68 55 59 65 74 75 70 70 72 78 80 83 82 83 89 91 90 91 87 81 81 88 84 81 83 81 82 84 79 70 68 75 93 89 92 91 94 99 102 103
61 54 82 84 63 64 59 64 63 70 75 75 76 74 73 76 79 81 81 86 95 94 84 88 83 74 80 91 93 89 83 82 73 69 78 76 78 98 95 97 98 98 100 102 101
54 58 75 76 54 58 64 65 69 68 70 70 70 75 78 74 70 77 83 93 95 91 86 89 79 70 73 83 89 84 86 86 84 82 71 71 76 97 93 89 95 97 99 99 102
51 50 63 70 68 62 59 60 61 71 69 70 70 72 72 71 77 73 77 86 93 93 75 86 82 74 71 74 83 79 83 85 83 75 75 77 81 87 89 91 94 95 95 100 98
51 50 59 50 56 56 50 50 51 53 64 66 61 62 61 61 70 71 77 80 87 86 86 86 73 78 80 83 84 83 82 83 80 80 74 81 81 87 91 91 93 98 97 97 98
40 46 53 52 55 55 52 49 50 54 57 52 54 56 57 55 54 52 67 76 77 85 84 86 72 76 74 82 82 80 84 84 84 83 82 83 82 95 97 97 95 93 96 95 96
51 51 44 46 50 51 54 54 52 53 56 57 55 49 50 54 58 61 67 71 76 79 79 78 75 71 67 78 78 72 80 83 84 87 85 78 85 93 91 92 95 91 97 96 97

GFSSW_sfc_temp_015.txt.gz
Temp
62 62 62 62 62 62 63 63 63 63 63 63 62 62 62 62 62 71 74 85 87 81 79 94 91 92 92 88 87 89 70 61 68 75 82 85 83 89 91 84 84 87 83 85 88
61 61 61 61 62 62 62 62 62 62 62 62 62 62 62 62 65 73 85 85 85 81 89 89 88 90 84 85 89 81 70 72 82 85 83 88 85 85 85 82 81 84 88 87 88
61 61 61 61 61 61 61 62 62 62 62 61 61 62 62 62 67 83 83 85 86 83 93 94 93 90 83 87 88 81 72 84 86 89 89 87 87 90 83 77 81 79 82 84 84
61 60 60 61 61 61 61 61 61 61 61 61 61 62 62 63 65 92 82 83 83 87 90 90 88 80 79 80 89 76 87 89 88 91 88 87 89 86 87 84 89 87 87 83 82
60 60 60 60 60 60 60 60 60 60 60 61 61 62 61 65 74 94 81 82 87 88 87 85 82 81 78 84 87 84 87 91 91 90 89 92 89 87 87 89 91 90 88 83 82
60 59 59 59 60 60 60 59 59 59 60 61 62 62 59 62 91 97 89 86 91 88 86 87 85 88 84 85 83 89 90 91 92 87 91 87 86 89 88 90 88 88 86 86 82
59 59 59 59 59 59 59 59 59 59 60 61 63 65 65 71 94 93 91 89 90 91 86 90 92 86 85 82 91 89 83 88 91 88 88 88 77 76 90 91 86 85 86 87 86
59 59 59 59 59 59 58 58 58 60 61 62 64 65 60 89 90 89 91 93 95 93 93 93 94 87 83 88 87 81 78 70 85 89 91 82 67 83 90 87 83 85 85 86 85
58 58 58 58 58 58 57 57 59 63 63 65 59 59 65 91 84 91 94 91 92 92 93 101 90 82 83 75 68 72 66 71 78 92 88 78 67 85 90 86 83 84 85 85 85
58 58 58 58 58 57 56 58 62 63 64 70 74 63 74 81 92 94 96 97 91 89 88 86 79 72 74 68 59 64 67 73 75 84 86 75 70 77 86 86 84 84 85 85 85
58 58 57 57 57 56 55 57 65 61 66 68 70 75 83 92 97 93 97 92 90 83 73 78 68 67 70 75 77 77 75 75 81 88 76 73 73 76 83 80 80 83 83 84 85
58 57 57 56 56 56 55 60 72 76 66 80 81 81 85 87 82 91 97 83 81 73 76 72 68 75 81 81 79 77 74 74 82 88 77 73 74 80 83 83 81 84 84 85 85
57 57 56 56 56 59 64 67 80 81 64 72 79 79 81 85 79 84 90 85 79 74 75 69 73 83 81 78 76 75 72 74 75 85 80 74 67 68 79 82 83 86 88 87 86
57 57 56 54 60 60 64 79 82 82 53 66 75 81 83 84 78 91 95 86 80 74 77 73 82 81 77 76 78 69 81 81 80 77 66 79 59 63 73 75 78 82 87 87 88
57 56 55 54 52 56 71 76 78 73 43 80 81 94 85 77 81 84 95 87 77 77 75 72 76 77 76 77 82 76 83 81 80 76 70 76 65 67 72 67 72 80 88 89 89
56 55 54 57 59 63 70 74 71 52 45 73 86 81 76 79 81 86 85 89 87 79 79 77 85 82 80 85 85 86 80 78 78 74 63 70 70 64 65 68 71 83 89 90 90
55 54 53 58 54 72 67 65 49 46 74 74 75 80 78 75 77 79 79 75 71 64 65 74 77 83 86 77 81 80 66 61 58 59 56 68 69 71 81 81 85 86 83 88 87
53 52 57 65 66 64 62 54 43 62 63 76 76 78 74 78 78 79 76 71 77 73 64 62 60 77 84 79 73 74 72 62 48 54 59 68 66 72 87 88 91 90 85 87 90
52 58 60 66 72 68 58 44 51 60 69 69 67 69 72 78 77 76 74 73 77 77 65 63 64 81 85 86 82 71 68 76 59 62 56 64 70 79 87 85 88 88 88 89 91
51 54 58 69 75 67 53 46 55 67 66 63 53 63 57 63 67 73 73 80 78 82 81 70 59 77 84 86 84 78 76 64 69 53 53 64 63 66 71 80 80 81 84 87 88
51 51 66 76 76 60 47 50 57 65 67 61 59 58 60 61 64 64 70 81 85 83 83 77 70 70 76 74 73 74 71 67 66 66 57 53 63 73 76 81 80 84 88 87 90
52 43 68 70 51 58 52 57 57 61 67 63 64 61 59 61 60 63 65 71 87 87 77 79 70 63 69 80 85 81 70 68 61 52 58 62 64 81 84 83 87 88 89 91 87
45 48 63 65 44 49 56 59 62 61 61 61 61 65 66 59 55 62 66 77 81 79 79 78 71 58 62 70 78 75 77 71 74 61 57 52 62 86 87 84 84 85 83 86 86
44 41 54 58 59 52 51 48 46 56 55 58 58 59 55 54 58 57 60 71 79 80 75 74 71 68 61 62 68 67 75 77 71 64 64 66 68 76 76 78 83 88 85 92 87
44 43 50 40 44 45 49 45 44 46 54 53 53 50 47 43 47 50 56 54 62 73 75 68 67 70 72 75 76 75 74 77 72 71 63 65 68 72 76 79 79 82 84 86 86
40 41 46 42 45 45 46 47 47 50 50 46 46 47 46 44 44 40 47 48 47 58 55 61 59 64 64 73 76 73 77 78 78 77 74 74 73 75 76 81 81 82 87 86 87
48 49 41 39 41 40 42 46 45 47 49 50 49 48 45 50 49 49 52 53 53 51 51 54 56 57 56 67 67 63 73 75 75 79 76 69 77 77 77 78 78 83 85 85 88

GFSSW_sfc_temp_018.txt.gz
Temp
62 62 61 61 62 62 62 62 62 62 63 63 62 62 62 62 61 65 68 81 80 80 81 83 82 85 85 80 80 81 66 60 64 70 74 81 77 83 85 79 80 83 78 79 83
61 61 61 61 61 62 62 62 62 62 62 62 62 62 62 62 60 66 81 82 82 81 85 80 79 83 75 77 78 72 62 71 76 76 79 81 81 80 78 77 77 76 81 83 84
61 61 60 61 61 61 61 61 62 61 61 61 61 62 62 61 63 75 81 82 83 82 89 87 86 82 75 78 78 76 69 80 87 83 85 82 80 82 76 72 75 73 76 80 81
61 60 60 60 61 61 61 61 61 61 61 61 61 62 62 59 62 87 81 80 83 85 85 83 81 74 71 73 82 73 81 83 85 89 84 81 82 79 79 79 83 81 81 80 79
60 60 60 60 60 60 60 60 60 60 60 61 62 62 58 59 67 88 83 82 83 84 81 80 77 74 71 75 79 76 81 87 90 88 85 86 82 80 80 85 86 83 82 80 79
60 59 59 59 60 60 60 60 59 59 60 61 62 62 55 58 84 88 88 84 86 83 80 80 79 80 76 77 76 81 82 84 87 87 88 83 84 84 83 86 82 81 80 80 80
59 59 59 59 59 60 59 59 59 59 60 61 62 62 58 68 85 85 84 79 82 84 80 82 85 78 77 76 83 82 76 82 83 87 84 87 76 77 83 84 79 79 80 80 81
59 59 59 59 59 59 58 57 58 59 61 62 63 59 54 79 82 82 83 82 86 84 86 86 86 80 75 81 80 74 69 65 78 83 83 81 67 80 84 82 79 79 80 80 80
58 58 58 58 58 58 57 57 58 63 64 63 56 54 57 81 75 81 83 83 84 84 86 95 82 76 75 69 63 64 60 65 72 84 82 74 66 79 84 81 79 80 79 80 79
58 58 58 58 57 57 56 57 58 61 64 67 69 57 68 77 83 85 83 88 83 82 81 80 73 67 63 61 54 59 60 65 67 77 77 70 67 79 82 80 79 80 81 82 80
58 57 57 57 57 55 54 48 60 58 59 61 62 66 76 82 88 85 87 84 82 76 67 72 63 62 64 66 70 69 66 66 74 80 71 73 72 78 80 79 78 78 79 80 83
58 57 57 56 56 56 51 56 60 65 55 72 73 74 78 79 75 81 88 77 74 68 69 65 62 68 74 73 71 71 67 67 74 79 73 69 73 77 79 79 79 79 79 80 82
57 57 56 55 55 55 53 58 68 67 54 65 74 73 74 76 70 74 80 79 73 67 67 64 67 77 74 72 69 69 67 69 67 75 71 72 68 72 77 78 81 82 82 83 82
57 57 56 54 53 52 55 65 67 67 47 58 65 72 75 76 68 84 84 82 74 70 71 65 76 74 73 71 70 58 75 76 73 65 59 70 54 66 71 71 78 80 81 82 83
57 56 55 54 45 47 61 63 65 60 41 73 72 82 75 72 75 78 87 77 73 71 68 64 71 71 70 72 75 68 75 74 74 67 58 66 57 62 69 69 73 77 81 83 84
56 55 54 50 47 54 60 59 57 49 41 64 76 71 67 69 73 79 80 79 79 72 73 70 78 76 75 78 78 80 71 70 65 66 53 64 64 59 61 72 77 82 82 84 85
54 53 53 56 45 56 57 55 45 39 65 66 63 67 65 66 70 70 74 70 66 56 59 68 72 75 78 69 74 71 59 52 51 52 53 64 59 65 74 78 83 84 80 84 87
53 52 53 57 51 53 53 48 36 55 57 65 61 64 63 66 67 71 66 67 70 62 57 58 57 70 77 73 66 64 64 55 45 45 51 61 55 68 77 83 84 87 82 85 87
52 48 50 52 60 55 45 35 41 51 58 56 57 54 56 63 60 65 66 67 71 71 60 53 58 72 79 78 76 66 58 69 54 48 49 55 63 71 76 79 82 82 82 85 87
46 42 46 58 60 52 40 38 45 57 59 58 47 53 47 52 54 55 55 69 72 77 77 64 53 68 78 78 79 69 70 57 50 48 49 52 57 60 68 72 78 80 82 86 89
42 38 52 61 58 46 37 39 51 59 61 54 50 49 52 51 53 52 55 66 72 74 77 73 60 63 67 66 67 66 64 55 60 54 53 45 60 69 70 72 74 82 86 87 89
39 33 53 61 39 39 40 46 53 55 60 57 57 55 53 55 52 53 54 61 71 70 59 70 65 60 64 72 77 76 68 62 58 50 53 62 63 74 75 77 77 83 85 88 90
36 36 52 50 32 35 42 48 50 50 50 49 49 52 52 48 44 51 53 64 60 60 58 60 59 55 54 60 62 65 71 71 56 54 58 51 57 75 74 74 77 78 82 85 88
37 32 39 43 43 38 36 41 42 53 52 52 49 51 46 43 46 44 48 56 56 57 61 57 54 56 57 63 64 60 69 70 69 61 61 62 58 67 70 71 74 76 83 81 81
37 33 37 30 34 38 41 41 39 40 47 49 45 47 42 35 41 43 48 48 54 59 54 48 41 55 62 69 72 68 68 71 66 70 63 68 61 66 69 71 76 80 79 84 84
38 37 39 37 35 35 39 40 36 42 43 40 41 46 44 37 42 40 43 41 42 49 46 46 41 49 54 66 73 69 72 73 71 72 70 66 64 72 76 72 75 78 83 79 83
46 47 40 38 34 30 32 39 39 45 45 47 47 44 42 46 50 49 50 48 46 43 43 41 41 43 42 61 68 60 71 71 71 72 72 63 68 71 71 73 75 77 76 80 81

GFSSW_sfc_temp_021.txt.gz
Temp
61 61 61 61 61 62 62 62 62 62 62 62 62 62 62 61 61 62 65 77 76 80 81 79 81 80 80 75 77 74 60 58 63 66 70 77 73 80 81 75 78 79 75 76 79
61 61 61 61 61 61 61 61 62 62 62 62 62 62 62 61 57 61 78 81 80 80 79 74 73 78 71 73 74 68 58 64 73 74 74 78 76 77 74 73 73 75 78 79 79
61 61 61 61 61 61 61 61 61 61 61 61 61 62 62 60 60 73 81 80 80 81 84 82 81 78 70 72 73 72 63 74 80 82 81 77 77 79 73 69 72 70 73 76 77
60 60 60 60 60 60 61 61 61 60 60 61 61 62 62 57 61 82 80 80 81 83 83 80 77 70 67 67 75 69 75 78 82 85 81 77 80 75 75 74 79 78 77 77 75
60 60 60 60 60 60 60 60 60 60 60 61 61 62 56 56 65 84 81 81 80 81 80 77 73 71 67 69 75 72 76 81 82 85 83 82 77 77 76 80 81 80 78 76 76
60 59 59 59 60 60 60 60 59 59 60 61 61 62 52 57 81 82 81 80 80 79 76 77 75 75 71 72 72 76 79 80 81 80 86 79 77 77 78 81 78 77 76 76 77
59 59 59 59 59 60 59 59 59 59 60 61 62 60 54 66 82 81 79 77 78 81 74 78 80 77 74 70 78 78 72 76 78 78 80 82 72 73 80 80 76 76 76 77 78
59 59 59 59 59 59 58 58 58 59 61 62 62 57 54 74 76 78 80 76 82 79 80 80 81 74 71 76 75 69 66 62 74 76 81 79 65 77 80 77 74 75 76 76 77
58 58 58 58 58 58 57 57 58 62 63 63 56 52 56 77 71 75 78 78 78 77 79 90 78 70 70 65 59 60 57 62 68 77 76 75 65 75 80 76 73 75 76 76 76
58 58 58 58 57 56 56 56 58 60 63 65 66 54 64 73 77 80 77 83 78 77 75 75 69 62 59 58 52 56 58 61 63 72 74 67 65 74 77 75 74 75 75 76 76
58 57 57 57 56 56 53 51 57 55 56 58 59 63 71 78 84 79 80 78 76 72 63 67 61 54 61 63 66 65 62 63 68 75 70 72 66 72 76 76 73 73 74 75 76
57 57 57 56 55 55 51 54 58 56 48 64 64 67 74 74 71 76 83 72 70 62 65 60 59 65 69 67 67 65 62 63 67 74 69 68 67 73 75 75 76 75 75 76 77
57 57 56 55 55 53 50 54 62 55 47 60 66 66 69 71 67 71 75 73 67 63 63 61 63 71 70 66 64 60 60 65 64 68 67 65 61 67 74 77 78 79 80 79 79
57 56 56 54 52 48 54 59 59 58 44 56 61 68 70 69 62 79 80 77 69 66 66 61 71 70 67 65 65 54 67 70 67 62 55 65 51 59 66 71 74 76 78 79 80
56 56 54 54 44 44 58 58 59 54 39 69 65 76 69 68 69 70 81 74 68 67 65 61 65 67 65 68 68 64 71 68 67 61 54 60 54 59 66 66 70 75 77 79 81
56 55 54 49 44 49 55 54 53 47 39 62 70 65 62 64 69 72 73 74 76 68 66 68 72 72 69 73 73 73 65 63 60 56 47 62 58 58 59 69 72 77 79 80 81
54 53 52 54 44 51 53 51 43 37 61 59 56 59 58 61 65 67 68 65 62 56 57 63 69 70 73 65 67 66 56 47 45 46 50 60 55 66 67 76 78 76 79 82 83
53 52 51 55 49 49 47 45 34 52 51 58 57 57 56 58 60 61 65 63 69 60 56 56 52 67 70 67 63 59 59 44 39 41 49 56 52 61 77 78 83 84 83 83 83
52 48 42 49 56 50 42 34 39 46 55 53 55 50 49 54 55 55 53 65 69 65 57 52 55 68 75 73 72 60 57 64 49 42 46 51 58 66 73 75 76 80 83 82 83
45 40 41 53 55 47 38 35 40 54 55 54 44 49 43 48 49 49 50 60 61 68 63 59 50 63 72 73 71 69 67 54 45 44 44 48 53 56 63 73 72 74 76 79 83
40 36 48 55 49 41 31 34 46 55 57 51 47 45 46 47 50 47 50 56 59 58 62 56 55 58 64 61 63 59 60 52 54 51 50 45 55 67 68 69 70 72 79 81 81
36 31 51 52 37 33 32 38 49 51 54 50 51 49 47 48 45 48 50 55 59 58 50 53 47 55 58 66 75 69 66 57 53 48 46 56 58 68 75 76 72 73 79 81 84
34 33 47 47 30 30 37 44 49 47 47 47 46 48 48 44 41 46 48 58 57 54 49 50 43 44 49 55 59 61 62 67 59 53 58 50 54 69 73 71 73 75 75 78 81
35 31 35 38 37 33 33 37 39 49 48 47 47 47 43 40 44 41 45 54 55 55 59 50 40 43 45 50 57 57 64 66 64 55 60 61 58 62 67 69 71 72 74 75 78
37 31 33 29 32 32 36 37 37 36 45 47 42 43 40 32 37 39 45 46 51 54 50 44 35 42 48 53 57 61 62 68 61 65 60 65 59 67 67 68 71 74 74 75 77
37 37 41 36 38 38 34 36 37 40 41 40 37 41 41 35 38 36 40 38 40 46 44 41 38 41 44 56 60 59 64 67 69 69 66 65 60 68 74 71 69 73 73 72 76
43 46 40 38 37 34 34 35 37 40 45 46 43 40 39 42 44 44 46 44 43 40 38 38 37 36 35 49 51 51 62 67 69 70 69 63 66 69 69 69 70 72 72 75 76

GFSSW_sfc_temp_024.txt.gz
Temp
62 62 61 61 61 62 62 62 62 62 62 62 62 62 62 61 61 60 62 75 72 78 81 79 78 78 77 75 76 74 58 55 60 64 67 73 70 77 79 73 75 76 72 74 75
61 61 61 61 61 61 61 61 61 62 62 61 61 61 61 61 55 58 76 79 79 80 77 73 71 75 68 73 72 65 57 62 71 71 70 74 73 74 72 71 71 72 75 75 75
61 61 61 61 61 61 61 61 61 61 61 61 61 61 61 60 57 71 81 80 80 80 80 79 77 74 67 69 70 67 61 70 75 78 77 73 74 76 71 66 70 67 69 73 72
61 60 60 60 61 61 61 61 61 60 60 60 61 61 61 55 59 75 79 79 80 82 79 76 74 67 64 64 71 63 72 74 76 79 76 73 76 73 74 72 78 74 74 73 71
60 60 60 60 60 60 60 60 60 60 60 60 61 61 55 53 64 78 79 79 79 79 76 74 70 67 63 66 69 67 71 76 82 81 77 78 75 75 73 78 79 77 74 73 72
60 60 59 59 60 60 60 60 59 59 59 60 61 61 50 53 77 79 77 76 76 76 74 74 73 73 67 68 67 72 74 76 77 75 78 74 75 76 76 78 76 74 73 73 73
59 59 59 59 59 59 59 59 58 58 59 60 62 58 52 63 78 76 75 73 77 78 72 74 76 75 71 67 75 73 69 72 74 75 77 79 68 71 76 77 73 73 73 73 74
59 59 59 59 59 59 58 57 58 59 61 62 62 56 53 71 71 71 75 72 77 76 74 76 77 70 67 72 71 65 63 59 70 74 77 76 64 74 76 74 72 73 73 74 74
58 58 58 58 58 58 56 57 59 64 63 63 54 50 56 75 68 71 76 74 72 71 75 87 75 68 66 62 57 57 55 59 65 75 73 71 64 74 77 73 71 72 73 74 74
58 58 58 58 57 56 56 57 58 61 62 63 63 52 62 69 73 75 72 79 74 72 73 72 65 59 56 55 51 53 55 57 61 69 69 67 64 70 74 73 71 72 73 73 73
57 57 57 57 56 55 53 52 53 52 52 55 56 60 68 74 78 74 75 75 74 67 59 63 56 54 56 59 63 62 59 60 65 71 67 67 66 67 73 73 71 72 72 73 74
57 57 56 56 55 55 51 53 53 52 44 59 58 62 70 69 67 73 78 69 66 60 62 56 57 62 65 64 64 62 60 59 64 71 66 64 66 67 71 71 73 73 72 73 75
57 56 56 55 55 50 47 52 56 50 41 55 60 61 63 66 64 67 73 69 64 60 62 60 60 68 67 62 60 56 58 59 60 65 64 62 59 62 71 72 74 75 76 76 75
56 56 55 54 51 45 50 52 53 53 41 53 57 64 66 65 59 74 78 73 65 65 60 59 67 67 62 62 63 50 64 67 65 59 53 62 49 58 64 68 71 73 74 75 76
56 56 54 53 43 42 54 53 55 49 37 65 60 72 65 62 64 65 76 69 63 62 63 59 62 63 61 63 65 62 67 65 64 58 52 56 52 56 62 62 67 73 75 76 78
55 55 54 48 43 46 50 50 47 44 36 58 64 60 59 61 65 67 69 71 71 65 62 64 68 69 66 69 68 69 63 58 54 52 46 55 56 52 56 65 69 74 76 78 79
54 53 51 52 45 49 48 47 41 35 56 54 52 56 55 56 60 61 62 62 61 52 52 59 65 65 69 62 63 62 54 43 42 43 48 55 53 64 64 72 73 74 76 79 80
52 51 49 52 50 48 44 43 31 48 46 55 54 54 51 53 54 56 58 59 61 58 53 52 49 65 67 64 59 56 53 42 37 38 47 52 50 57 73 73 79 80 81 81 80
51 43 43 47 54 47 42 31 35 41 51 49 51 46 46 51 51 52 50 56 63 57 54 49 53 67 69 68 70 55 55 58 46 40 43 48 55 65 69 71 72 76 79 78 81
44 41 40 51 51 45 36 32 37 50 51 50 40 46 41 45 47 46 47 51 52 58 56 54 48 61 69 70 68 62 62 51 43 39 37 45 49 55 60 68 70 70 74 78 81
38 35 47 52 47 39 28 31 40 50 52 45 43 42 43 43 46 44 47 50 54 54 55 47 50 52 61 60 63 56 55 49 53 46 42 39 49 60 65 66 71 73 76 79 81
35 30 49 49 34 31 28 37 44 45 49 47 47 44 43 45 43 45 45 47 56 55 46 46 41 48 54 60 68 71 62 53 52 46 44 44 53 67 68 74 70 72 75 76 78
33 34 45 45 26 27 35 41 46 42 42 43 43 45 45 41 38 44 46 53 55 52 46 48 40 40 46 55 58 55 63 57 62 49 52 48 54 71 67 68 72 70 71 72 74
34 31 34 38 33 30 33 32 37 48 44 44 43 45 41 38 41 39 43 51 54 54 57 49 37 39 38 43 48 48 55 59 61 56 57 57 60 61 65 66 69 68 70 73 72
34 30 35 28 31 37 38 33 35 35 44 44 39 40 36 31 36 36 43 44 50 52 48 42 37 39 43 49 51 52 53 56 55 61 56 63 62 64 65 66 70 71 70 72 73
36 37 40 37 38 37 38 29 34 38 38 37 37 37 41 32 35 33 37 36 38 44 40 39 37 37 40 51 52 49 55 58 59 60 59 64 59 66 70 67 68 69 70 71 72
43 43 39 37 34 30 31 34 36 38 40 43 41 38 37 40 42 42 42 41 41 38 37 36 36 35 33 44 47 46 56 59 59 62 63 57 63 69 65 66 69 73 71 70 72

GFSSW_sfc_temp_027.txt.gz
Temp
62 62 62 61 62 62 62 62 62 62 62 62 62 62 62 61 61 64 69 82 78 78 81 83 83 82 83 79 80 79 73 70 72 72 76 81 77 82 84 78 79 80 78 81 80
62 62 61 61 61 61 62 62 62 62 62 62 61 61 61 61 61 65 79 78 78 79 82 79 76 79 77 77 78 74 72 73 80 81 80 81 81 79 77 77 77 77 80 80 79
61 61 61 61 61 61 61 61 61 61 61 61 61 61 61 63 65 80 81 79 79 82 86 85 82 79 74 75 76 75 73 79 81 85 84 81 80 83 78 74 79 75 76 77 78
61 61 61 61 61 61 61 61 61 61 61 61 61 61 61 60 69 82 79 79 79 87 84 82 79 75 72 70 77 71 77 81 83 86 83 80 84 80 80 81 86 82 80 78 77
60 60 60 60 60 60 61 60 60 60 60 61 61 61 60 63 71 82 79 80 83 84 82 79 75 75 71 74 76 74 78 81 84 86 87 84 81 82 80 85 87 82 80 78 78
60 59 59 59 60 60 60 59 59 59 59 60 61 61 58 62 85 84 83 82 83 82 82 82 78 81 77 76 76 80 80 82 84 85 87 82 83 82 83 84 80 79 79 80 79
59 59 59 59 59 59 59 58 58 59 59 60 61 61 58 72 84 83 83 82 84 84 80 84 85 81 81 76 83 82 76 82 84 85 84 86 77 77 85 83 78 78 78 79 80
59 59 59 59 59 59 58 57 58 62 61 61 62 61 63 78 82 79 81 79 84 87 87 87 86 84 79 82 79 77 77 73 83 84 85 85 76 84 84 82 78 78 78 78 80
58 58 58 58 58 57 56 56 60 64 64 63 59 57 66 76 74 81 84 80 80 83 85 88 85 79 78 74 71 73 70 71 76 85 83 82 79 84 84 83 79 78 79 79 79
58 57 57 57 57 56 55 57 61 63 64 65 64 58 69 74 78 78 84 83 78 78 77 78 78 73 73 71 62 66 67 72 73 82 81 80 79 81 82 82 80 79 79 79 79
57 57 57 56 56 54 57 64 63 61 61 64 65 65 71 81 84 78 83 82 80 76 69 74 68 65 70 72 74 73 72 72 76 82 80 80 81 80 81 82 80 79 79 79 80
57 57 56 56 55 54 61 60 56 57 49 63 60 65 71 74 71 76 84 75 74 68 73 67 64 73 75 72 71 71 70 72 75 80 78 78 78 81 80 79 81 79 80 80 82
57 56 56 55 54 57 55 56 61 60 49 60 63 65 69 72 68 74 80 78 73 70 69 68 71 76 71 69 68 70 69 71 72 77 79 76 75 74 79 82 83 83 84 81 83
56 56 55 54 57 54 58 59 60 58 51 61 63 68 70 73 67 81 82 80 74 69 71 71 77 71 69 68 71 65 74 73 72 71 66 78 66 72 79 77 79 82 82 83 84
56 55 54 53 52 53 60 59 61 56 47 67 65 78 73 71 72 71 83 79 73 73 72 68 70 68 66 70 73 70 75 73 74 72 70 72 67 75 74 75 77 80 83 84 86
55 54 53 53 53 57 58 57 57 52 45 62 68 66 65 69 71 72 74 82 81 73 75 75 77 76 74 76 75 78 73 72 70 71 59 69 68 71 74 76 81 83 84 84 85
54 52 53 56 55 61 57 57 50 45 62 57 58 63 61 63 67 68 67 68 68 62 63 70 71 76 79 72 75 75 70 60 57 57 58 74 66 70 81 83 87 85 84 85 86
52 51 53 57 60 57 57 54 41 51 51 58 58 59 58 60 62 63 66 65 73 72 68 62 58 72 77 74 69 70 71 61 51 57 62 68 63 72 84 87 88 90 90 88 87
52 54 56 59 60 58 55 43 43 45 48 48 55 53 54 57 58 59 62 66 71 72 65 63 64 74 77 78 77 68 65 76 65 61 61 68 73 79 82 84 86 87 89 88 88
50 48 53 59 58 57 50 39 44 50 51 53 45 51 48 52 55 57 57 55 59 62 64 68 61 74 75 79 79 73 77 62 66 54 53 63 63 70 75 80 83 84 86 89 90
48 47 59 59 59 53 41 40 43 51 52 48 47 46 49 48 52 53 51 55 58 59 63 62 64 64 73 70 69 68 67 70 71 66 59 58 66 77 78 80 83 87 89 90 90
45 44 57 57 46 44 40 42 45 48 52 48 51 49 47 49 50 50 49 52 59 59 54 58 62 62 65 77 80 76 72 71 63 58 64 66 67 82 83 84 84 88 90 90 91
39 40 56 57 36 37 42 42 46 46 47 46 44 49 51 48 46 49 51 56 58 59 54 59 56 57 61 70 72 70 74 74 74 73 60 60 66 85 84 81 85 85 88 86 86
44 40 48 48 45 39 37 39 39 49 45 46 43 48 46 46 49 46 48 54 57 58 57 58 55 55 58 61 60 58 65 72 71 65 64 66 70 77 79 78 83 84 86 87 86
43 40 43 38 42 42 42 39 38 39 46 47 41 37 38 39 44 44 47 50 55 54 57 57 50 52 54 56 57 57 59 62 62 68 65 69 70 75 79 81 84 87 87 84 85
41 41 43 39 41 40 40 39 37 40 41 40 39 37 38 35 41 40 43 46 46 53 52 55 50 50 50 57 58 55 60 60 63 64 65 67 68 82 80 84 83 86 86 85 85
47 47 40 37 38 36 38 39 40 42 44 45 39 36 39 41 47 50 51 51 50 47 47 48 50 49 46 53 54 52 60 63 65 68 68 63 71 79 78 79 79 83 85 85 88

GFSSW_sfc_temp_030.txt.gz
Temp
62 62 62 62 62 62 62 62 62 63 63 63 62 62 62 62 62 72 77 88 86 79 83 91 91 90 91 88 89 88 82 81 82 82 83 91 86 90 92 86 88 87 88 88 87
62 62 62 62 62 62 62 62 62 62 62 62 62 62 62 62 73 79 88 82 81 79 90 87 85 88 85 88 88 85 82 83 89 90 88 90 89 88 86 85 85 85 89 88 88
61 61 61 61 61 61 61 62 62 62 61 61 62 62 62 65 75 89 82 79 79 83 96 94 92 89 86 89 87 86 83 89 90 92 92 90 89 92 87 83 87 83 83 85 85
61 61 61 61 61 61 61 61 61 61 61 61 61 62 62 72 74 92 80 79 79 94 95 92 89 84 84 81 88 81 88 90 91 92 91 88 93 89 89 90 94 91 88 86 85
60 60 60 60 60 60 60 60 60 60 60 60 61 62 68 74 81 97 79 80 87 93 91 89 85 86 83 86 87 83 88 90 92 93 93 93 89 89 89 94 95 92 88 87 87
59 59 59 59 59 60 60 59 59 59 59 60 61 62 71 69 96 95 93 88 90 93 92 92 89 92 87 86 85 90 89 90 92 93 94 90 90 91 92 95 92 90 88 89 88
59 59 59 59 59 59 59 58 58 59 61 61 62 67 69 79 94 95 94 93 94 94 91 95 96 90 90 84 91 90 83 89 91 92 91 94 86 87 94 93 89 89 88 89 89
59 59 59 59 59 59 58 57 58 61 63 61 63 70 72 90 94 90 94 93 96 97 97 98 95 92 88 90 87 84 86 80 91 93 94 92 82 92 96 91 88 89 88 88 89
58 58 58 58 58 57 56 57 60 64 63 63 67 71 76 79 82 92 93 87 92 93 95 96 92 86 88 80 80 83 78 81 85 93 92 90 85 93 97 93 89 88 88 88 88
58 58 58 58 57 56 55 58 62 65 69 72 74 66 77 80 88 90 94 93 87 87 85 84 83 80 81 79 70 76 77 83 82 89 91 88 87 93 94 93 91 89 89 88 89
58 57 57 57 56 55 63 76 72 68 73 74 78 77 79 87 89 86 92 88 88 83 76 82 76 72 79 81 83 85 82 80 86 91 87 86 87 91 94 92 91 90 88 89 90
57 57 57 56 55 55 72 69 61 61 56 73 73 77 83 83 79 85 92 82 80 73 81 77 72 82 85 84 80 80 78 79 86 89 86 87 86 92 93 91 92 91 90 90 92
57 57 56 55 54 65 69 64 71 70 59 72 76 76 77 81 78 81 87 85 79 76 77 75 79 84 81 79 77 77 77 79 80 86 88 85 82 86 92 93 93 95 94 94 92
57 56 55 52 63 69 70 73 73 70 58 72 71 75 79 81 75 89 89 86 81 76 79 79 85 80 79 76 79 73 83 81 81 79 73 87 72 84 90 88 91 93 94 94 93
56 56 54 52 65 66 68 73 71 67 53 74 73 85 81 78 84 81 90 85 78 79 81 75 78 77 75 77 81 76 86 81 80 78 77 79 76 81 90 86 90 93 95 95 96
56 54 53 65 70 72 73 72 68 56 51 69 74 72 71 75 78 82 81 89 87 82 82 81 88 85 82 83 83 84 81 80 79 78 68 76 77 78 84 86 91 95 96 95 96
54 53 58 67 64 73 72 67 55 52 70 62 64 70 71 73 74 76 74 72 72 68 69 76 79 84 86 79 83 80 76 66 64 65 65 81 76 78 89 94 93 95 97 97 97
52 51 61 69 74 72 68 60 47 59 56 63 62 66 65 71 72 74 72 70 76 78 75 68 66 79 85 80 77 76 77 70 58 64 70 79 71 80 93 96 97 98 101 100 98
52 71 71 72 73 70 62 51 53 51 55 55 61 61 66 67 67 70 71 73 76 81 71 72 71 84 84 85 84 76 73 84 74 76 71 78 81 88 92 93 95 96 99 100 99
62 66 68 74 74 68 58 46 52 56 56 58 52 58 55 60 62 66 70 67 74 82 77 77 70 81 82 86 85 82 84 72 75 60 60 73 74 78 84 86 91 93 97 99 100
64 61 68 74 73 64 51 49 52 59 58 53 53 53 56 56 59 63 63 62 67 68 71 76 75 76 81 76 76 77 76 78 80 75 67 67 76 90 86 89 90 94 97 100 100
62 56 68 72 59 58 51 50 49 55 59 56 56 55 55 56 57 59 58 60 65 68 67 75 75 70 74 84 86 84 78 78 70 66 73 74 78 92 92 94 94 96 98 101 101
56 57 70 68 47 48 52 51 53 52 53 52 50 54 57 54 51 56 58 62 65 67 63 70 69 64 70 78 82 78 80 82 81 80 69 68 76 91 91 90 91 92 95 97 99
56 51 61 62 60 51 47 48 48 55 51 54 46 48 50 54 58 53 56 60 64 64 60 64 70 68 66 70 77 72 77 80 79 72 73 75 78 84 86 87 91 93 95 96 95
57 50 50 46 50 49 48 48 46 44 52 54 44 39 37 43 49 53 54 58 62 61 65 66 61 63 70 65 67 73 76 78 75 76 72 77 78 83 87 88 90 93 94 94 95
51 46 53 48 50 45 46 45 44 44 45 46 44 46 43 36 41 37 48 54 55 60 60 64 58 60 59 66 65 65 69 72 75 77 78 79 78 90 92 90 89 90 91 91 93
59 58 47 40 46 44 45 46 44 46 50 49 49 47 47 46 51 54 57 58 58 54 55 56 59 56 56 65 63 58 67 70 72 76 76 70 78 86 85 86 87 89 91 92 94

GFSSW_sfc_temp_033.txt.gz
Temp
62 62 62 62 62 62 62 62 63 63 63 63 63 62 62 62 62 75 79 90 90 79 82 93 95 95 98 93 96 97 77 78 84 80 89 96 92 96 98 91 93 93 89 88 89
62 62 62 61 62 62 62 62 62 62 62 62 62 62 62 62 74 82 90 84 81 80 91 92 90 94 91 91 94 90 62 72 94 95 88 94 94 93 92 90 89 92 92 90 91
61 61 61 61 61 62 62 62 62 62 61 61 62 62 62 66 78 91 84 83 81 83 99 98 98 94 89 94 93 92 72 75 94 97 97 96 94 98 92 88 90 87 87 89 89
61 60 60 61 61 61 61 61 61 60 61 61 61 62 62 74 75 95 81 81 81 94 98 96 94 88 87 88 95 87 93 85 96 97 96 94 98 95 94 95 97 94 92 90 88
60 60 60 60 60 60 61 60 60 60 60 60 61 62 67 77 84 96 80 81 91 92 95 94 90 90 86 92 93 89 93 96 97 97 97 97 94 90 93 99 100 96 92 90 90
60 60 60 60 60 60 60 59 59 59 60 61 61 62 72 74 101 104 100 90 94 92 96 97 93 96 92 93 91 95 94 95 97 97 98 94 94 95 97 100 97 94 92 92 92
59 59 59 59 60 60 59 58 58 60 61 62 63 69 77 82 101 102 100 95 99 97 96 100 101 95 95 90 98 96 87 92 94 96 95 98 91 91 99 99 94 93 92 92 93
59 59 59 59 59 59 58 57 58 63 63 63 63 73 76 98 101 98 101 98 101 101 101 103 103 97 94 98 91 88 90 82 93 95 97 96 84 95 101 97 93 93 93 92 93
58 58 58 58 58 58 56 57 60 64 63 64 70 76 79 85 89 98 101 95 98 99 100 103 100 92 93 86 83 87 79 82 88 97 95 93 87 96 101 98 94 93 93 93 92
58 58 58 58 57 56 56 58 65 63 70 77 80 72 81 85 94 96 101 99 94 94 91 92 91 84 87 83 72 78 81 86 84 93 94 91 90 94 99 98 95 94 94 93 93
58 58 57 57 56 55 63 84 76 72 77 77 80 80 88 95 96 93 98 94 94 89 80 86 79 75 81 85 87 87 86 85 91 95 92 90 91 93 98 98 96 94 94 93 94
57 57 57 57 56 55 76 73 69 70 61 77 80 81 88 92 84 90 97 87 85 78 84 80 74 84 88 88 86 85 84 85 91 95 92 90 89 95 98 97 97 96 95 95 96
57 57 56 55 55 70 77 74 81 79 64 74 84 82 85 89 83 87 92 88 83 79 80 79 82 87 86 85 82 83 83 84 85 91 94 89 85 88 97 99 98 100 99 98 96
57 57 56 53 64 78 76 80 83 79 59 74 79 83 87 87 79 94 95 89 85 79 82 82 90 85 83 82 85 79 88 87 86 84 78 90 74 84 92 93 95 98 98 99 98
57 56 54 51 70 74 76 83 82 75 52 81 79 91 89 81 89 85 97 89 82 81 83 79 83 83 80 83 87 82 90 86 85 83 82 83 79 85 92 89 93 97 98 100 100
56 55 54 71 77 81 83 82 77 57 51 74 80 76 78 81 84 91 87 92 91 85 86 85 93 90 87 89 89 90 85 85 85 82 71 79 80 80 88 91 94 98 100 100 101
54 53 57 72 71 83 82 75 57 51 76 67 68 76 78 77 77 84 79 76 75 70 73 81 83 90 91 84 89 85 80 69 67 68 67 82 78 81 93 97 98 98 100 102 103
53 52 65 79 83 81 76 64 46 62 61 67 65 67 65 75 78 80 78 74 80 80 78 72 69 83 89 86 81 81 81 72 59 65 71 82 74 82 96 100 102 103 104 104 104
52 80 78 80 82 80 67 53 55 57 59 58 62 65 68 75 75 78 76 76 80 82 72 75 74 89 89 90 89 81 77 88 80 82 77 81 84 93 97 97 99 101 102 103 103
65 75 78 82 82 75 62 52 56 61 61 60 53 63 59 66 69 72 75 81 80 84 87 81 74 87 88 90 89 87 88 76 79 66 65 77 79 80 87 90 96 97 99 102 105
68 68 76 82 80 69 56 56 58 63 64 57 55 54 54 54 58 67 73 72 75 78 85 83 79 80 87 81 79 81 80 81 83 80 71 69 78 94 92 93 93 97 100 102 104
70 60 77 79 62 69 57 57 53 61 65 61 61 59 56 55 52 58 62 67 71 74 74 83 78 72 80 88 90 88 82 82 73 70 79 80 80 96 97 97 98 97 100 103 105
62 66 80 75 53 56 57 58 59 57 57 56 55 55 56 52 46 50 57 67 70 72 69 76 72 67 74 83 86 82 85 86 85 84 74 73 78 95 94 95 98 98 100 102 104
62 57 65 68 66 57 53 52 50 56 57 58 54 55 52 52 57 53 52 61 68 69 62 67 72 70 71 76 81 76 81 84 84 77 77 79 82 87 89 90 93 96 99 101 101
60 56 57 51 55 55 54 53 48 47 57 59 52 50 49 45 47 40 51 59 68 65 70 71 63 71 76 81 81 82 80 82 79 81 76 82 82 88 90 91 94 97 97 97 97
48 50 56 53 55 50 51 49 48 53 53 52 51 52 52 46 49 46 47 51 54 61 63 71 61 68 69 78 74 73 80 82 83 83 83 85 85 96 96 96 94 94 95 94 95
49 52 49 48 51 48 49 51 51 54 54 55 52 51 50 51 56 60 60 61 61 58 58 60 64 63 60 71 71 64 75 79 83 86 85 78 86 94 92 90 91 92 94 94 96

GFSSW_sfc_temp_036.txt.gz
Temp
62 62 62 62 62 62 62 62 62 62 63 63 62 62 62 62 62 71 74 87 88 80 81 92 93 93 94 91 94 93 68 65 71 81 83 95 91 95 97 91 92 90 83 83 87
62 62 62 62 62 62 62 62 62 62 62 62 62 62 62 62 67 75 87 84 83 81 89 89 87 91 87 89 91 86 60 65 79 81 82 92 91 92 91 89 86 84 85 86 86
61 61 61 61 61 62 62 62 62 61 61 61 61 62 62 65 71 86 85 86 82 84 94 96 95 92 86 91 90 86 73 82 85 89 93 92 93 97 91 85 86 80 81 84 84
61 61 60 61 61 61 61 61 61 60 61 61 61 62 62 70 71 93 84 83 81 94 93 93 92 87 84 84 92 84 78 83 87 92 93 86 82 94 92 89 93 88 87 86 84
60 60 60 60 60 60 61 60 60 60 60 61 61 62 65 70 78 98 81 83 91 92 89 90 88 88 83 87 91 88 76 85 87 93 90 84 79 85 92 96 95 91 88 86 86
60 59 59 60 60 60 60 60 59 60 60 62 62 62 67 67 98 102 99 90 93 90 90 92 91 94 89 89 89 93 91 88 90 96 98 93 84 83 94 97 93 90 87 89 89
59 59 59 59 60 60 60 59 59 60 61 64 63 67 72 77 103 105 102 94 96 93 89 95 98 93 93 88 96 93 87 92 93 96 95 98 89 89 92 96 91 89 89 89 91
59 59 59 59 59 59 59 58 58 61 64 64 65 69 70 98 95 97 102 98 99 98 96 100 101 95 93 95 93 88 87 80 91 94 96 95 82 94 94 94 89 90 90 89 90
59 59 59 59 59 58 57 57 59 63 64 64 66 71 75 90 91 98 100 95 97 98 98 102 99 91 91 83 80 85 76 80 85 95 93 92 85 95 95 94 90 90 90 90 90
58 58 58 58 58 57 56 59 67 63 66 74 77 71 79 85 95 96 100 99 94 94 90 91 90 83 84 81 69 75 77 82 81 91 92 89 88 93 96 93 91 91 91 90 90
58 58 58 57 57 56 62 83 76 72 77 72 77 78 87 95 100 94 98 95 94 89 79 86 79 75 80 83 84 84 82 81 87 93 89 87 89 90 95 86 92 92 91 91 91
58 58 57 57 56 56 63 75 74 75 63 76 77 78 84 91 86 91 98 86 85 78 83 80 74 83 86 85 83 82 80 82 88 94 90 89 87 93 94 89 91 93 93 92 93
57 57 57 56 55 68 82 78 85 83 64 69 78 78 81 86 81 87 92 88 82 78 79 76 80 86 84 82 80 81 79 81 83 90 92 87 83 88 94 95 96 95 96 96 94
57 57 56 54 66 77 78 84 86 84 57 68 78 84 85 87 79 93 95 89 84 78 80 79 87 83 81 80 82 75 86 86 85 84 76 89 72 83 90 92 93 96 95 96 95
57 56 55 53 66 73 79 86 86 79 45 82 83 94 91 81 87 84 97 89 79 81 82 77 80 81 78 80 86 80 89 85 84 82 81 82 77 82 89 87 91 95 97 96 98
56 55 54 71 76 80 85 84 79 57 46 71 81 76 79 82 82 89 86 91 89 83 84 82 91 87 87 88 88 90 86 85 84 81 70 78 78 78 85 86 92 96 98 98 99
55 54 56 70 71 85 84 76 56 48 70 63 62 68 69 72 78 80 78 77 74 68 71 78 81 88 90 84 88 86 80 68 66 67 65 80 76 80 90 95 96 96 97 99 100
53 52 68 78 84 84 77 63 46 58 60 65 63 64 63 71 73 78 77 74 79 78 74 69 67 81 89 85 81 81 80 69 57 62 68 79 71 79 93 98 101 102 101 102 101
53 75 79 82 84 82 68 53 53 55 60 58 60 59 62 66 64 71 75 75 78 79 70 72 71 87 88 90 88 80 74 85 75 77 71 76 80 89 94 94 98 100 101 100 101
60 68 72 84 84 76 62 52 60 64 63 62 52 57 50 56 55 57 67 80 79 83 85 78 70 84 87 91 89 85 88 73 76 61 62 73 76 77 83 89 94 96 99 101 102
66 68 79 85 82 68 56 59 61 66 65 58 55 54 54 44 50 52 59 63 72 77 85 80 76 78 85 80 79 81 80 79 80 76 67 67 75 93 86 90 93 97 99 102 102
64 59 81 81 62 65 59 60 57 60 62 61 61 58 52 48 46 45 50 55 66 71 68 81 76 69 76 89 90 86 81 81 71 67 76 75 77 95 96 96 96 97 99 102 102
57 64 80 77 55 57 61 60 61 55 55 54 56 59 57 50 43 46 45 58 65 66 64 68 69 65 69 80 87 81 83 83 83 81 71 70 76 95 94 95 97 96 99 98 100
59 53 62 67 65 57 54 54 53 61 55 50 52 59 55 50 53 40 45 54 61 65 65 67 66 67 66 71 82 76 80 83 82 73 74 77 79 85 89 91 95 96 97 99 98
59 54 55 50 53 55 56 55 48 50 49 57 55 49 49 45 46 43 44 52 57 64 67 70 62 69 75 80 82 81 80 81 79 81 74 80 82 84 87 90 94 97 98 98 97
47 42 49 50 55 53 51 52 49 54 54 52 49 53 53 49 49 44 48 48 46 59 60 66 60 66 66 74 77 75 81 81 82 82 83 84 84 91 93 93 93 93 93 93 94
57 53 42 42 50 48 49 50 52 56 57 58 55 54 50 55 57 59 60 58 57 55 57 57 59 59 57 69 71 68 76 81 83 86 85 79 86 92 89 90 91 92 93 93 94

GFSSW_sfc_temp_039.txt.gz
Temp
62 62 62 62 62 62 62 62 62 62 62 62 62 62 62 62 62 65 61 76 78 80 81 85 86 85 85 80 84 80 59 58 61 70 74 83 83 87 89 80 82 83 77 79 83
62 62 61 61 62 62 62 62 62 62 62 62 62 62 62 62 59 62 77 81 81 81 82 81 79 83 77 77 79 69 60 62 67 77 76 83 85 86 79 76 75 75 79 83 83
61 61 61 61 61 62 62 62 62 61 61 61 61 61 62 62 61 73 84 80 83 81 85 86 87 83 75 80 79 75 66 75 76 83 86 83 85 90 77 70 73 71 75 81 80
61 61 60 61 61 61 61 61 61 61 61 61 61 61 62 61 61 88 83 81 82 85 84 83 82 77 74 73 82 77 80 82 84 87 84 79 81 86 81 77 80 79 80 80 80
60 60 60 60 60 61 61 61 60 60 60 61 62 61 58 58 65 90 82 81 84 85 82 80 77 78 73 78 82 81 80 86 85 84 84 78 80 83 80 83 82 81 81 79 80
60 60 60 60 60 60 61 60 60 59 61 62 63 62 56 55 86 91 88 83 84 83 81 82 80 84 80 80 79 85 86 83 80 84 86 82 84 84 82 83 80 80 78 80 81
59 59 59 59 60 60 60 59 59 60 61 62 64 63 60 62 90 92 88 82 86 84 80 85 87 82 83 79 87 85 81 83 85 84 85 88 76 81 83 84 80 79 79 80 81
59 59 59 59 59 59 59 58 59 61 61 64 65 61 54 82 82 82 87 85 88 87 86 87 89 83 82 86 84 79 80 72 82 85 89 83 68 78 84 82 78 80 80 80 80
59 59 59 59 59 58 57 57 62 64 63 64 60 58 59 86 81 86 87 87 86 86 87 93 87 79 81 74 70 72 67 70 76 89 89 81 72 75 80 83 79 80 81 81 80
58 58 58 58 58 57 56 60 65 61 64 70 71 56 69 78 87 89 90 91 86 84 82 81 77 72 73 69 58 63 65 70 73 84 84 78 77 77 81 78 73 77 81 82 81
58 58 58 58 57 56 55 57 65 61 66 61 65 67 69 84 88 87 91 87 86 81 70 75 66 64 69 73 74 74 72 71 78 86 80 79 78 79 76 73 73 76 77 81 83
58 57 57 57 56 57 57 66 67 69 58 71 72 72 76 78 71 80 90 78 77 70 75 69 64 74 78 77 75 74 71 71 79 85 79 79 78 83 76 78 80 79 76 78 84
58 57 57 56 56 63 67 70 79 75 57 63 70 70 70 74 69 72 82 81 75 71 72 66 71 80 78 75 73 72 69 71 72 80 85 81 77 79 78 78 74 72 72 77 84
58 57 56 54 61 65 68 77 79 77 46 59 66 74 75 75 70 83 84 82 76 70 74 71 78 76 74 73 75 65 77 78 77 73 65 79 57 70 79 75 74 72 71 77 85
57 57 55 54 55 61 70 79 79 70 36 71 69 83 75 69 75 78 85 81 72 73 74 69 73 73 71 74 79 71 80 78 77 71 66 72 66 72 77 76 75 75 76 85 86
57 56 55 60 62 68 77 78 71 45 40 63 66 63 63 67 70 79 78 82 82 75 76 74 83 79 76 81 81 82 75 73 74 70 58 66 66 65 74 78 80 83 86 88 89
55 54 53 63 60 75 75 68 45 39 64 57 55 61 59 61 65 66 67 68 65 60 61 71 74 80 82 74 79 76 66 54 53 56 55 64 61 64 75 84 84 87 87 89 90
54 53 59 70 72 74 70 54 38 55 54 61 58 58 55 59 58 59 55 61 72 69 59 59 58 74 82 75 70 71 69 52 43 49 56 65 61 68 80 83 89 91 92 92 90
54 63 67 74 74 72 58 43 46 53 58 55 55 50 52 56 54 52 51 54 65 72 61 59 61 79 81 83 79 70 65 70 55 57 52 57 65 75 83 84 86 85 92 90 91
54 59 64 77 77 66 52 45 53 61 60 57 45 51 46 49 48 48 46 56 54 57 63 68 56 74 80 82 81 75 75 61 63 47 47 59 62 66 74 79 84 83 84 91 93
58 56 70 79 73 59 47 52 57 62 60 52 48 47 49 47 47 46 46 52 52 51 56 57 59 65 73 72 70 71 68 70 61 57 48 48 59 79 77 81 83 84 84 91 92
56 49 72 77 56 56 50 56 55 58 60 55 53 51 48 50 44 44 44 47 54 52 43 57 52 57 63 76 82 77 72 67 62 54 60 58 62 79 78 86 87 87 85 86 93
49 54 70 68 47 48 53 54 58 55 53 51 50 53 53 48 40 42 45 54 53 50 49 52 47 49 58 65 74 73 75 74 66 61 58 54 58 81 79 85 85 81 84 87 88
51 47 54 57 57 49 47 48 50 59 54 52 50 49 48 46 46 39 41 49 52 53 56 56 50 48 50 60 65 66 74 75 69 63 63 62 63 71 77 78 79 81 83 83 84
54 47 48 41 45 45 49 50 45 47 54 54 49 50 43 39 43 42 44 48 53 52 49 50 44 54 60 66 69 73 74 75 70 69 63 66 65 70 71 75 77 81 83 84 83
48 42 45 40 44 46 47 46 46 49 49 48 47 51 47 41 39 39 46 46 44 47 44 50 44 52 53 66 70 68 72 77 75 75 72 71 69 75 78 78 79 79 80 79 80
55 52 42 39 41 42 43 45 45 49 48 50 52 49 48 50 51 52 55 54 53 46 43 46 47 45 45 60 62 56 66 72 76 78 75 66 71 76 74 77 78 78 80 80 82

GFSSW_sfc_temp_042.txt.gz
Temp
62 62 62 62 62 62 62 62 62 62 62 62 62 62 62 62 61 61 56 71 71 78 80 78 79 81 81 75 79 76 60 59 62 65 71 77 73 81 81 76 79 80 75 75 78
62 62 61 61 62 62 62 62 62 62 62 62 62 62 62 62 57 57 72 77 77 79 78 75 73 78 70 72 75 68 59 63 72 73 71 74 74 78 75 75 73 74 77 79 79
61 61 61 61 61 62 62 62 62 61 61 61 61 61 61 61 56 67 79 77 78 79 82 82 80 77 69 73 72 68 61 70 76 77 82 82 78 80 74 67 71 69 73 76 77
61 60 60 61 61 61 61 61 61 61 61 61 61 62 61 58 61 83 82 78 79 80 80 78 76 69 67 67 75 66 73 76 77 80 79 80 83 76 77 74 78 76 77 77 75
60 60 60 60 60 61 61 61 60 60 60 61 62 62 56 53 60 82 83 78 80 79 76 75 71 70 66 71 74 72 76 79 83 83 80 82 82 77 76 78 79 79 78 76 76
59 60 60 60 60 60 60 60 60 60 61 61 64 62 52 52 79 81 82 77 80 78 76 76 74 76 72 73 72 78 78 82 85 81 80 77 79 77 75 78 76 77 76 77 77
59 59 59 59 60 60 60 59 59 61 62 61 63 62 54 60 81 80 79 75 79 80 74 79 80 77 76 72 80 79 75 80 80 82 78 82 76 71 76 77 74 75 76 77 78
59 59 59 59 59 59 58 58 59 63 62 62 65 62 49 73 73 73 77 78 80 82 80 81 81 73 71 78 77 72 72 68 79 82 83 81 69 74 76 74 72 74 75 76 77
58 59 59 59 59 58 57 57 61 64 64 65 57 54 50 76 71 75 78 79 78 76 78 88 76 69 70 65 60 63 59 65 73 83 82 80 68 74 76 73 71 73 75 76 76
58 58 58 58 58 57 56 58 62 62 64 67 67 52 62 73 77 81 79 83 77 76 74 74 67 60 64 57 53 56 58 64 67 78 80 77 70 73 75 73 72 73 74 76 76
58 58 58 58 57 56 53 55 62 55 58 55 60 62 69 75 82 77 82 80 79 71 62 67 60 56 62 65 66 67 65 65 71 79 78 77 71 71 75 74 72 73 73 74 76
58 58 57 57 56 55 52 57 57 63 51 66 67 66 71 72 65 72 79 72 70 64 66 60 58 67 70 69 68 68 64 65 72 78 74 72 69 72 75 74 75 74 74 75 77
58 57 57 55 55 57 56 60 67 59 46 58 64 64 65 66 64 66 71 72 67 64 65 61 65 73 71 68 67 65 63 65 65 73 75 70 65 69 75 76 76 76 78 79 80
58 57 56 55 56 53 58 65 66 62 40 53 61 68 70 67 62 78 77 71 70 65 67 65 73 71 68 67 69 60 72 72 71 65 57 73 57 65 70 69 72 74 76 77 80
57 57 56 53 46 52 64 62 69 57 34 64 62 75 70 61 66 66 74 71 64 66 65 64 68 68 66 68 73 67 73 71 71 62 56 66 57 65 68 65 71 73 77 79 80
57 56 55 53 48 56 61 65 57 42 35 56 61 59 60 61 64 65 65 69 74 66 70 68 76 74 72 75 75 76 71 68 67 59 52 63 60 60 64 68 71 73 75 77 81
55 54 53 58 55 61 62 55 40 34 58 51 49 55 54 54 57 58 55 52 46 49 55 65 68 75 77 69 73 71 59 49 49 48 50 65 56 65 71 75 75 74 74 76 79
54 53 54 60 56 59 55 45 33 49 46 54 52 52 49 53 52 55 51 46 52 46 47 54 52 68 76 70 66 65 61 47 42 42 52 58 51 61 75 80 82 80 78 78 80
53 52 53 61 64 58 49 34 36 45 52 49 49 43 44 51 50 49 47 46 50 49 37 38 55 72 76 78 74 64 60 64 50 45 47 53 58 67 76 77 77 82 80 79 82
48 45 51 65 64 54 44 38 43 53 54 51 39 44 37 43 43 43 45 53 49 53 52 43 39 65 73 77 76 69 68 54 48 42 40 51 53 57 68 73 74 75 81 82 86
43 43 57 70 59 48 37 39 50 57 56 47 42 40 40 40 43 43 45 52 53 50 51 45 40 51 63 64 66 62 65 58 59 49 45 43 55 69 68 72 74 75 83 85 87
40 37 58 65 46 41 38 46 52 51 53 49 48 44 40 42 39 42 43 46 52 50 40 47 41 36 52 68 71 73 62 62 58 48 48 49 60 74 75 79 81 83 81 87 88
38 39 56 54 33 34 43 48 51 49 45 46 45 46 43 38 35 41 45 53 53 48 41 42 41 32 46 54 61 60 67 63 58 55 51 55 60 74 74 76 76 83 81 83 88
38 35 42 44 43 37 37 41 43 54 51 49 46 45 42 38 38 38 42 49 53 50 50 44 34 33 33 43 52 56 65 68 62 55 58 59 61 69 73 73 74 74 77 82 87
39 35 38 32 37 37 40 42 43 43 48 48 44 45 39 30 34 36 44 47 51 50 46 39 30 38 41 48 53 55 63 67 64 68 60 64 62 68 69 73 71 74 75 78 85
37 36 37 40 37 38 40 40 41 42 43 42 40 43 43 35 38 34 41 42 42 45 41 39 33 37 39 54 57 59 66 66 69 70 64 63 64 71 72 73 71 72 74 74 82
42 42 41 40 39 36 39 40 40 45 44 48 44 41 39 42 46 45 46 49 48 43 39 37 36 33 34 50 58 52 58 65 69 71 70 60 66 69 65 68 67 70 76 74 75

GFSSW_sfc_temp_045.txt.gz
Temp
62 62 61 61 62 62 62 62 62 62 62 62 62 62 62 61 61 59 54 68 70 77 80 76 76 76 78 72 77 75 59 57 62 63 68 74 70 73 77 74 78 78 70 72 74
61 61 61 61 61 62 62 62 62 62 62 62 61 61 62 61 56 54 69 74 76 78 76 71 69 74 70 69 72 65 57 62 72 72 69 73 74 72 73 73 69 69 72 74 74
61 61 61 61 61 61 61 61 61 61 61 61 61 62 62 60 54 65 79 76 77 78 78 77 76 73 66 69 69 68 62 68 74 76 70 72 75 78 72 66 70 65 68 72 73
61 61 60 61 61 61 61 61 61 61 61 61 61 63 61 56 60 78 80 76 78 78 78 75 72 67 64 63 71 62 70 72 78 81 78 75 77 75 74 73 76 73 73 73 72
60 60 60 60 60 61 61 60 60 60 60 61 61 63 54 51 59 79 79 77 76 75 75 72 69 66 62 66 69 67 70 75 76 77 78 80 77 74 74 77 77 76 75 73 73
59 59 59 60 60 60 60 60 59 60 61 61 61 62 51 51 76 79 76 74 75 74 71 71 71 71 68 68 68 73 73 74 77 76 75 77 76 74 73 76 74 74 73 74 74
59 59 59 59 60 60 59 59 59 60 63 61 64 61 52 60 74 73 74 72 75 77 70 75 75 73 70 67 76 74 69 73 76 77 77 80 71 70 73 75 72 72 73 74 75
59 59 59 59 59 59 58 58 59 63 62 62 65 62 49 69 69 72 74 73 75 74 76 75 76 71 67 73 72 67 65 58 73 79 80 77 62 69 73 72 69 71 73 74 74
58 59 59 59 59 58 57 57 60 64 64 64 56 53 49 73 71 74 74 74 72 71 73 84 73 64 67 62 56 59 53 60 67 79 80 77 63 69 73 71 69 71 72 73 74
58 58 58 58 57 56 55 58 61 62 64 65 65 51 60 67 72 75 75 78 73 71 70 68 63 56 55 54 49 52 55 59 62 71 77 71 69 68 71 70 69 70 72 73 73
58 58 58 57 57 55 52 58 54 51 55 52 58 59 65 69 75 72 76 75 73 65 56 61 55 54 60 62 62 62 61 62 67 74 75 72 69 66 69 69 68 69 70 71 73
58 58 57 57 56 55 52 57 58 58 47 61 64 63 66 66 62 69 74 66 66 58 61 55 54 63 65 64 63 62 59 59 67 73 70 70 71 70 69 69 70 69 70 71 74
58 57 57 56 54 55 51 56 61 55 43 55 61 62 63 61 60 63 65 67 63 60 60 56 59 68 65 63 61 60 58 60 62 69 69 69 66 69 69 71 72 73 73 74 74
57 57 56 54 56 51 56 59 58 58 39 52 57 64 67 64 58 71 71 67 64 61 63 60 69 66 64 62 63 51 66 68 66 63 54 67 54 61 66 67 70 71 72 73 75
57 56 55 53 48 52 61 56 56 56 33 60 57 71 65 57 62 64 72 64 58 60 61 60 63 63 62 64 67 62 68 66 66 57 53 61 53 56 66 64 67 71 73 75 76
56 55 55 50 46 52 57 55 56 42 34 51 57 56 55 57 59 63 62 64 62 55 63 62 72 69 68 70 70 70 64 61 58 54 49 60 56 53 61 65 69 72 74 77 78
55 54 52 56 54 56 57 52 40 33 53 47 46 51 49 49 52 55 52 45 41 40 43 58 62 69 71 65 67 66 54 44 42 43 48 58 54 62 69 73 75 72 75 77 79
53 52 52 59 56 56 52 45 32 45 42 49 48 47 45 48 48 51 47 43 48 43 37 34 47 63 71 65 61 60 59 43 36 39 49 55 49 57 72 78 79 80 80 80 79
52 47 51 57 64 54 48 33 35 40 48 46 44 40 41 47 45 45 44 43 47 46 35 35 39 53 61 72 69 58 56 61 47 42 45 53 54 64 70 74 75 77 80 79 78
44 41 48 62 58 52 42 36 39 50 50 46 36 40 34 39 40 38 42 49 48 50 47 41 33 47 57 69 70 66 65 51 46 41 37 46 51 57 64 66 72 74 77 80 81
40 42 55 62 55 46 36 35 45 52 53 44 40 37 37 36 38 37 41 49 49 48 52 42 40 41 50 56 61 59 59 55 56 48 49 40 51 62 65 70 71 75 79 79 80
37 39 55 55 41 35 34 41 49 48 50 46 45 42 38 39 36 37 39 44 51 50 41 44 39 36 40 56 56 56 60 55 55 47 44 47 56 70 72 73 71 77 80 81 82
38 36 51 50 31 30 38 44 48 46 45 44 43 43 42 37 32 39 41 51 52 48 41 43 37 28 42 47 54 52 55 58 58 49 46 52 57 69 67 68 73 74 76 81 81
38 33 39 40 38 33 34 38 43 53 49 46 45 43 39 35 37 36 39 49 51 49 50 46 36 31 32 34 42 40 45 49 52 50 52 57 62 68 71 69 70 70 72 79 83
36 33 35 31 33 33 36 38 40 41 47 45 43 41 35 29 32 34 40 41 47 48 44 39 31 34 36 40 42 42 42 46 47 58 57 60 58 66 65 67 66 68 71 75 83
36 35 36 35 37 37 37 37 39 42 41 41 39 40 38 31 35 33 37 36 37 39 39 39 31 33 34 42 44 41 49 52 54 60 60 59 60 63 62 63 65 64 68 74 81
39 41 42 41 39 36 37 37 37 39 42 45 41 38 37 41 43 42 42 40 41 37 35 35 34 31 27 41 44 44 50 54 58 53 55 57 58 63 61 63 62 63 64 70 81

GFSSW_sfc_temp_048.txt.gz
Temp
62 62 61 61 62 62 62 62 62 62 62 62 62 62 62 62 61 57 52 66 67 76 78 75 74 74 74 69 75 75 58 56 62 61 66 71 70 74 76 71 76 74 68 71 73
61 61 61 61 61 62 62 62 62 62 62 62 62 61 62 61 55 52 67 73 75 77 73 69 66 71 67 67 72 64 55 60 70 72 66 71 74 71 70 70 67 67 70 72 72
61 61 61 61 61 61 61 62 62 61 61 61 61 61 62 58 53 64 78 75 77 78 75 74 73 71 64 67 67 66 59 67 74 75 75 73 74 75 70 66 67 63 65 69 70
61 60 60 60 61 61 61 61 61 61 61 61 61 61 61 54 57 73 79 76 77 76 76 72 70 64 60 61 69 61 68 70 74 79 75 73 75 73 73 72 74 70 69 70 69
60 60 60 60 60 60 61 60 60 60 60 61 61 62 53 50 59 75 78 76 75 73 73 69 66 63 59 64 68 64 70 72 76 75 74 76 73 72 72 74 74 72 71 69 69
59 59 59 59 60 60 60 60 59 60 61 62 61 62 49 51 72 73 73 72 72 71 71 70 68 69 64 64 64 71 72 72 74 73 73 72 73 73 71 73 70 70 69 70 71
59 59 59 59 60 60 59 58 58 60 62 62 63 60 51 58 70 69 71 65 67 71 69 70 73 70 66 63 72 70 64 70 72 72 72 76 67 68 71 72 68 69 70 71 71
59 59 59 59 59 58 58 57 58 62 62 63 66 57 49 68 67 70 70 69 72 67 71 73 73 66 63 69 69 63 62 56 69 73 76 73 60 68 71 69 67 68 70 71 71
58 59 59 59 58 57 56 56 60 63 63 65 54 50 55 73 68 68 71 69 69 68 70 83 68 61 64 58 54 56 51 57 64 75 75 71 60 67 71 69 66 68 69 71 71
58 58 58 58 57 56 55 58 63 61 62 64 63 51 62 65 69 72 70 74 69 68 67 65 59 53 51 51 43 51 51 56 61 68 72 67 64 66 69 68 67 68 69 70 71
58 58 58 57 56 55 51 53 52 50 54 47 55 57 63 67 71 68 71 71 69 63 53 57 51 51 57 58 58 59 57 59 65 71 67 66 64 64 67 67 66 67 68 69 71
57 57 57 57 56 55 52 54 55 56 45 57 59 59 64 62 60 68 71 63 61 54 57 51 49 59 62 61 59 59 55 56 64 70 67 65 66 66 66 66 68 68 68 69 72
57 57 56 55 54 54 51 56 58 53 43 53 58 59 62 58 58 62 65 63 59 55 56 50 56 64 62 58 56 56 53 55 58 66 70 66 61 62 67 68 70 71 71 72 72
57 57 55 54 55 50 55 54 55 55 39 51 54 62 65 61 56 69 68 61 60 56 57 56 63 63 60 57 57 44 62 64 62 58 51 65 49 58 61 64 67 68 69 71 72
57 56 54 53 44 52 58 53 51 54 30 56 55 68 62 55 58 61 67 60 55 57 56 55 58 60 57 60 62 57 63 62 62 56 52 60 55 56 62 58 63 67 70 72 73
56 54 54 50 46 53 54 51 53 41 32 48 55 53 51 53 55 58 56 59 58 52 56 57 65 64 64 66 66 66 59 57 54 51 45 55 59 54 56 62 64 69 71 73 74
54 53 51 54 53 56 51 51 39 31 49 44 43 48 45 46 49 51 48 45 39 36 38 50 58 62 65 60 65 62 54 40 39 40 46 55 58 57 65 67 70 70 72 74 76
52 51 51 57 55 51 51 45 30 43 39 45 46 44 42 46 45 48 44 39 46 42 35 34 44 58 64 61 57 58 53 40 33 35 48 51 47 56 74 72 75 76 76 77 76
51 43 48 54 60 52 48 33 33 37 46 43 42 37 38 44 42 43 41 40 44 43 33 32 38 52 57 59 63 55 51 56 44 39 41 54 52 65 66 71 71 74 76 75 77
42 39 47 59 53 51 42 35 38 47 47 44 34 38 32 37 38 37 38 45 45 48 49 39 30 46 52 58 62 58 62 48 43 37 35 44 48 56 60 65 67 69 73 76 78
39 42 53 57 52 45 35 33 42 50 50 43 39 36 36 35 36 35 38 44 47 46 47 37 36 39 47 49 53 54 56 51 54 47 40 38 46 61 62 69 71 71 73 76 78
36 39 54 52 41 32 31 37 46 45 48 44 44 41 38 39 35 36 38 41 50 46 38 40 35 34 38 50 52 50 47 51 52 44 43 44 51 66 68 69 70 76 74 76 79
37 36 48 48 30 29 34 39 44 44 42 42 41 42 41 37 30 38 40 49 50 45 37 39 37 26 37 42 46 45 48 43 42 49 51 49 49 70 66 67 68 71 74 72 74
37 34 38 38 34 30 33 35 39 49 45 44 43 41 37 33 35 35 37 47 50 48 51 43 33 30 29 35 39 37 43 45 39 37 48 53 57 62 66 66 66 69 70 71 72
35 32 34 30 32 34 38 36 36 38 45 46 42 41 36 29 32 32 37 40 45 49 41 36 29 35 35 37 40 40 40 42 40 43 40 54 55 60 64 66 65 65 65 67 72
36 35 35 33 40 39 38 34 36 39 38 39 39 43 39 33 36 34 36 33 35 39 35 34 30 35 31 40 41 40 45 46 47 47 48 51 54 62 62 62 61 61 62 62 66
40 43 42 41 40 37 37 38 38 39 41 43 41 38 35 38 42 42 41 38 37 35 31 33 31 32 26 37 39 39 46 50 50 51 50 50 53 57 59 59 58 59 61 62 63

GFSSW_sfc_temp_051.txt.gz
Temp
62 62 62 61 62 62 62 62 62 62 63 63 62 62 61 62 61 60 60 74 73 77 79 80 80 79 80 76 76 77 65 63 66 67 67 72 73 78 79 72 78 78 76 78 78
62 61 61 61 62 62 62 62 62 62 62 62 62 62 61 62 58 58 72 72 74 78 80 76 74 76 73 74 72 69 64 67 73 73 69 76 76 76 73 74 72 73 78 78 77
61 61 61 61 61 61 61 61 61 61 61 61 61 61 62 62 59 73 77 76 76 78 83 81 79 77 72 75 73 72 67 74 77 78 78 72 76 79 75 72 75 70 72 73 75
61 61 60 61 61 61 61 61 61 61 61 61 61 61 62 60 68 78 78 77 77 82 80 78 76 72 71 69 76 67 74 76 76 81 79 77 81 77 78 79 82 78 76 75 75
60 60 60 60 60 60 61 60 60 60 60 61 61 62 60 62 69 79 77 77 79 80 78 76 73 74 70 72 73 71 73 77 77 80 81 82 79 78 78 80 81 78 76 75 77
60 60 60 60 60 60 60 59 59 59 61 63 61 62 60 64 77 78 77 77 78 79 78 79 76 78 74 71 73 76 73 76 78 80 81 78 80 80 77 80 76 75 75 77 77
59 59 60 60 60 60 59 58 58 59 62 62 63 64 61 69 77 76 77 76 79 80 77 80 81 79 77 73 79 77 70 74 78 81 79 82 74 75 77 78 74 74 75 76 78
59 59 59 59 59 59 58 57 58 61 62 64 65 63 65 76 78 77 78 76 79 79 81 81 83 79 75 78 76 72 72 68 78 81 81 81 71 76 77 76 73 74 74 75 77
59 59 59 59 58 57 56 57 61 63 63 65 63 61 69 79 77 79 78 75 76 77 79 84 81 74 75 70 68 69 67 67 71 81 81 79 73 75 77 76 73 73 74 75 76
58 58 58 58 57 56 55 59 64 64 64 66 66 63 74 70 75 77 79 79 73 74 73 74 74 69 69 66 60 65 66 68 70 79 80 77 75 73 75 76 73 73 74 75 76
58 57 57 57 56 55 58 65 66 66 66 63 64 64 71 76 79 77 78 77 74 72 64 69 64 60 66 69 69 68 67 70 74 80 77 77 77 73 74 75 73 74 74 75 76
57 57 57 56 55 54 61 66 63 63 58 63 64 65 70 71 67 74 80 70 68 63 66 63 60 69 70 68 66 67 64 68 75 77 77 75 76 77 74 74 75 74 75 76 78
57 57 56 55 54 62 65 65 67 65 59 63 67 69 70 71 66 68 72 69 67 62 63 62 65 70 67 65 63 65 64 66 68 72 78 76 73 74 75 76 77 78 78 79 79
57 56 55 53 61 60 65 65 64 63 57 58 63 68 72 69 64 74 72 68 67 63 64 63 70 66 65 64 66 61 70 68 67 66 64 76 63 73 76 72 74 76 77 79 79
56 55 54 53 61 65 65 64 64 65 45 59 61 75 70 65 64 67 71 67 61 62 63 62 64 63 62 64 69 65 71 68 68 65 65 68 65 73 75 72 73 76 78 80 81
56 54 53 57 59 66 64 63 67 54 42 52 60 58 60 61 61 64 63 66 62 59 62 64 73 71 69 71 70 72 68 68 69 66 55 65 65 68 71 74 77 78 79 80 81
54 52 53 60 61 68 62 66 52 45 54 49 51 56 54 53 56 58 54 53 52 52 51 56 63 71 74 67 71 68 64 55 51 52 53 69 63 67 78 81 83 80 79 81 82
52 51 56 62 65 61 65 59 42 48 48 55 53 53 49 52 53 54 52 50 53 51 51 49 53 64 72 68 65 65 65 56 47 52 57 68 59 67 81 85 85 87 86 84 83
51 56 61 65 64 63 63 48 47 48 52 51 51 47 47 50 51 51 50 48 49 52 47 47 48 58 62 65 71 65 59 71 62 59 58 65 68 76 80 82 85 85 85 83 83
50 53 61 65 61 65 58 44 49 54 54 53 45 48 43 46 47 48 48 50 48 52 55 47 43 55 57 63 67 68 72 58 61 49 48 59 62 65 73 78 81 82 85 85 85
52 58 64 62 65 59 49 46 49 56 56 51 48 47 47 45 47 46 47 49 51 51 54 50 45 51 56 57 61 62 61 65 66 61 54 53 61 77 76 79 82 83 85 87 86
48 54 63 61 54 47 47 44 46 52 55 53 52 51 48 47 45 45 46 49 54 53 46 49 45 41 49 60 61 58 60 66 56 54 60 61 63 80 81 84 86 88 89 88 88
44 44 61 61 44 43 44 45 47 49 50 49 48 51 51 47 42 46 47 53 54 52 47 49 42 37 48 56 56 54 55 57 60 60 58 55 60 81 81 81 83 83 87 85 86
48 47 52 51 47 41 36 41 43 52 49 49 48 50 47 45 48 43 45 51 53 52 52 50 43 41 40 44 47 46 50 52 54 57 59 62 65 73 77 78 82 82 83 83 83
47 42 43 41 44 43 43 41 40 40 48 50 46 45 42 40 42 42 47 48 51 52 48 47 40 43 45 46 45 45 47 51 49 56 55 64 65 73 77 80 82 83 79 79 80
47 44 46 44 42 41 40 38 37 39 39 39 39 42 40 37 43 40 43 46 46 47 46 43 41 42 40 47 46 43 49 52 53 54 54 57 59 72 73 74 74 72 72 74 76
49 48 44 42 41 38 38 38 38 40 42 44 41 38 36 37 43 45 45 45 43 45 43 42 40 39 36 46 44 42 51 54 56 57 59 56 66 66 68 68 67 68 69 69 72

GFSSW_sfc_temp_054.txt.gz
Temp
62 62 62 62 62 62 62 62 63 63 63 63 63 63 62 62 62 68 73 81 81 77 78 90 89 88 90 83 83 85 74 75 76 71 74 80 75 82 83 76 81 85 86 87 84
62 62 62 62 62 62 62 62 62 62 62 62 62 62 62 63 70 72 81 74 75 78 88 85 83 85 83 84 79 80 72 77 80 81 74 78 82 85 81 81 81 82 87 84 83
62 61 61 61 62 62 62 62 62 62 62 62 62 62 62 66 71 81 78 75 76 79 93 91 89 86 82 86 82 78 73 83 78 79 84 82 83 88 83 80 84 80 81 79 83
61 61 61 61 61 61 61 61 61 61 61 61 62 61 62 71 74 84 78 78 77 88 91 89 86 82 81 79 86 78 83 85 83 86 86 82 84 85 85 86 91 87 85 82 84
60 60 60 60 60 61 61 61 60 60 60 62 62 62 67 74 79 88 80 78 84 88 87 85 83 84 80 83 83 81 84 83 83 85 88 88 85 85 86 89 91 88 85 84 86
60 60 60 60 60 61 60 60 59 60 61 63 62 63 74 75 86 87 85 84 87 88 87 89 86 89 84 82 82 85 85 84 83 84 86 85 86 87 88 90 87 85 84 86 87
60 60 60 60 60 60 59 58 59 60 63 63 63 71 78 76 87 88 86 86 90 90 86 91 89 86 86 81 87 86 79 82 80 83 82 88 83 83 88 88 85 84 84 86 87
59 59 59 59 59 59 58 57 59 62 63 64 65 75 75 87 90 87 88 84 89 90 92 92 90 88 84 87 84 81 82 74 85 80 84 84 78 86 88 87 83 84 84 84 86
59 59 59 59 58 57 56 57 63 63 64 66 73 75 75 82 83 87 87 82 85 87 89 90 88 84 84 78 78 81 75 77 82 87 83 85 82 86 89 89 84 83 84 84 85
58 58 58 58 57 56 55 58 64 64 70 74 76 75 81 75 83 84 87 87 82 83 81 81 81 77 78 77 70 75 75 81 79 85 87 84 85 85 87 88 84 83 84 84 85
58 57 57 57 56 55 66 76 76 76 80 72 74 74 77 83 87 84 86 83 82 79 73 78 72 70 77 79 81 78 80 78 83 85 85 84 85 84 85 87 83 83 83 84 85
58 57 57 56 55 55 72 75 69 71 70 75 74 77 79 80 75 81 86 78 76 70 76 72 68 78 81 80 77 76 73 76 83 82 85 85 84 89 86 85 86 84 84 85 87
57 57 56 55 55 69 76 72 77 76 70 71 76 76 76 80 73 74 81 77 74 72 73 70 75 80 77 75 72 74 73 75 77 79 82 83 80 84 87 87 88 88 87 88 87
57 57 55 52 64 78 76 77 79 76 66 65 70 74 78 78 71 80 80 76 74 71 74 73 80 73 73 71 74 70 80 77 76 73 70 83 70 80 86 83 85 87 87 88 88
56 56 54 52 74 77 74 79 80 76 53 65 68 81 78 73 72 73 79 76 70 72 73 70 72 72 69 72 78 72 81 78 75 73 74 76 73 76 87 82 84 87 89 90 90
56 54 53 67 75 77 80 79 76 61 51 60 67 65 67 69 69 73 72 76 73 69 73 72 81 78 76 78 77 79 75 75 75 74 63 72 74 76 82 85 88 90 91 91 92
54 53 58 73 73 79 78 75 61 54 62 57 60 64 63 62 64 66 64 65 65 60 63 69 71 77 79 73 78 75 71 62 60 61 61 76 72 76 87 91 92 92 91 93 93
52 51 58 74 79 77 76 67 51 58 58 63 61 61 58 61 61 62 61 62 63 63 64 61 61 72 78 74 72 72 72 64 54 60 65 75 68 76 89 92 96 97 97 95 94
51 75 77 77 77 76 70 57 57 57 60 58 59 56 57 59 60 60 59 59 60 62 57 61 60 71 71 78 78 72 67 78 71 74 69 74 77 85 89 89 91 92 95 94 94
65 73 73 77 76 73 65 52 58 61 61 60 53 57 53 56 55 56 57 60 57 60 64 60 53 68 70 70 74 72 80 66 68 55 56 68 70 73 79 83 88 90 93 95 97
68 68 74 78 76 70 60 58 58 63 62 57 56 55 56 54 55 55 56 59 59 59 62 61 56 61 64 65 67 69 67 70 73 69 60 60 69 85 83 85 86 91 94 97 97
67 65 74 77 66 66 60 54 49 60 62 60 59 58 56 56 54 53 53 57 61 61 55 60 58 52 59 72 71 69 69 71 61 60 67 67 71 90 88 90 91 93 95 98 99
63 65 74 76 60 57 55 54 55 56 56 56 54 57 59 54 48 54 54 61 61 59 56 59 54 48 54 63 68 63 68 70 70 71 64 62 67 88 88 88 91 92 94 97 97
63 60 64 63 61 52 50 51 51 57 56 56 55 57 55 53 57 50 53 58 60 60 53 55 56 51 49 52 57 53 59 62 64 61 63 67 71 79 83 84 88 90 92 95 94
62 54 54 52 51 51 52 50 43 44 54 56 52 52 50 45 49 49 52 54 57 57 56 56 48 53 55 56 57 55 55 57 56 62 60 69 69 78 83 85 88 91 92 88 90
59 55 61 53 52 51 48 48 46 45 46 45 46 49 43 41 48 44 51 51 51 56 54 57 46 51 48 55 56 54 58 58 58 60 62 65 65 84 84 83 83 87 85 85 87
63 60 56 46 46 41 40 39 41 44 44 47 47 41 38 42 52 47 52 54 54 50 50 50 49 48 44 54 53 47 56 58 61 64 64 60 70 81 78 80 79 80 81 81 82

GFSSW_sfc_temp_057.txt.gz
Temp
63 63 63 62 63 63 63 63 63 63 63 63 63 63 63 63 62 72 79 83 85 79 76 92 93 94 96 88 89 87 72 68 66 72 77 84 77 81 83 83 87 90 88 88 91
63 62 62 62 62 62 62 62 63 63 63 63 63 63 63 63 73 81 81 77 77 78 88 90 88 91 88 90 88 77 77 64 85 82 82 86 83 81 80 85 87 88 91 90 92
62 62 62 62 62 62 62 62 62 62 62 62 62 63 63 67 77 85 79 77 77 79 94 97 95 91 87 91 89 86 81 85 86 87 84 81 72 83 83 83 88 85 83 84 90
62 61 61 61 61 61 62 62 62 61 61 62 63 63 63 74 75 89 79 78 77 87 91 94 92 86 86 84 92 84 90 85 82 90 84 81 86 85 86 76 93 91 86 86 89
61 61 61 61 61 61 61 61 61 60 61 62 63 63 67 78 85 94 82 80 85 87 89 91 88 87 84 90 91 87 87 88 89 89 86 87 85 70 84 94 96 92 86 86 89
60 60 60 60 60 61 60 60 59 60 61 64 64 63 73 79 93 93 91 88 90 90 92 93 90 93 90 90 88 92 91 83 84 91 91 86 86 92 90 95 91 89 86 89 90
60 60 60 60 60 60 59 59 60 61 63 64 64 71 82 82 94 95 94 92 94 94 92 96 97 92 91 87 94 92 85 89 84 87 88 93 84 88 91 94 89 88 88 90 91
59 59 59 59 59 59 58 58 60 63 64 64 65 79 81 93 97 93 95 93 97 98 98 99 99 92 91 94 88 85 87 79 89 85 90 90 76 92 95 93 88 88 89 89 91
59 59 59 59 58 57 56 57 62 64 65 66 74 82 81 83 89 93 94 89 93 95 96 98 94 87 89 82 81 84 78 80 81 85 88 86 73 78 95 93 89 89 89 89 90
58 58 58 58 57 56 56 57 63 65 69 82 85 80 86 81 89 90 95 94 88 89 87 86 84 81 84 81 72 78 79 84 80 85 87 85 80 69 94 94 90 89 89 89 90
58 58 57 57 56 55 65 79 77 76 85 80 82 81 83 89 94 88 93 90 89 85 77 81 76 74 81 83 85 87 85 82 89 88 83 79 78 68 93 94 89 89 88 89 90
58 57 57 57 55 55 68 82 77 80 75 82 82 84 86 88 82 85 92 83 80 74 81 79 73 83 86 86 83 83 81 82 89 89 82 76 78 85 91 92 91 89 89 89 91
57 57 56 55 55 66 83 79 86 85 74 79 83 82 83 87 79 80 87 85 79 76 78 76 80 85 83 81 79 80 79 81 82 86 89 81 76 85 87 93 93 93 92 93 91
57 57 56 54 62 87 82 86 88 86 69 72 75 80 84 84 77 85 86 82 81 76 80 79 86 80 80 78 81 75 84 83 82 80 74 86 66 75 70 88 90 92 92 93 92
57 56 54 52 75 84 82 89 89 83 56 73 76 87 83 79 79 79 86 82 75 78 79 76 78 78 76 79 82 77 86 84 82 79 79 78 74 81 88 79 88 91 92 94 94
56 55 54 70 80 85 88 89 83 64 54 66 74 73 74 76 77 80 79 83 82 75 79 78 88 83 82 84 83 85 81 80 81 79 67 76 76 78 75 84 89 93 95 95 95
55 53 57 79 80 88 88 81 64 59 72 65 68 72 72 70 71 73 72 73 70 65 67 75 76 83 84 78 83 80 76 64 63 64 64 80 76 80 88 90 87 93 95 97 97
53 51 64 82 87 87 82 71 55 66 67 70 69 68 66 69 70 70 70 68 72 71 68 66 66 77 82 77 76 76 76 67 56 63 68 79 72 80 94 93 88 82 97 99 99
52 78 85 86 86 85 74 62 64 67 69 66 68 64 66 67 66 66 68 68 71 70 63 66 67 80 80 83 81 76 71 82 73 77 73 78 81 89 93 94 91 91 98 95 99
69 80 80 86 88 80 68 59 66 70 69 67 60 65 61 66 61 64 66 70 66 67 71 68 59 76 78 80 80 78 84 70 72 58 58 72 76 77 83 88 93 94 96 92 94
69 73 81 88 86 74 64 65 65 70 68 64 62 62 62 62 63 62 63 67 68 67 69 70 65 66 75 70 70 73 71 73 76 72 62 63 73 90 88 89 90 94 97 99 99
76 70 82 85 69 74 68 63 51 67 68 65 65 63 61 63 61 60 60 64 69 68 61 69 65 59 66 76 79 77 74 74 65 63 72 71 74 95 94 95 94 95 97 100 101
71 74 82 82 63 66 64 63 63 63 63 62 61 64 65 60 54 59 62 68 66 64 62 66 59 53 58 68 72 69 74 74 75 75 66 66 70 93 93 93 95 95 96 98 99
71 66 72 73 70 64 61 58 59 63 62 62 61 64 61 58 62 56 58 64 65 65 59 61 59 56 54 58 64 63 67 72 72 64 67 70 75 84 87 87 91 94 96 98 99
70 62 63 59 61 62 61 58 53 54 61 62 57 56 54 51 53 53 59 61 63 61 61 61 52 58 61 63 63 61 63 66 64 66 61 70 73 80 86 88 91 93 95 95 97
66 64 68 63 60 60 55 52 50 52 53 54 53 54 54 51 53 49 51 53 55 60 59 62 51 56 53 60 61 57 62 63 64 65 65 67 67 82 84 86 89 91 91 91 92
70 69 67 50 58 54 52 49 50 51 54 54 50 51 49 52 58 61 63 61 55 54 53 54 50 46 47 58 58 52 60 63 65 68 68 62 71 80 80 80 85 89 90 89 90

GFSSW_sfc_temp_060.txt.gz
Temp
63 63 62 62 62 63 63 63 63 63 63 63 63 63 63 63 62 69 76 84 86 80 78 91 90 92 93 91 93 87 67 63 66 72 65 80 76 74 73 82 87 89 83 87 91
62 62 62 62 62 62 62 62 63 63 63 63 63 63 63 63 69 76 83 81 80 79 86 87 84 89 87 89 88 79 66 63 72 79 77 84 84 82 79 83 85 86 90 90 91
62 62 62 62 62 62 62 62 62 62 62 62 63 63 63 65 71 84 79 79 79 80 89 94 93 90 84 89 88 85 74 72 79 84 87 81 77 78 81 80 84 81 83 87 89
61 61 61 61 61 61 61 62 62 61 62 62 63 64 63 71 73 87 80 79 78 87 87 90 92 85 83 82 91 80 85 84 82 89 89 83 70 69 67 76 91 88 88 88 86
61 60 60 60 60 61 61 61 60 60 61 62 63 64 65 73 83 90 80 80 85 86 85 87 87 87 81 87 90 86 87 87 87 87 89 85 70 66 71 74 82 89 88 87 87
60 60 60 60 60 60 60 60 60 60 62 63 65 64 70 73 96 97 95 87 89 87 87 91 90 93 88 88 88 92 92 91 89 85 86 80 79 83 74 79 88 86 85 88 87
59 59 59 60 60 60 60 59 59 61 63 65 65 70 76 83 96 98 95 91 92 91 87 94 97 92 91 86 93 92 86 89 87 85 78 84 69 73 76 78 85 84 85 89 90
59 59 59 59 59 59 58 58 59 62 65 65 65 74 79 96 99 96 98 94 96 95 95 99 99 93 90 94 91 84 85 77 88 86 90 87 71 78 76 82 83 84 86 87 89
59 59 59 59 58 58 57 57 60 64 66 67 71 75 80 85 90 96 97 92 93 95 96 100 95 88 87 81 78 82 74 78 82 86 89 87 70 76 76 85 85 85 86 87 87
58 58 58 58 57 57 56 57 66 65 70 79 82 78 88 85 91 93 97 95 90 90 88 88 86 80 80 78 67 74 76 80 80 85 87 84 77 76 72 79 86 87 87 87 87
58 58 58 57 56 56 63 82 74 72 79 81 83 83 85 92 94 91 94 91 90 85 75 82 74 70 76 81 82 82 82 81 87 91 85 80 68 75 76 79 79 87 87 88 88
58 57 57 57 56 55 67 80 80 83 73 87 86 86 89 92 83 87 95 83 81 74 80 78 70 80 85 85 83 81 79 80 88 91 87 76 66 75 81 78 78 89 87 88 90
57 57 56 56 55 67 83 82 90 89 74 81 86 86 85 88 83 83 88 85 80 75 77 73 80 84 83 82 79 80 78 80 81 89 89 84 66 66 72 70 73 92 91 91 90
57 57 56 54 62 85 83 89 92 90 67 74 77 83 85 86 79 89 90 84 81 75 78 78 85 83 80 78 82 74 85 83 82 80 73 85 63 70 65 66 66 84 90 90 91
57 56 55 53 67 80 85 92 91 85 52 75 78 89 87 80 81 81 89 84 75 78 79 75 79 78 77 79 83 77 86 83 82 78 77 79 74 77 72 67 63 72 86 91 92
57 56 54 71 69 83 91 91 85 63 53 69 78 75 75 80 79 82 81 85 85 77 80 79 88 85 82 85 85 86 81 80 80 78 66 74 74 76 69 69 66 72 72 92 93
55 54 55 75 78 91 90 82 62 56 76 67 71 74 75 74 74 76 75 73 70 64 66 74 76 83 86 78 84 81 74 62 60 62 62 78 73 76 87 81 75 70 68 92 94
53 52 67 80 89 89 83 70 54 70 70 75 73 72 69 74 72 73 70 69 77 73 67 65 64 77 83 78 75 76 74 64 54 59 65 77 68 77 91 94 85 82 83 87 95
53 77 78 85 89 86 74 60 64 67 73 69 71 66 68 71 70 70 69 70 75 75 62 64 66 82 84 84 81 74 70 79 69 73 67 73 79 86 92 93 94 85 86 76 74
63 76 82 89 90 81 68 58 67 72 72 71 61 69 64 69 66 67 67 73 71 73 74 67 58 74 80 83 82 78 81 68 71 55 55 67 72 76 82 87 92 83 80 76 76
66 73 83 91 87 74 63 66 69 73 71 66 64 64 66 65 67 64 66 71 72 71 71 68 63 65 74 72 70 73 70 72 73 71 60 59 68 87 86 87 90 90 82 76 79
76 68 85 88 69 73 65 67 55 70 72 68 67 65 63 64 62 63 62 67 72 71 62 68 63 57 64 76 80 77 72 73 65 61 67 68 70 92 92 94 94 95 97 87 83
69 75 85 84 60 65 68 67 68 66 67 65 64 67 67 61 56 62 64 71 70 66 62 65 59 52 56 66 74 71 73 73 73 73 63 62 68 89 91 91 95 94 96 89 80
68 65 75 76 74 67 64 62 61 67 66 65 63 66 62 60 64 58 60 67 69 67 61 64 58 54 51 59 64 61 68 71 70 65 65 68 71 80 86 87 90 92 95 96 87
73 66 67 60 64 65 64 62 58 57 64 66 61 60 58 53 57 57 62 61 64 64 63 62 51 55 58 61 63 63 63 66 65 67 63 69 71 78 77 75 77 85 87 94 94
66 66 72 65 65 64 57 55 55 56 57 56 55 58 59 53 55 52 57 58 56 61 56 61 51 55 52 59 61 59 63 64 65 66 68 71 68 80 80 78 79 80 77 78 92
74 75 70 57 62 59 55 54 54 56 58 60 55 54 53 57 61 62 64 64 61 58 55 55 49 46 42 55 55 51 59 62 64 67 67 62 70 77 75 77 80 81 78 71 84

GFSSW_sfc_temp_063.txt.gz
Temp
62 62 62 62 62 62 62 62 63 63 63 63 63 63 63 63 62 63 66 79 78 80 80 85 84 84 85 80 85 84 62 60 64 66 67 75 71 75 76 72 81 81 80 83 87
62 62 62 62 62 62 62 62 62 62 62 63 62 63 63 63 62 65 79 80 80 79 81 81 77 81 78 78 81 71 62 64 72 71 71 78 76 75 72 74 73 76 84 86 86
62 62 61 61 62 62 62 62 62 62 62 62 62 62 63 63 63 75 81 80 79 79 85 86 85 81 74 79 80 78 68 72 73 77 76 69 71 76 72 75 73 73 79 82 84
61 61 61 61 61 61 61 61 61 61 61 61 62 63 63 63 63 82 79 79 79 83 82 81 81 75 73 73 82 75 81 76 77 82 75 69 71 70 69 68 75 81 82 83 83
60 60 60 60 60 60 61 61 60 60 61 62 62 63 57 60 70 86 80 79 80 80 79 77 75 78 72 77 81 80 82 82 84 83 76 75 72 71 69 73 77 83 84 82 83
60 60 60 60 60 60 60 60 59 60 61 63 65 64 57 60 89 87 84 80 83 80 78 79 79 84 79 79 78 84 87 86 82 80 77 73 71 73 71 71 74 83 81 83 83
59 59 59 59 60 60 60 59 59 60 61 65 65 67 66 69 90 90 88 80 82 82 78 83 86 81 82 77 85 84 78 84 81 79 76 76 67 70 73 75 74 80 82 83 83
59 59 59 59 59 59 58 57 58 60 62 65 66 66 61 87 86 90 89 85 86 84 84 87 88 83 79 83 82 75 73 64 80 81 81 76 62 69 72 70 71 81 82 82 82
59 59 59 59 58 58 56 57 60 62 64 66 60 60 66 84 84 87 88 85 83 83 85 91 86 77 78 69 64 67 58 66 73 81 82 74 64 68 72 70 73 78 82 82 82
58 58 58 58 57 57 56 58 65 62 65 73 74 62 75 80 85 87 88 91 83 82 80 80 75 67 66 60 51 59 61 67 70 78 81 73 66 69 71 68 71 77 81 82 84
58 58 57 57 57 55 54 66 63 59 66 66 68 74 83 85 87 84 88 86 84 77 66 73 62 59 64 68 71 71 70 69 76 81 77 70 64 66 66 66 63 69 79 81 82
58 57 57 57 56 55 53 61 70 71 62 78 79 81 84 83 79 84 88 75 75 66 71 66 60 70 76 75 73 71 68 68 75 82 77 68 66 68 65 67 68 67 79 81 84
57 57 57 56 55 59 68 72 81 77 60 73 80 79 78 77 78 78 79 79 72 68 68 62 69 78 76 73 71 69 64 68 69 78 76 66 60 66 71 73 71 68 75 80 84
57 57 56 55 56 68 71 77 82 79 51 66 71 77 80 77 72 87 85 77 74 68 70 67 76 76 72 71 71 58 75 77 75 67 58 76 51 61 65 65 68 69 68 72 83
57 57 55 53 53 63 76 82 78 71 40 71 72 82 79 69 74 75 85 77 68 70 68 65 71 71 70 73 76 68 77 73 72 64 59 67 59 64 68 60 64 68 67 76 80
57 55 54 61 55 65 75 81 72 50 45 67 74 71 68 71 74 78 77 76 77 70 71 69 79 75 74 79 78 80 73 69 66 59 51 60 59 56 60 64 64 71 74 78 80
55 54 52 65 66 78 81 70 48 45 71 64 64 69 68 67 70 69 69 63 57 49 51 65 69 74 79 69 74 71 56 46 44 47 48 60 57 61 67 71 71 71 74 76 79
53 52 60 70 76 79 73 57 44 62 64 70 70 67 62 68 65 69 64 59 67 63 54 51 52 68 76 68 61 63 59 48 41 43 49 62 51 62 75 77 75 76 76 77 74
53 67 68 75 77 77 61 48 51 60 67 66 65 58 60 65 64 63 58 60 65 63 50 49 54 70 75 75 73 63 55 65 53 57 49 56 63 74 78 75 75 76 73 74 75
54 62 70 82 81 70 56 51 59 66 68 67 56 61 55 59 59 58 57 65 64 67 63 55 45 62 71 73 73 66 67 52 53 42 41 52 56 58 68 74 75 70 71 72 71
58 61 75 83 77 62 52 58 64 70 69 62 58 57 57 56 59 56 59 62 67 65 64 55 48 51 61 57 58 60 55 55 55 51 46 45 53 70 72 72 72 73 75 74 71
63 58 77 80 59 62 58 60 58 66 69 65 63 61 58 58 55 56 57 60 68 64 55 56 46 42 51 64 68 65 58 56 47 47 50 50 55 77 76 80 76 80 81 77 73
57 64 78 78 56 58 63 63 64 62 61 61 60 62 61 55 48 57 60 68 68 62 51 53 44 37 44 52 58 56 61 61 56 52 49 46 53 75 74 73 75 75 72 78 78
59 58 65 68 66 59 56 58 58 66 62 63 60 61 56 52 55 51 56 65 66 63 63 58 44 40 36 44 52 50 56 60 54 45 48 52 57 69 67 68 73 74 75 75 76
60 59 64 53 57 58 58 57 55 52 60 60 56 56 52 44 48 49 54 57 62 61 57 50 39 44 48 53 54 54 55 58 54 52 44 53 58 60 64 68 71 75 75 73 72
57 56 61 57 59 57 54 52 52 53 54 52 50 53 53 46 47 45 49 48 47 55 51 50 39 44 43 53 53 51 55 56 59 59 58 58 58 67 70 70 71 74 74 70 66
65 68 61 54 55 52 51 52 53 53 57 58 54 50 49 51 55 54 54 54 53 48 47 43 39 37 33 47 48 40 51 54 57 59 57 51 58 64 59 67 69 65 66 65 65

GFSSW_sfc_temp_066.txt.gz
Temp
62 62 62 62 62 62 62 62 62 62 63 62 62 62 62 62 62 60 61 74 75 79 80 78 77 79 80 74 79 80 60 60 64 65 66 73 72 74 76 73 79 79 79 81 82
62 62 62 61 62 62 62 62 62 62 62 62 62 62 62 62 59 60 74 79 79 79 78 75 72 76 70 73 77 70 61 67 73 71 71 72 73 74 71 71 76 76 84 84 81
62 61 61 61 61 61 61 62 61 61 61 61 62 62 62 62 58 68 77 79 80 80 81 81 79 76 68 72 74 73 66 75 75 76 75 73 72 76 73 67 70 69 78 80 79
61 61 60 61 61 61 61 61 61 60 61 61 62 62 62 59 61 80 79 79 79 79 79 77 76 69 67 66 75 67 77 79 77 79 75 71 71 70 71 68 73 76 82 81 80
60 60 60 60 60 60 61 60 60 60 60 62 62 62 56 55 64 83 80 80 78 77 75 74 70 70 65 70 74 72 76 80 82 78 76 74 70 71 69 71 76 79 83 80 80
60 60 60 60 60 60 60 60 59 59 60 62 64 63 54 55 82 82 80 76 77 76 73 75 73 76 72 73 71 78 79 82 78 75 74 71 72 73 72 74 75 79 80 81 81
59 59 59 59 60 60 59 58 59 59 61 63 65 64 59 64 83 82 79 73 76 77 72 78 79 73 73 71 80 78 71 81 76 73 73 76 67 70 71 75 75 75 80 81 80
59 59 59 59 59 59 58 57 58 60 61 64 65 60 55 80 78 80 78 76 79 77 77 79 81 75 72 77 76 69 65 60 75 75 73 74 61 66 73 71 71 78 80 80 79
58 58 58 58 58 58 57 57 59 62 63 65 55 54 59 82 78 82 83 78 77 76 77 88 76 70 71 65 58 61 55 61 67 77 71 71 61 68 72 72 70 77 79 80 78
58 58 58 58 57 57 56 56 60 62 63 68 68 56 68 75 79 83 83 83 77 75 75 73 67 61 59 56 48 54 55 60 64 73 70 68 65 65 70 71 72 76 79 78 79
58 58 58 57 57 55 53 54 59 57 58 58 60 66 77 78 84 78 83 81 77 70 60 66 58 53 60 62 65 63 62 62 69 75 67 67 62 64 66 68 68 68 76 79 79
58 58 57 57 56 55 50 55 64 67 57 69 71 72 78 79 73 78 81 71 69 61 64 60 54 64 70 69 67 64 61 61 69 73 69 65 61 64 66 67 69 70 73 76 81
57 57 57 56 55 54 58 64 73 64 53 65 71 72 73 73 72 73 77 73 67 63 63 56 64 73 70 67 65 62 58 63 63 68 68 62 58 62 65 69 70 73 75 76 80
57 57 56 55 55 54 62 68 70 69 45 57 63 73 74 74 67 83 81 74 68 64 65 61 71 71 67 66 65 52 67 70 69 62 57 67 51 58 60 62 66 69 70 69 77
57 56 55 53 45 55 69 67 69 64 37 67 64 78 71 66 70 72 79 73 63 65 62 61 65 66 64 67 69 63 72 67 66 57 55 59 53 59 62 58 62 66 71 72 74
56 55 54 52 47 55 62 66 64 46 40 62 69 66 64 64 68 73 72 72 71 64 63 65 72 69 68 73 73 75 66 62 57 53 46 53 55 51 59 64 64 66 69 73 77
55 54 52 58 58 64 66 62 47 39 63 59 59 63 60 60 64 65 64 57 54 48 48 60 64 68 72 63 68 66 53 44 44 43 44 51 53 57 65 71 68 69 71 78 81
53 52 52 61 58 64 61 54 40 56 53 62 62 62 58 61 59 64 59 54 60 53 48 47 49 61 69 62 57 56 54 45 38 39 44 55 48 61 71 74 75 75 75 76 76
52 53 56 63 64 64 57 41 41 51 59 58 59 53 54 62 61 60 56 53 58 55 46 44 49 65 68 66 62 58 51 57 48 41 45 49 57 67 69 70 72 73 73 74 76
46 50 56 69 66 60 50 45 50 61 63 59 48 53 47 52 52 53 54 58 59 62 54 48 44 53 64 66 64 56 62 51 46 38 36 46 49 53 63 66 69 70 70 72 73
51 53 65 68 67 55 45 48 60 65 65 57 53 50 49 49 51 48 51 58 62 60 57 46 44 48 56 50 48 52 49 49 48 46 40 39 47 59 61 65 67 69 73 73 72
48 51 71 67 54 49 47 55 58 59 62 57 58 54 50 51 49 49 50 56 63 58 50 49 41 38 45 56 60 56 48 45 40 42 43 44 48 66 66 66 68 71 73 76 74
45 48 67 67 44 44 52 59 60 57 56 55 53 54 53 48 44 51 54 62 62 56 47 49 38 34 42 45 51 48 52 45 45 41 42 42 47 66 69 69 70 69 69 74 71
48 48 54 54 51 47 46 49 50 61 56 57 53 53 49 46 46 45 49 58 61 59 63 54 38 36 33 37 45 44 51 52 42 36 40 42 49 57 62 66 67 68 66 68 70
49 47 49 43 47 47 51 49 49 47 53 52 49 50 44 37 40 42 46 48 55 58 53 46 36 39 40 47 49 49 49 51 46 43 39 47 49 54 56 61 63 67 66 65 64
49 48 49 44 47 48 43 42 46 48 48 45 44 49 45 38 38 36 41 40 40 47 45 43 36 37 37 48 48 45 50 51 52 52 49 51 48 52 57 61 60 61 62 61 62
52 51 49 45 42 40 40 44 47 47 51 52 50 45 43 47 49 46 45 44 44 38 40 39 37 33 27 42 43 37 44 48 49 50 48 42 45 52 52 57 57 57 59 59 60

GFSSW_sfc_temp_069.txt.gz
Temp
62 62 62 61 62 62 62 62 62 62 62 62 62 62 62 62 61 59 59 72 72 78 80 75 74 75 77 71 76 77 61 57 64 64 64 71 69 71 76 75 79 78 74 75 76
62 61 61 61 61 62 62 62 62 62 62 62 62 62 62 62 57 57 71 77 78 79 75 71 68 73 67 69 73 68 60 64 71 72 67 72 71 70 70 73 74 75 78 76 75
61 61 61 61 61 61 61 61 61 61 61 61 61 61 61 60 55 67 76 78 78 79 78 77 76 74 65 69 69 67 62 72 73 76 75 73 72 71 70 65 70 71 72 73 73
61 61 60 61 61 61 61 61 61 60 60 61 62 62 62 56 57 77 77 78 79 77 77 75 72 67 64 63 71 65 74 74 77 78 74 72 72 70 72 70 74 75 76 74 73
60 60 60 60 60 60 61 60 60 60 60 61 62 62 55 52 63 79 79 79 76 75 73 71 68 67 63 67 71 68 73 76 78 79 75 73 70 70 68 71 74 77 77 75 74
60 60 60 60 60 60 60 60 59 59 60 61 63 62 52 53 78 78 78 74 74 73 71 72 71 72 67 69 68 74 74 75 76 73 73 71 70 73 70 72 73 74 76 76 76
59 59 59 59 60 60 59 58 58 59 60 61 64 63 55 62 79 78 76 71 73 74 68 73 76 70 70 67 75 74 68 72 70 70 71 74 66 69 72 73 69 75 78 79 77
59 59 59 59 59 59 58 57 58 59 61 62 65 58 54 76 75 77 74 72 74 71 73 76 77 70 68 73 72 66 62 57 67 71 73 72 61 69 71 70 70 75 79 78 78
58 58 58 58 58 58 56 56 59 61 62 64 54 53 58 78 73 75 76 74 71 70 73 85 75 67 67 61 56 58 52 57 61 69 71 67 60 68 71 72 70 73 78 78 78
58 58 58 58 57 56 55 56 61 61 63 66 66 54 65 72 75 76 75 79 73 71 71 70 65 58 56 54 47 52 53 55 59 66 67 63 62 66 69 70 71 73 76 78 77
58 57 57 57 56 55 53 51 55 54 56 56 58 63 71 76 79 76 79 77 74 67 58 64 56 51 57 60 62 60 57 57 64 70 64 63 60 63 66 68 69 71 74 77 77
57 57 57 56 55 54 50 54 57 60 55 65 67 67 72 71 70 74 80 69 67 58 62 57 52 62 66 65 63 60 56 56 64 68 65 62 59 63 65 68 70 71 74 76 77
57 57 56 55 54 52 54 60 66 59 51 62 66 67 69 70 69 71 75 70 65 60 59 54 61 69 66 63 61 56 52 56 59 65 64 62 57 60 64 67 68 70 72 76 78
57 57 56 54 54 51 59 63 63 62 44 54 59 70 71 72 63 78 78 73 65 60 61 58 66 67 64 62 61 49 63 65 64 57 51 60 46 59 63 63 64 67 70 71 76
57 56 54 53 46 55 66 59 60 62 37 62 61 73 66 64 68 70 76 72 63 63 61 58 61 61 61 63 65 60 67 64 64 55 51 55 49 56 60 59 62 66 69 72 74
56 55 54 50 46 54 58 59 63 47 42 58 65 63 62 61 65 69 69 72 69 64 60 62 68 66 65 69 68 71 62 57 52 50 44 50 51 53 56 61 64 67 68 73 77
55 53 52 56 59 58 63 61 46 38 59 57 57 61 58 56 60 60 61 56 52 48 47 57 59 64 67 58 64 60 51 42 42 42 43 47 51 55 67 69 69 68 69 73 77
53 51 52 57 53 59 61 52 39 52 50 57 57 60 56 57 56 60 55 50 57 51 45 46 46 58 65 57 53 54 52 43 37 38 44 49 47 57 67 70 72 73 73 74 75
51 51 53 59 60 57 55 40 40 47 56 55 53 49 49 54 56 55 49 49 54 51 44 42 46 60 64 63 58 53 47 51 43 39 44 46 54 63 67 67 67 70 71 71 74
47 49 57 64 63 58 53 44 47 58 58 55 46 49 44 49 51 48 48 55 55 56 49 45 42 50 60 62 61 54 55 46 44 37 36 43 46 49 57 61 65 66 68 71 73
51 54 64 62 63 55 45 49 56 62 61 53 48 47 45 46 48 48 49 56 59 58 53 42 43 47 52 49 48 48 44 42 43 41 37 37 44 58 58 60 62 64 69 69 73
48 49 72 63 50 44 44 53 56 57 58 55 54 50 47 46 45 46 47 51 59 54 47 46 39 37 42 52 56 51 44 39 36 37 38 40 42 61 60 63 64 63 65 69 74
47 46 63 61 44 41 49 54 56 53 51 52 49 51 49 43 41 46 50 58 59 54 46 48 37 34 37 44 48 45 47 41 39 35 35 36 42 63 60 61 63 61 63 66 67
48 45 51 51 43 44 42 45 48 58 53 53 50 49 46 41 43 42 45 54 57 56 60 52 37 38 35 35 41 41 47 47 39 34 36 38 43 50 53 55 58 59 61 63 63
47 44 44 39 44 44 45 47 47 44 51 50 47 46 42 35 37 38 42 45 52 53 49 44 34 36 38 46 45 44 45 47 41 41 37 43 42 47 51 55 55 58 60 62 61
47 45 45 40 41 43 41 40 44 46 45 44 43 46 43 37 37 34 37 36 36 45 41 41 34 34 36 45 45 42 46 48 48 48 46 47 43 49 53 56 55 55 57 58 59
47 47 47 42 39 38 38 40 44 45 49 49 47 42 41 44 47 46 44 42 38 36 38 37 34 31 27 39 41 35 42 44 45 46 45 41 42 49 49 52 51 53 55 56 57

GFSSW_sfc_temp_072.txt.gz
Temp
62 62 62 61 62 62 62 62 62 62 62 62 62 62 62 61 61 57 56 70 71 77 78 74 73 73 75 69 74 76 61 58 64 62 63 71 66 68 72 74 78 77 73 73 74
62 61 61 61 62 62 62 62 62 62 61 61 61 61 61 62 55 54 69 76 78 78 72 69 66 71 65 67 70 67 58 61 72 69 66 69 70 70 71 73 69 69 72 73 74
61 61 61 61 61 61 61 61 61 61 61 61 61 62 61 59 53 66 74 77 78 79 75 74 72 71 63 66 68 69 60 68 72 74 74 70 70 74 70 66 69 65 68 71 71
61 61 61 61 61 61 61 61 61 60 60 60 61 61 61 54 54 73 76 77 78 77 75 72 69 64 61 61 69 64 70 72 74 74 72 70 70 69 72 70 73 72 72 71 69
60 60 60 60 60 60 61 60 60 59 60 60 61 62 54 50 61 76 78 78 75 73 71 68 66 64 60 65 68 67 70 72 75 74 75 74 72 67 68 72 77 74 73 71 70
60 60 60 60 60 60 60 59 59 59 59 60 62 61 50 51 73 76 74 72 71 70 68 70 68 70 66 66 65 72 71 72 71 69 71 69 69 72 70 72 72 73 71 73 73
59 59 59 59 59 60 59 59 58 59 59 61 63 61 53 62 75 75 72 67 70 72 66 70 73 69 67 64 73 71 65 69 67 67 68 73 65 67 71 71 70 71 72 73 75
59 59 59 59 59 59 58 57 57 59 60 61 64 56 53 72 72 74 73 70 72 68 71 72 75 68 65 71 70 63 61 56 64 68 70 69 62 68 71 70 68 71 72 73 75
58 58 58 58 58 57 56 56 60 61 62 63 54 50 56 74 70 72 72 69 68 67 70 82 72 64 65 59 55 57 51 55 60 70 68 64 60 67 71 70 67 71 72 74 74
58 58 58 58 57 56 56 56 62 62 63 65 65 51 63 68 71 72 72 75 69 67 67 67 61 56 54 52 46 51 52 53 56 64 65 61 59 64 68 69 69 72 73 73 74
58 57 57 57 56 55 52 50 54 52 53 55 56 59 67 73 76 69 74 73 70 63 54 60 54 49 55 58 60 59 57 55 61 66 62 60 59 62 66 69 68 71 73 73 75
57 57 57 56 55 54 50 54 59 58 51 61 63 63 68 68 66 71 77 66 64 55 58 55 50 59 63 62 61 58 55 54 62 65 61 58 56 61 66 67 69 70 71 73 75
57 57 56 55 54 51 51 57 61 56 48 59 62 63 65 67 66 67 72 67 62 57 56 53 59 66 64 61 59 52 51 54 59 61 61 60 59 58 63 68 68 69 72 74 76
57 57 56 53 54 50 57 58 58 58 44 53 56 66 68 67 61 75 75 71 63 58 59 58 64 65 60 59 59 43 61 64 64 55 49 58 47 55 59 60 64 65 68 70 75
57 56 54 53 45 54 63 56 55 63 36 59 60 71 63 62 65 66 73 70 61 60 59 56 60 59 58 60 62 58 63 62 61 53 49 52 49 52 58 57 61 65 68 70 72
56 55 54 49 45 53 56 56 61 49 39 57 63 61 61 60 61 66 68 70 67 62 59 60 65 63 63 66 66 67 59 54 52 48 43 47 50 50 53 58 63 68 70 72 74
54 53 51 55 58 55 58 60 45 37 55 54 55 60 58 57 59 59 58 53 50 47 46 55 57 61 63 57 60 58 50 40 40 41 42 45 49 52 61 70 68 70 71 73 75
52 51 52 56 53 55 60 50 39 50 48 55 54 53 53 57 56 54 51 47 54 50 45 46 45 54 62 54 53 52 50 42 36 36 43 47 45 53 64 67 69 71 71 74 74
51 50 53 58 58 55 56 40 42 46 54 53 51 48 48 53 55 52 47 46 50 47 45 43 44 58 61 59 56 51 45 48 41 36 42 45 50 60 65 65 65 66 68 68 71
48 51 57 63 59 56 53 44 49 56 55 52 45 47 43 47 49 47 46 52 52 53 47 43 41 49 57 59 58 53 51 45 43 37 35 42 43 45 53 56 60 60 61 65 69
50 54 63 59 59 54 43 47 55 59 59 51 46 48 47 46 47 44 45 52 54 54 51 40 43 45 50 45 42 46 43 41 42 39 37 36 41 54 52 56 57 59 61 63 67
49 49 64 61 49 41 41 51 52 54 57 55 52 49 46 46 45 46 45 49 57 54 46 43 38 35 38 49 52 47 41 38 40 38 36 38 41 54 56 58 59 60 62 63 65
47 45 59 59 43 38 45 50 53 51 48 49 49 50 48 41 40 45 49 57 56 54 47 46 36 32 35 42 46 44 45 38 36 35 34 37 41 55 56 57 57 58 62 62 63
47 44 49 48 42 41 39 43 46 55 50 51 46 46 43 40 40 40 43 53 55 54 58 53 38 36 33 35 40 40 45 45 37 35 34 37 42 47 52 54 53 56 61 61 61
46 40 41 37 41 42 41 43 44 42 49 49 45 44 40 35 36 36 41 44 51 51 47 43 35 38 39 43 44 43 43 45 40 40 37 41 43 44 50 52 52 55 58 59 59
45 44 41 37 39 40 40 39 41 43 44 42 41 44 42 36 35 33 36 36 35 45 41 39 33 35 35 43 43 41 45 46 46 46 43 45 42 48 51 52 51 52 53 54 56
45 44 46 41 37 36 36 38 43 43 48 48 45 41 41 43 44 41 40 39 37 35 36 36 33 31 28 36 38 34 39 43 43 44 43 39 41 48 47 50 49 49 51 52 53

GFSSW_sfc_temp_075.txt.gz
Temp
62 62 62 62 62 62 62 62 62 62 62 62 62 61 62 61 61 61 65 78 77 77 79 80 80 80 81 77 78 79 63 61 67 67 65 72 66 68 72 75 79 79 76 77 79
62 62 61 62 62 62 62 62 62 62 61 61 61 61 61 62 61 62 75 76 78 78 79 78 74 78 75 75 77 73 67 67 75 74 70 69 67 69 71 74 71 74 78 77 77
61 61 61 61 61 62 62 62 61 61 61 61 61 62 61 62 62 75 76 77 78 80 83 82 80 78 72 75 73 71 68 75 77 77 77 69 68 73 72 69 72 68 70 74 74
61 61 61 61 61 61 61 61 61 60 60 61 61 62 61 61 67 79 76 77 78 83 83 79 77 73 70 69 74 67 75 76 77 79 76 72 75 70 73 70 77 75 75 74 73
60 60 60 60 60 61 61 60 60 60 60 61 61 62 61 63 71 80 78 79 81 82 80 77 74 74 70 72 73 71 75 79 81 79 78 77 74 71 68 73 77 76 74 73 74
59 59 59 60 60 60 60 60 59 59 60 61 61 62 62 65 81 81 80 78 80 81 79 80 77 78 75 73 73 76 78 79 79 80 78 76 74 73 70 76 73 75 76 76 77
59 60 59 59 60 60 59 58 58 59 59 60 62 64 61 72 80 81 80 79 80 81 77 81 82 78 77 73 78 78 74 77 75 76 74 78 68 72 74 75 72 76 76 78 79
59 59 59 59 59 58 58 57 57 60 60 61 64 64 64 78 80 79 81 77 81 83 82 82 83 79 76 78 76 74 74 71 72 76 74 73 63 72 72 72 70 72 76 77 79
58 58 58 58 58 58 57 56 62 62 62 64 63 63 66 76 74 80 82 77 78 80 81 84 81 76 76 71 70 71 68 69 68 75 73 70 69 69 73 71 69 71 75 78 78
58 58 58 58 58 56 56 56 61 64 65 67 67 61 69 71 77 78 80 80 75 76 75 75 75 70 70 69 62 65 67 69 68 72 74 70 70 69 72 72 72 74 76 78 78
58 58 58 58 57 56 55 63 64 62 62 67 67 66 71 78 81 77 80 78 76 74 66 71 65 63 68 70 70 70 69 68 71 74 73 72 71 71 73 70 72 74 76 78 78
58 58 57 57 56 55 56 65 68 67 61 68 68 68 73 77 71 73 82 73 70 65 69 66 62 69 72 70 69 70 68 68 71 74 73 70 66 70 72 70 74 75 76 78 80
57 57 57 56 55 54 60 68 69 69 62 66 67 69 74 76 73 70 78 74 69 65 66 65 68 72 70 68 67 68 68 67 69 71 70 69 64 65 70 73 74 76 80 81 81
58 57 56 54 55 60 66 70 67 69 59 61 66 72 74 77 72 80 81 77 70 66 67 68 72 69 68 68 71 65 72 71 69 69 66 69 62 64 68 69 72 74 77 80 82
57 56 54 53 57 66 69 68 68 69 43 64 68 80 76 75 75 73 83 77 69 68 67 65 67 67 66 69 72 68 72 71 70 68 67 65 67 65 67 66 69 71 75 80 83
56 55 54 54 55 66 67 67 70 55 44 60 69 69 70 72 72 76 77 79 76 71 70 70 75 74 73 74 75 74 70 68 67 69 61 66 68 63 67 68 71 74 73 78 82
54 53 53 60 71 66 68 71 55 47 62 57 60 68 69 65 67 71 66 64 64 60 61 66 67 70 72 69 72 72 68 59 58 58 60 63 66 62 68 70 70 70 75 78 82
52 51 55 62 67 64 71 64 45 53 54 62 60 64 61 63 61 62 61 60 64 63 62 59 56 65 69 67 68 68 70 61 51 54 60 62 61 62 70 71 70 72 76 82 83
51 64 68 72 66 67 68 51 47 51 56 56 60 59 57 61 63 61 57 57 60 61 60 58 56 66 67 67 67 64 63 68 61 58 62 63 65 70 69 67 66 67 68 71 80
61 67 71 70 69 71 62 49 54 59 59 58 52 56 54 56 58 58 56 59 57 61 62 60 55 61 64 67 68 66 66 62 63 52 53 55 56 59 58 57 60 62 62 66 72
65 69 74 72 70 66 52 53 57 61 61 57 53 53 52 55 56 52 51 57 58 60 63 61 61 57 62 57 54 64 62 59 64 59 57 53 55 61 54 56 57 60 62 63 72
66 63 73 72 63 56 53 55 53 57 58 58 58 54 52 52 51 51 50 53 59 61 57 57 58 51 52 59 60 60 55 56 61 54 55 61 54 62 61 59 59 60 61 64 66
62 61 72 70 56 52 55 55 56 55 53 53 51 54 53 49 48 51 53 59 58 58 55 60 53 49 51 58 60 56 57 56 55 59 52 58 54 62 64 62 59 59 61 61 64
61 58 62 60 54 54 51 51 51 57 54 55 52 55 53 50 52 48 50 56 58 58 58 61 53 52 54 51 54 52 54 56 57 58 52 56 54 57 59 59 61 61 61 61 61
58 53 52 51 53 52 52 50 49 48 54 55 52 50 50 49 49 47 50 54 58 55 56 58 48 51 52 53 53 52 53 54 54 54 54 55 55 54 56 58 60 62 63 62 60
59 57 54 51 50 52 49 48 48 49 51 49 48 50 52 47 48 47 50 50 48 56 52 54 46 49 45 50 51 50 53 53 54 54 54 55 53 58 58 61 60 60 61 61 61
55 56 60 47 50 51 49 49 49 51 53 53 51 50 48 50 54 54 55 54 53 51 50 49 48 46 42 47 49 47 52 53 54 55 57 53 57 58 56 57 57 58 60 59 60

GFSSW_sfc_temp_078.txt.gz
Temp
62 62 62 62 62 63 63 63 63 63 63 62 62 62 62 62 62 71 76 84 84 77 80 90 89 89 90 86 87 86 72 67 70 69 68 71 68 70 72 73 78 85 86 87 89
62 62 62 62 62 62 62 62 62 62 62 62 62 62 62 62 72 75 83 79 79 78 88 86 84 86 84 84 86 77 70 71 79 79 73 70 69 70 69 72 79 82 88 88 88
62 61 61 61 62 62 62 62 62 62 61 61 61 62 62 67 74 85 80 77 78 80 93 93 91 87 82 85 83 79 74 81 84 83 80 74 70 78 74 75 80 77 81 85 85
60 60 60 60 61 61 61 61 61 61 61 61 61 63 62 73 74 87 78 78 79 91 92 89 87 83 82 77 78 73 82 84 85 86 79 74 78 76 80 78 87 83 85 85 85
60 60 60 60 61 61 61 61 60 60 61 61 62 63 68 74 81 86 78 79 86 90 88 87 84 85 80 80 77 77 83 85 86 79 81 82 77 75 69 79 84 83 85 85 87
60 60 60 60 60 60 60 59 59 59 60 61 62 63 74 73 89 88 89 87 89 90 89 90 87 88 85 83 82 84 84 85 87 85 86 81 79 78 76 81 78 79 84 86 87
59 59 60 60 60 60 59 59 58 59 59 61 62 69 74 80 88 92 91 90 92 92 88 92 91 87 87 81 87 85 81 85 84 87 83 86 75 76 78 82 76 81 83 85 88
59 59 59 59 59 59 58 57 58 61 61 61 63 73 77 86 91 89 91 89 91 94 93 92 92 89 86 87 83 81 83 79 83 85 83 83 70 78 77 78 76 83 84 85 87
59 59 59 59 59 58 57 57 63 63 62 63 71 72 77 78 82 90 92 84 89 90 91 91 90 85 83 80 78 80 77 78 77 84 82 81 72 72 79 77 80 83 85 85 86
59 59 58 58 58 57 56 56 63 65 70 75 75 69 78 78 85 87 92 90 84 85 83 82 84 79 81 79 71 74 77 78 77 80 83 79 77 78 72 71 74 76 79 86 87
58 58 58 57 57 55 62 74 73 70 72 76 78 76 81 87 89 85 88 86 85 81 75 79 75 72 78 81 80 82 80 78 79 84 82 81 81 76 76 75 68 71 76 84 87
58 58 57 57 56 55 68 76 75 75 70 80 79 78 82 88 77 82 89 79 77 72 79 74 70 81 84 81 78 79 78 78 79 82 82 81 79 81 73 79 79 78 78 83 89
58 57 57 56 55 63 77 78 83 80 71 75 79 79 82 83 79 78 85 82 76 74 74 72 77 82 79 77 75 79 78 77 77 80 82 80 73 75 80 74 82 83 85 88 88
57 57 56 54 61 79 77 81 83 80 66 69 73 79 82 85 77 87 88 83 78 74 75 77 81 76 76 75 79 74 81 78 78 77 73 82 63 73 77 73 72 78 85 88 89
57 56 54 52 73 78 80 84 84 79 50 70 74 88 86 80 80 79 90 84 74 75 76 73 75 74 73 77 81 77 82 79 78 77 76 76 74 72 78 75 70 74 77 82 90
56 55 54 64 74 82 84 83 80 62 48 65 75 74 75 79 79 81 81 85 85 77 78 78 84 81 80 82 81 83 78 77 79 79 67 77 76 71 74 73 78 77 84 84 83
54 53 58 74 81 84 83 79 62 53 68 62 67 74 74 73 75 75 73 73 70 65 66 72 75 79 80 77 81 79 76 65 63 65 67 79 75 70 73 75 76 74 79 86 88
53 52 61 77 83 81 80 71 51 59 60 69 66 71 67 73 73 74 72 69 73 74 71 66 61 74 77 77 74 75 77 69 57 62 68 75 68 67 76 77 77 77 82 86 90
51 80 84 85 83 81 75 62 56 58 62 61 65 64 66 69 70 71 69 68 68 72 68 68 63 74 74 77 77 75 72 83 73 77 72 73 69 75 76 73 72 68 71 75 87
80 84 83 86 84 80 73 55 61 65 62 66 57 64 63 66 67 68 66 67 67 71 75 71 61 71 71 76 77 77 82 70 73 60 60 67 66 67 65 63 64 62 63 69 83
79 77 84 88 84 79 68 61 62 68 66 64 58 62 63 63 67 64 62 65 67 69 74 75 71 66 71 68 70 72 72 74 79 74 66 61 65 67 61 60 60 60 62 65 67
82 73 85 85 73 75 66 64 56 63 68 66 66 61 61 62 60 60 59 60 66 70 68 71 73 64 65 68 70 71 70 74 68 65 72 72 61 71 69 63 63 61 61 64 66
77 76 85 84 68 64 64 63 64 64 60 61 60 63 62 58 54 60 59 64 67 67 66 70 69 59 61 66 68 68 69 71 73 75 68 67 59 73 72 68 66 62 62 63 63
77 70 74 75 73 66 61 60 59 65 63 64 61 64 63 59 63 55 59 62 66 67 61 68 68 63 62 63 69 63 65 68 71 69 69 70 60 65 68 68 70 69 66 65 65
73 65 64 63 64 65 64 60 58 56 63 65 61 61 61 57 59 57 59 61 65 63 66 70 59 63 64 64 65 64 63 64 66 66 66 67 65 65 67 67 69 71 71 69 68
72 72 70 65 61 63 58 58 57 58 60 57 58 61 64 58 60 57 61 63 57 63 62 66 57 61 58 61 62 60 63 62 63 64 66 68 62 70 69 70 69 69 69 68 68
74 73 71 55 62 66 59 58 57 59 60 61 60 60 57 57 63 65 66 66 64 63 60 60 58 56 55 57 59 56 64 64 65 67 68 64 67 68 66 66 67 68 68 66 67

GFSSW_sfc_temp_081.txt.gz
Temp
63 63 62 62 63 63 63 63 63 63 63 63 63 63 63 63 62 73 80 88 88 78 79 96 96 94 96 89 91 91 72 70 72 75 67 77 71 75 81 83 88 90 91 92 95
62 62 62 62 62 62 62 63 63 63 63 62 62 63 63 63 75 82 85 81 80 79 89 92 89 92 90 89 86 86 73 75 80 85 76 74 75 73 75 78 82 88 94 94 95
61 61 61 61 62 62 62 62 62 62 62 62 62 63 63 67 77 90 80 80 79 82 97 97 97 93 88 91 83 82 72 81 82 86 82 77 72 78 72 74 82 83 88 90 92
61 61 61 61 61 62 62 62 62 61 61 62 62 63 63 75 76 90 78 79 79 91 97 95 94 88 88 84 86 80 83 85 83 86 82 76 80 75 77 78 87 89 91 91 91
61 60 61 61 61 61 61 61 60 60 60 61 62 63 70 78 84 89 79 80 88 90 93 92 89 90 86 87 82 83 84 89 90 83 85 86 80 79 79 86 87 91 91 90 92
60 60 60 61 60 61 61 60 60 60 60 61 62 62 73 76 96 91 90 90 92 91 94 95 92 95 91 85 75 87 87 89 92 82 84 82 80 82 82 85 86 87 89 91 93
60 60 60 60 61 60 60 59 59 59 60 61 63 72 79 84 97 97 94 93 96 96 93 98 99 93 93 87 93 91 84 90 91 90 86 85 76 74 82 83 79 86 89 91 93
60 60 60 60 60 60 59 58 59 61 63 62 63 78 79 97 99 95 97 95 98 99 99 100 99 95 92 95 90 86 88 79 89 91 90 80 68 79 85 82 80 85 87 90 92
60 59 60 60 59 59 58 57 59 63 63 63 72 79 80 83 89 96 98 92 95 97 98 98 94 90 90 85 82 84 80 80 82 90 88 83 70 72 86 84 83 83 88 90 91
59 59 59 59 58 57 57 57 62 63 70 79 84 77 83 82 92 94 98 96 91 91 88 86 87 83 86 82 74 78 81 82 79 87 83 72 75 81 78 78 81 81 86 89 90
59 59 58 58 58 57 61 74 72 73 80 81 83 82 85 94 96 91 95 92 91 86 78 83 79 76 82 86 89 88 85 73 82 89 82 82 76 79 74 73 72 80 83 88 90
58 58 58 58 57 56 65 82 82 84 75 87 86 87 90 93 81 88 95 83 82 76 83 79 75 85 88 89 87 85 84 82 86 89 81 69 76 78 77 72 69 71 82 85 88
58 58 57 57 56 62 84 84 91 90 75 83 87 84 85 90 83 84 90 87 80 77 80 77 82 88 86 85 82 84 84 82 81 84 89 86 78 77 80 75 71 71 79 85 85
58 58 57 55 57 90 85 90 93 90 69 75 79 83 88 87 80 92 92 87 82 77 81 81 88 84 83 82 83 79 89 86 84 81 75 87 61 78 77 79 69 73 76 86 84
58 57 56 52 80 84 87 94 93 87 53 75 81 95 90 81 86 84 93 88 79 80 82 77 82 81 78 81 85 82 90 84 84 82 82 80 70 58 78 76 68 68 75 81 85
57 56 55 68 81 90 93 93 87 64 51 71 80 78 79 82 84 86 84 90 90 81 83 83 90 85 83 87 88 91 86 84 84 82 72 80 77 56 70 74 76 71 82 82 79
56 54 57 81 85 95 93 84 64 57 69 68 72 77 77 75 78 79 76 76 74 69 70 78 80 86 88 82 87 85 80 68 66 68 69 84 76 64 79 82 80 77 82 74 82
53 52 65 85 92 91 86 72 52 63 65 74 74 75 72 77 76 76 75 72 80 79 75 70 66 81 85 83 79 80 80 71 59 65 72 84 70 71 81 82 79 82 81 88 89
52 80 86 96 94 91 79 54 56 65 68 66 71 67 69 74 75 75 73 73 79 82 72 72 69 82 84 86 83 79 74 87 79 81 76 76 72 77 80 76 71 70 78 84 92
81 89 90 96 94 86 71 55 67 72 72 70 62 68 64 69 68 70 69 69 73 78 81 75 67 78 79 82 84 80 87 75 78 64 64 71 68 70 71 68 65 63 65 72 88
80 82 90 100 93 80 54 67 68 74 72 66 63 64 63 68 69 63 69 72 74 77 81 77 75 72 77 75 75 77 76 80 83 79 70 63 65 76 69 65 61 61 63 64 68
86 76 92 96 75 79 69 72 60 71 72 71 68 67 61 66 58 56 66 69 73 77 74 80 77 67 71 79 80 81 79 80 72 69 77 73 61 77 72 69 64 61 63 66 68
81 83 94 91 64 72 72 70 71 69 68 69 66 67 70 67 59 66 67 70 74 75 73 77 73 64 65 72 77 75 79 80 83 82 72 70 61 76 73 69 65 62 63 64 65
81 75 81 88 82 74 68 67 66 71 69 70 68 68 69 65 70 64 63 69 73 74 63 70 75 69 63 68 75 70 73 77 78 72 73 72 65 71 73 72 69 67 69 67 66
82 74 74 70 72 72 72 68 64 64 70 72 67 69 64 63 63 64 68 69 72 69 73 77 67 70 70 73 76 74 73 73 72 76 70 68 68 71 73 74 74 75 73 72 71
77 78 79 74 70 71 61 66 64 66 67 64 66 68 71 63 66 62 67 67 64 70 70 74 66 69 66 69 70 68 70 71 73 73 75 71 65 76 75 75 74 73 73 71 72
85 83 79 61 70 72 67 66 64 66 66 69 67 67 65 65 70 73 75 74 72 69 63 66 68 63 61 67 67 62 69 71 72 74 76 69 71 74 72 72 72 72 72 71 72

GFSSW_sfc_temp_084.txt.gz
Temp
63 63 62 62 62 63 63 63 63 63 63 63 63 63 63 63 63 71 77 88 88 80 80 93 92 92 94 88 90 83 67 67 67 72 69 79 72 74 84 85 86 90 89 91 96
62 62 62 62 62 62 63 63 63 63 63 63 63 63 63 63 71 77 87 82 81 81 87 90 87 92 85 85 85 68 70 71 81 79 74 78 77 73 78 83 83 87 92 94 96
62 62 62 61 62 62 62 62 62 62 62 62 62 63 63 66 73 86 85 81 81 83 93 96 96 92 86 87 85 75 74 80 81 84 80 76 74 76 79 78 83 83 86 91 94
61 61 61 61 62 62 62 62 62 61 61 61 62 63 63 73 72 88 80 80 80 91 90 94 93 87 85 81 88 67 85 86 84 86 80 76 76 75 75 76 90 90 91 91 91
61 61 61 61 61 61 61 61 61 61 61 61 62 63 69 75 82 88 80 81 89 88 87 90 89 88 84 84 84 75 83 88 86 86 83 84 79 73 71 72 89 91 91 90 92
61 61 61 61 61 61 61 60 60 60 60 61 62 63 71 72 99 92 92 89 91 88 89 94 92 94 89 88 86 84 86 87 88 83 86 82 76 79 73 72 84 87 88 91 92
61 61 60 60 61 61 61 60 59 59 61 62 63 69 76 81 99 97 94 91 95 92 90 97 98 93 93 86 90 87 78 84 86 86 83 84 74 74 83 81 82 87 88 91 92
60 60 60 60 60 60 60 59 59 60 63 63 63 73 73 99 101 97 96 93 97 97 97 100 100 95 92 96 89 82 82 76 85 87 85 81 65 76 81 83 83 85 87 90 91
59 60 60 60 59 59 58 58 59 63 64 64 67 74 77 88 90 97 98 92 95 96 98 101 97 89 90 83 80 84 75 76 81 88 84 81 63 69 82 82 82 82 86 89 90
59 60 59 59 59 58 57 57 64 62 66 76 79 75 83 84 92 96 99 98 91 91 89 89 87 80 82 80 70 75 77 77 79 85 83 77 71 72 78 79 80 81 84 88 89
59 59 59 59 58 57 60 73 71 70 76 78 82 81 88 94 97 93 96 93 91 87 77 84 75 72 78 83 84 85 84 71 75 76 82 78 71 75 79 81 77 80 81 87 89
59 59 59 58 57 56 62 73 84 87 75 84 85 88 93 95 83 89 96 84 82 75 81 78 71 83 86 86 84 83 81 79 78 80 68 74 71 74 79 79 76 80 81 85 89
59 59 58 57 56 59 76 86 93 93 75 81 88 85 88 91 83 84 90 86 80 77 78 75 80 86 85 83 81 82 81 77 75 72 65 63 65 61 75 77 72 70 73 84 88
59 58 57 55 56 85 84 93 96 94 67 75 81 85 89 88 80 93 93 87 82 76 79 79 87 84 82 81 84 78 88 79 80 74 61 66 59 65 72 72 71 71 72 72 86
58 57 56 54 70 83 89 96 95 88 52 77 81 95 90 81 84 85 94 87 78 78 80 76 80 81 79 82 87 81 90 82 85 81 80 80 72 65 68 65 67 65 70 72 76
57 56 55 67 71 85 96 95 89 64 52 72 81 79 78 81 81 87 85 89 88 81 82 81 90 87 84 88 89 90 86 85 84 81 69 77 75 62 64 61 69 72 70 66 70
55 54 56 77 81 96 95 86 64 56 69 68 73 78 76 75 77 81 77 74 72 66 69 78 80 87 89 82 87 85 79 68 65 66 66 82 77 64 64 68 68 75 70 67 67
53 53 64 80 91 94 88 73 51 59 56 75 75 77 71 76 76 78 74 71 77 77 73 68 66 81 86 82 79 80 79 70 58 62 68 80 70 64 68 70 80 85 77 74 77
52 77 81 88 90 93 78 55 52 57 72 70 72 67 69 74 76 75 73 72 77 80 69 70 69 85 87 88 86 79 74 85 76 78 71 71 69 75 75 72 74 75 77 77 76
72 85 86 97 97 88 64 44 52 71 74 74 62 67 60 65 66 71 71 75 73 75 82 76 67 81 85 88 87 80 86 72 75 60 61 66 64 66 70 66 67 67 67 67 67
75 77 93 99 95 74 46 51 67 76 76 70 66 64 62 59 61 63 61 73 74 73 81 78 70 70 80 75 74 76 74 78 79 76 66 60 58 76 70 68 64 63 65 65 65
81 72 94 97 75 72 63 59 62 73 75 72 71 66 64 67 58 56 52 58 77 76 72 78 71 59 71 82 85 83 78 78 69 66 74 59 57 75 72 67 66 63 64 67 67
75 83 95 92 66 50 61 73 74 72 71 70 66 70 69 62 59 61 61 73 76 74 69 70 69 58 66 75 81 75 79 81 81 80 68 55 59 75 69 64 65 64 65 67 68
75 74 83 87 83 71 68 69 67 74 72 73 69 70 66 64 65 59 64 72 76 76 66 71 72 55 56 66 74 70 75 79 78 70 72 64 62 67 66 64 66 65 66 67 68
77 76 78 70 73 74 73 70 67 67 73 74 69 68 66 59 65 65 69 70 74 73 76 75 65 68 66 75 77 75 75 76 73 74 58 63 64 66 68 69 70 71 71 70 70
73 75 82 75 74 73 63 68 67 68 69 68 67 71 69 63 65 63 69 68 67 72 72 75 64 70 67 73 73 73 76 76 76 76 70 71 64 74 72 74 73 72 71 70 71
82 86 79 65 74 72 69 68 67 69 69 72 70 70 66 65 71 72 76 75 71 69 66 66 64 64 61 69 68 63 70 71 74 77 69 60 64 73 71 71 71 71 71 70 71

GFSSW_sfc_temp_087.txt.gz
Temp
62 62 62 62 62 62 63 63 63 63 63 63 63 62 63 62 62 64 66 80 79 80 80 85 85 85 85 81 83 78 63 60 66 66 65 76 72 75 82 82 84 86 83 84 86
62 62 62 61 62 62 62 62 62 62 62 62 62 62 63 63 63 66 79 82 82 81 82 81 79 83 77 80 80 67 62 62 72 75 71 74 74 72 75 75 79 82 87 88 87
61 62 61 61 62 62 62 62 62 62 62 62 62 62 62 62 63 75 82 82 81 81 86 87 87 83 76 82 75 68 66 76 73 79 80 75 72 77 76 75 79 78 82 83 83
61 61 61 61 61 61 62 62 61 61 61 61 62 62 63 62 62 83 81 82 81 85 85 84 83 79 77 76 77 66 76 77 79 80 77 74 77 74 74 73 84 86 86 82 81
61 61 61 61 61 61 61 61 61 60 61 61 62 62 61 60 68 83 81 81 83 82 82 79 77 80 76 80 75 71 72 79 82 78 78 77 75 72 68 75 84 88 87 80 83
61 61 61 60 61 61 61 61 60 60 60 61 62 62 57 58 89 84 84 81 84 81 81 82 80 86 84 83 78 77 79 80 80 76 80 75 74 75 70 74 76 85 82 83 84
60 60 60 60 61 61 60 60 60 60 60 62 63 66 63 67 88 86 85 78 82 83 79 86 87 83 88 81 84 77 74 81 80 76 77 72 65 70 73 75 76 84 84 84 87
60 60 60 60 60 60 59 59 59 60 61 64 64 64 59 86 88 88 86 83 85 85 86 89 90 84 81 86 86 79 73 65 77 78 76 75 59 72 75 74 77 83 84 84 86
60 60 60 60 59 59 57 58 59 61 64 64 58 58 64 86 84 88 88 83 83 84 87 93 87 77 80 71 71 74 62 68 74 82 78 73 60 68 72 78 77 81 84 84 85
60 59 59 59 59 58 57 57 60 60 62 71 73 60 71 79 85 89 89 89 83 83 82 81 74 67 67 61 55 63 65 68 69 77 76 66 64 68 74 72 78 79 82 84 84
59 59 59 59 57 56 57 62 58 58 66 64 67 73 81 86 91 85 90 87 85 78 66 73 61 57 65 70 73 74 72 67 72 69 72 64 65 67 72 75 74 78 80 83 82
59 59 59 58 57 56 54 62 71 75 64 75 75 79 85 86 79 84 90 77 75 66 72 66 59 70 77 76 75 74 72 70 71 68 65 57 62 69 73 73 75 77 78 82 82
59 58 58 57 56 54 62 71 82 81 63 73 79 77 80 82 79 78 82 79 72 68 70 63 69 78 76 74 73 72 71 69 70 67 64 58 57 63 71 73 70 71 77 77 82
58 58 57 55 54 70 71 77 80 82 53 65 70 79 82 82 74 88 87 80 75 68 71 68 77 76 74 72 74 63 78 80 67 66 56 66 51 58 64 68 69 70 72 72 76
57 58 56 55 53 66 80 84 84 74 41 75 75 89 81 72 75 79 89 80 71 71 69 66 71 71 72 74 78 72 79 75 76 67 64 61 54 57 62 63 65 66 70 69 73
57 56 56 57 56 66 78 81 77 52 46 67 77 74 71 73 76 80 80 81 80 73 72 72 81 77 75 81 81 83 78 73 72 64 50 66 57 55 59 63 67 67 70 71 71
55 54 54 67 68 83 85 73 51 46 65 63 64 71 70 68 71 72 72 67 62 53 57 69 72 78 82 71 77 75 63 55 52 55 54 64 58 54 63 70 69 68 70 69 69
54 53 57 67 77 82 78 60 45 58 56 66 67 68 64 69 69 71 69 62 69 66 58 56 55 72 80 72 67 67 63 53 49 50 54 64 50 54 69 70 71 70 71 70 68
52 62 66 77 75 75 64 49 48 56 66 63 66 61 61 67 67 67 67 65 69 70 56 55 59 77 80 79 73 66 62 69 58 63 54 53 57 63 67 67 70 68 68 68 68
55 68 75 87 87 74 58 44 54 66 68 67 57 61 51 56 56 53 61 68 70 73 65 61 52 70 79 79 78 71 70 60 56 47 46 51 51 53 60 58 62 62 64 65 68
61 65 81 88 86 65 46 51 59 68 68 65 61 58 55 55 55 50 52 61 68 71 70 66 55 59 72 68 67 64 59 58 61 58 50 46 51 61 59 61 59 61 63 64 64
70 61 84 87 63 57 48 58 59 69 71 68 66 63 55 54 56 53 52 54 65 67 61 64 54 50 59 72 77 70 65 61 51 52 55 53 49 63 60 62 62 62 64 64 64
62 69 84 82 57 51 57 60 65 68 66 66 62 64 65 55 50 56 58 63 65 68 56 62 50 46 53 65 70 62 66 60 62 59 57 53 49 61 62 62 62 62 64 64 63
63 61 71 73 71 61 57 61 64 73 70 70 67 65 61 58 60 55 58 68 73 72 67 66 55 53 46 51 55 59 67 68 58 51 52 55 51 57 59 59 61 62 64 65 64
66 64 67 59 64 64 64 65 66 64 70 68 62 65 60 50 54 57 61 66 71 70 69 61 49 56 60 62 64 64 67 70 60 58 53 55 54 58 60 61 62 64 65 65 64
63 62 70 64 67 66 59 60 63 64 63 62 62 65 62 53 54 54 59 58 58 66 62 62 52 58 55 63 66 65 70 72 68 66 61 61 55 64 66 66 66 67 67 66 67
70 71 67 62 66 64 60 63 65 66 66 68 66 60 59 61 65 64 65 64 60 55 55 58 53 51 45 62 63 56 65 66 65 68 62 52 56 66 64 65 65 64 65 64 66

GFSSW_sfc_temp_090.txt.gz
Temp
62 62 62 62 62 62 62 62 63 63 63 63 62 62 62 62 62 62 62 75 75 79 81 80 78 81 81 75 80 78 62 59 63 62 62 73 73 76 83 79 81 82 77 79 82
62 62 62 61 61 62 62 62 62 62 62 62 62 62 62 62 59 60 74 78 79 80 77 77 74 79 72 74 77 68 61 61 71 71 69 74 74 74 76 77 77 76 80 80 80
62 61 61 61 61 62 62 62 62 62 61 61 62 62 62 61 58 69 79 80 80 80 82 81 81 78 70 77 73 68 62 68 71 78 78 73 72 76 74 70 75 71 74 78 79
61 61 61 61 61 61 62 61 61 61 60 61 62 62 62 58 60 82 81 79 80 81 80 79 77 71 70 70 72 67 70 72 72 79 76 74 76 71 74 75 81 79 79 79 77
61 61 61 60 60 61 61 61 60 60 61 61 61 62 57 54 62 81 80 80 79 79 77 76 72 71 66 73 70 70 71 76 75 77 77 79 74 71 73 80 83 83 81 79 79
60 60 60 60 60 61 61 60 60 60 60 61 62 62 53 54 81 80 79 78 79 77 75 77 75 78 73 79 72 73 76 77 75 72 72 74 72 74 72 79 80 80 80 80 80
60 60 60 60 61 61 60 60 59 59 60 61 63 63 57 63 82 79 77 73 73 77 74 80 81 74 75 78 82 80 68 70 74 75 74 75 68 69 77 75 80 79 79 80 80
60 60 60 60 60 60 59 58 58 60 61 63 65 59 55 77 76 79 77 75 78 75 79 80 82 76 73 80 82 71 70 60 69 72 73 71 59 70 75 74 74 81 81 80 83
59 60 60 60 59 59 57 57 59 61 63 64 53 52 57 80 75 79 80 77 74 75 78 88 79 71 74 66 61 70 58 62 64 77 71 69 59 66 73 71 75 79 81 80 82
59 59 59 59 58 57 56 57 58 59 62 66 68 56 66 74 79 81 81 82 75 74 75 74 68 63 61 58 50 56 58 62 64 69 69 63 62 66 69 71 74 79 80 79 81
59 59 58 58 57 55 52 55 57 54 56 59 61 64 74 78 84 79 83 79 75 70 61 67 59 55 61 63 66 65 64 67 66 69 62 61 64 64 69 68 68 74 79 77 80
59 58 58 57 56 55 50 53 64 64 57 66 71 70 77 76 74 79 82 71 68 61 64 60 55 65 71 71 68 66 67 64 65 64 62 58 60 65 68 68 72 76 78 78 80
58 58 57 57 55 51 53 62 71 70 55 66 68 69 71 73 72 74 77 73 68 62 62 55 63 73 71 68 66 62 65 64 66 61 61 58 55 60 69 67 68 73 75 81 80
57 58 57 55 55 57 62 70 69 70 47 58 61 73 75 73 69 83 81 76 69 63 64 61 71 71 68 65 65 52 74 73 63 60 52 58 48 58 63 67 68 72 70 72 81
57 56 56 55 49 58 70 68 70 65 36 69 65 81 74 68 69 72 83 74 67 66 63 61 66 66 65 67 70 65 77 74 68 61 55 57 53 56 61 61 64 68 70 72 74
57 55 55 52 50 57 64 67 66 49 40 61 70 67 64 65 69 73 74 75 75 66 65 66 74 70 69 75 74 77 73 68 66 56 49 55 53 52 57 62 66 66 70 71 73
55 54 54 61 60 66 67 62 47 40 61 59 57 61 59 62 65 65 65 62 58 49 49 62 65 71 74 64 69 67 59 48 45 45 47 61 55 58 65 69 69 68 71 70 72
53 53 52 59 58 64 62 54 41 55 52 60 61 61 55 61 62 65 61 56 61 58 50 49 50 64 73 67 63 61 62 48 42 44 54 58 49 56 68 71 73 73 73 72 72
52 49 52 61 61 62 57 43 42 49 61 59 58 52 51 57 55 55 53 57 63 61 52 48 52 70 73 74 70 62 54 62 53 58 50 52 55 62 64 64 66 65 69 69 71
49 55 61 71 71 62 50 43 48 61 62 59 46 53 45 50 49 49 51 61 59 64 60 56 49 60 71 72 72 66 68 53 51 48 44 48 49 50 56 59 62 62 61 63 68
53 57 68 74 69 55 44 44 56 62 63 56 52 50 46 47 49 45 50 62 65 61 60 53 51 55 62 58 61 59 56 54 56 50 48 45 48 59 56 59 59 61 62 63 64
53 53 71 72 54 44 43 50 57 61 63 61 58 53 49 51 47 50 52 58 64 62 54 55 47 44 54 66 70 63 60 57 50 50 48 50 49 61 59 60 61 61 62 63 63
52 54 69 70 46 44 48 58 61 59 59 59 57 58 54 50 44 55 56 65 64 62 53 56 46 40 49 56 61 59 60 54 53 52 50 49 48 60 60 60 61 61 62 62 63
52 52 61 61 54 50 49 53 58 68 62 68 63 58 55 50 52 51 54 65 68 66 66 59 45 43 38 46 54 57 61 59 53 48 48 47 52 55 58 59 61 62 62 62 62
54 53 56 52 54 50 50 54 58 57 62 61 57 61 55 47 51 53 58 59 67 66 61 54 43 46 51 57 60 59 58 62 54 53 50 52 52 55 59 58 61 63 63 62 61
54 53 55 51 53 56 50 50 57 57 56 55 56 59 55 50 49 48 53 55 55 57 54 54 47 48 48 58 59 59 64 65 63 62 55 55 53 60 60 61 62 64 64 62 61
57 58 56 51 51 52 48 53 57 59 59 61 60 57 54 59 61 58 57 58 58 57 53 53 47 46 42 51 53 49 55 60 65 62 57 51 54 59 59 61 62 64 64 63 63

GFSSW_sfc_temp_093.txt.gz
Temp
62 62 62 61 61 62 62 62 62 62 62 62 62 62 62 62 61 60 60 74 72 78 80 76 76 77 78 72 78 75 60 58 62 60 64 74 71 77 79 74 77 78 75 75 77
62 62 61 61 61 61 62 62 62 62 62 62 62 62 62 62 57 57 72 77 78 79 77 73 71 75 69 71 75 66 60 61 69 67 66 72 73 73 71 72 70 73 76 77 75
61 61 61 61 61 61 61 61 61 61 61 61 61 62 62 61 56 68 79 78 78 79 78 79 78 76 68 73 70 67 62 68 70 72 74 73 70 78 71 66 70 69 71 73 74
61 61 61 61 61 61 61 61 61 60 60 61 61 61 62 56 56 78 80 78 79 78 77 76 75 69 62 64 71 66 67 67 73 73 74 72 74 74 74 72 77 76 75 74 73
61 61 60 60 60 60 61 61 60 60 60 61 61 62 56 53 62 79 79 79 77 75 73 73 70 67 63 67 69 67 71 74 72 74 75 76 73 72 71 76 77 77 76 74 74
60 60 61 60 60 60 61 61 60 60 60 61 61 62 52 53 77 78 76 74 74 73 72 74 73 74 69 69 69 74 71 71 71 70 72 72 69 72 72 77 76 76 74 75 76
60 60 60 61 60 60 60 60 59 59 60 61 62 62 54 62 78 77 74 69 71 74 69 75 79 73 71 69 77 77 68 69 68 68 72 73 66 65 75 77 74 75 76 76 77
60 60 60 60 60 59 59 58 58 59 60 62 64 56 54 74 73 76 74 71 73 68 72 76 81 73 70 74 75 71 68 61 70 73 72 69 58 70 73 75 74 76 77 76 76
59 59 59 59 59 58 57 57 58 60 62 64 53 50 57 76 71 75 75 72 70 70 72 86 78 69 69 63 59 67 59 60 64 70 71 67 59 67 72 73 74 76 77 76 77
59 59 59 59 58 57 55 57 59 59 61 65 65 53 64 71 74 76 74 78 72 72 71 71 66 60 58 56 49 55 59 62 63 68 69 62 61 66 70 70 73 76 77 76 77
59 59 58 58 57 56 52 53 55 53 54 59 60 64 70 76 79 74 77 75 71 67 59 63 57 53 59 62 64 63 66 65 64 65 62 60 61 65 68 68 69 74 75 76 76
58 58 58 57 56 55 51 53 59 62 54 63 65 66 72 72 68 73 79 68 64 57 61 57 52 63 67 67 66 62 65 58 61 64 62 59 59 64 66 67 67 73 75 77 76
58 57 57 56 56 51 52 59 65 60 51 62 64 65 67 70 67 68 75 69 63 58 58 54 60 69 68 64 63 57 63 62 57 60 63 59 55 58 66 68 68 70 73 79 75
57 57 57 54 54 54 60 63 65 64 46 57 59 68 70 71 65 78 77 72 64 61 61 58 67 67 62 62 62 48 69 71 61 55 51 61 48 57 62 64 66 68 70 77 76
57 56 55 55 49 59 69 63 62 64 38 66 63 76 66 66 66 69 78 72 64 62 61 58 61 61 61 63 66 61 71 71 63 54 51 54 50 56 61 61 62 64 70 72 78
57 55 55 52 51 57 61 62 64 49 41 59 66 63 61 63 66 70 71 74 72 64 61 63 68 66 65 70 70 70 70 63 57 52 45 52 52 53 56 62 64 67 70 70 74
55 54 53 59 61 62 62 61 47 39 59 56 56 59 57 59 62 62 63 58 56 49 47 58 61 65 70 60 63 62 53 49 42 43 45 56 52 58 63 68 68 68 69 70 70
53 52 51 57 56 63 60 53 39 52 50 57 59 57 53 55 55 59 57 54 58 56 48 47 48 62 68 64 59 56 55 46 41 40 46 54 48 57 63 70 72 72 70 69 67
52 48 50 55 56 57 57 42 43 47 57 55 54 50 50 53 53 54 51 51 56 53 50 45 50 64 68 69 67 56 52 60 53 44 46 48 52 59 64 63 65 66 69 68 69
48 53 58 63 63 60 51 43 45 56 58 55 46 49 43 48 49 48 50 57 56 60 54 50 47 56 67 66 65 63 63 52 47 41 40 45 46 50 55 58 60 60 61 63 66
52 59 66 63 64 55 44 43 52 60 61 53 49 47 45 46 46 43 48 58 60 60 59 48 48 53 58 55 55 56 53 50 51 47 43 43 46 56 57 61 59 60 62 62 64
50 55 66 65 54 42 43 48 55 56 59 57 54 51 49 50 45 45 49 54 62 59 54 51 45 43 52 63 62 60 58 54 48 45 45 49 46 61 59 59 60 61 62 63 64
49 51 66 66 48 43 46 54 57 56 56 56 54 54 52 48 42 50 52 62 63 60 53 52 44 40 48 52 57 53 56 47 50 48 46 46 46 59 59 57 60 60 61 62 63
51 52 56 55 49 48 45 51 54 64 60 60 57 56 51 47 46 47 50 61 64 64 65 59 42 42 39 43 49 48 55 57 49 46 45 46 51 54 57 59 61 61 62 62 62
51 49 52 48 51 46 46 52 55 53 59 58 56 54 53 45 49 48 53 55 61 63 60 54 44 44 46 51 53 53 55 57 53 51 50 49 52 56 56 59 61 61 62 61 61
52 50 51 47 48 51 47 48 53 53 53 53 52 56 56 47 47 47 50 50 50 56 53 51 44 45 47 54 53 53 56 57 59 55 53 54 54 60 59 62 61 60 61 60 60
53 53 54 48 48 47 46 50 54 55 55 57 57 53 52 57 60 57 56 53 53 53 49 48 44 41 39 48 49 46 52 53 57 56 56 49 53 56 57 60 61 61 59 60 61

GFSSW_sfc_temp_096.txt.gz
Temp
62 62 62 61 61 61 61 62 62 62 62 62 62 62 62 62 61 57 58 72 71 78 78 74 75 75 76 71 77 73 60 58 60 61 65 72 68 74 76 72 75 76 71 71 72
62 62 61 61 61 61 61 61 62 61 61 61 61 62 62 62 55 55 70 77 78 79 73 71 68 73 67 72 74 66 59 62 66 67 68 71 71 70 69 69 68 67 71 72 73
62 61 61 61 61 61 61 61 61 61 61 61 61 61 62 59 54 67 78 78 78 79 76 76 75 74 66 68 69 67 62 67 66 68 71 72 70 75 68 64 68 64 67 70 70
61 61 61 61 61 61 61 61 60 61 60 60 61 62 62 54 55 73 78 78 79 76 76 74 72 64 61 64 69 63 68 69 68 72 74 71 74 71 72 69 73 72 71 71 70
61 61 61 61 61 61 61 61 61 60 60 60 61 62 55 52 61 76 79 78 74 73 72 71 68 63 60 63 65 66 69 70 72 73 73 75 73 71 70 73 74 74 72 71 71
61 61 61 60 60 60 61 61 60 60 60 60 61 62 50 54 73 75 74 72 72 71 68 70 69 69 67 66 65 73 72 68 68 70 73 70 68 72 71 74 72 72 71 72 72
60 60 60 60 60 60 60 59 59 59 59 60 61 61 53 62 74 74 70 66 69 72 67 72 75 70 69 66 73 74 66 67 67 69 68 70 62 67 69 73 70 71 71 72 73
60 60 60 59 60 59 59 58 58 59 60 61 64 54 54 71 71 74 70 70 72 69 72 74 76 70 67 72 71 66 66 59 65 65 66 65 57 65 67 72 70 71 72 72 73
60 59 59 59 58 58 57 56 58 60 61 64 51 48 56 74 69 72 72 70 68 67 69 84 73 67 69 61 57 60 55 60 62 72 66 64 58 66 70 72 70 70 72 72 72
59 59 59 58 58 57 55 57 61 60 61 64 63 51 63 68 70 72 71 74 69 67 68 67 63 59 58 55 48 54 59 61 61 66 68 64 60 65 68 71 71 72 72 72 72
59 58 58 58 57 56 51 51 54 52 53 58 57 61 68 74 75 69 72 72 69 63 54 60 55 52 58 60 62 59 64 62 60 63 62 61 60 63 67 67 67 69 72 72 72
58 58 58 57 56 55 51 54 57 60 52 60 62 63 68 68 66 69 75 65 62 54 58 56 52 61 65 64 63 60 59 57 61 64 61 59 58 65 67 67 68 68 71 72 73
58 57 57 56 56 51 50 58 64 59 49 60 60 61 64 68 65 67 71 66 59 56 55 53 58 67 65 62 61 55 57 57 57 60 63 58 55 58 66 67 69 70 70 71 73
57 57 56 54 54 54 58 64 64 62 47 57 57 66 66 66 62 74 74 70 61 57 59 56 64 65 63 60 60 49 66 68 59 54 49 57 46 57 61 63 66 68 69 70 73
57 56 55 55 50 58 65 62 61 60 37 63 61 71 64 61 63 65 74 70 61 60 59 56 60 59 58 61 64 58 70 67 60 52 50 52 50 56 60 58 62 65 69 71 74
56 56 55 50 48 57 61 59 62 48 39 57 63 60 59 62 64 67 69 71 69 62 58 61 65 64 64 66 67 68 68 60 56 49 44 52 52 51 55 60 63 66 69 71 72
55 54 53 56 58 59 62 62 47 39 57 55 54 56 53 54 60 61 61 56 54 48 45 56 58 62 66 57 60 60 60 47 44 43 43 48 50 55 61 66 67 66 68 70 71
53 51 51 55 53 58 62 54 38 50 48 57 57 55 52 54 52 56 55 53 55 54 46 47 46 59 64 61 56 55 55 46 38 39 44 51 47 55 63 67 72 71 71 71 70
51 47 47 53 54 55 57 41 41 46 54 54 53 49 49 52 51 51 49 50 53 53 49 44 48 61 65 65 64 53 50 56 47 43 44 46 52 60 63 63 67 67 67 67 70
47 51 56 58 58 58 50 42 45 54 55 53 44 47 44 48 48 46 46 54 56 58 53 50 45 54 64 64 61 59 61 50 45 38 38 44 47 50 56 58 61 64 65 66 68
51 57 62 59 59 55 44 42 50 57 57 52 47 45 44 44 45 43 46 54 58 57 56 48 47 51 56 52 53 54 50 48 48 45 41 40 45 55 56 60 60 61 63 63 66
50 54 61 61 54 40 42 46 53 54 56 54 52 49 46 48 43 44 47 51 60 56 51 49 45 42 52 56 59 55 50 51 46 44 43 46 46 61 62 62 62 61 62 64 64
50 49 61 62 47 42 45 52 54 54 52 53 51 52 50 45 41 47 50 60 61 55 54 54 42 39 46 50 54 51 51 46 46 45 44 47 47 61 61 60 62 61 62 63 64
52 51 54 52 46 46 43 48 51 60 56 56 54 53 48 45 44 46 48 59 61 59 65 57 42 43 40 42 47 47 52 52 47 44 45 47 48 55 58 59 60 60 62 63 63
50 48 48 47 49 45 45 49 52 51 56 55 51 52 47 40 44 45 49 52 58 61 55 52 44 46 46 50 50 50 52 53 48 49 50 51 50 54 59 60 61 62 62 61 62
51 50 47 44 46 46 46 45 50 51 51 51 50 55 50 45 47 44 46 45 47 52 47 48 43 46 46 51 51 51 54 54 54 53 51 50 49 56 63 62 60 62 62 61 62
49 50 52 46 45 46 45 47 52 52 53 54 53 51 50 53 56 52 54 51 51 48 47 45 44 41 40 47 49 44 50 50 51 56 53 49 53 57 57 58 58 58 61 61 61

GFSSW_sfc_temp_099.txt.gz
Temp
62 62 62 62 62 61 61 62 62 62 62 62 62 62 62 62 61 62 67 80 77 78 80 81 80 81 80 77 78 71 63 62 65 61 68 76 73 77 81 77 78 79 79 79 77
62 62 62 62 61 61 62 61 61 61 61 61 61 62 62 62 60 63 77 76 78 78 81 79 75 78 75 74 75 69 65 63 68 68 72 76 75 75 75 74 71 72 76 78 78
61 62 61 61 61 61 61 61 61 61 61 60 60 62 62 63 63 77 79 77 78 80 83 84 82 79 73 76 74 70 66 68 70 72 77 75 74 78 75 71 73 70 73 76 77
61 61 61 61 61 61 61 61 61 61 61 60 60 62 62 61 68 79 77 78 79 84 83 81 79 72 70 70 74 67 71 71 68 72 75 74 78 74 76 75 80 78 78 77 77
61 61 61 61 61 61 61 61 61 61 60 61 61 62 62 65 72 82 79 79 81 82 81 79 75 72 67 71 71 69 72 72 70 73 73 78 75 74 74 77 79 79 78 78 80
61 60 60 60 60 60 60 60 60 60 60 61 62 62 62 65 80 79 79 78 80 81 80 82 77 77 74 72 70 75 73 70 71 72 68 72 72 78 74 79 77 77 78 79 80
60 60 60 60 60 60 59 59 59 59 59 60 62 63 63 72 80 80 80 79 80 81 78 81 83 78 77 73 77 77 67 71 69 71 66 68 64 66 75 79 76 77 78 79 81
60 60 60 59 59 59 58 57 58 59 60 61 63 62 66 79 80 79 82 78 82 83 82 84 85 80 77 80 77 72 72 63 67 70 67 66 58 66 72 76 75 77 77 78 79
59 60 59 59 58 58 57 56 57 60 61 64 62 61 69 77 76 81 83 79 79 81 82 86 82 77 78 73 71 69 61 65 61 67 64 63 57 65 69 75 75 76 77 78 79
59 59 59 58 58 57 55 57 61 62 63 66 65 61 72 74 78 79 81 82 77 78 77 77 77 72 73 73 64 63 62 66 61 63 64 59 60 64 67 69 73 72 77 78 79
59 58 58 58 57 56 56 62 64 64 62 68 69 67 73 80 82 77 82 80 78 75 68 72 68 65 68 73 73 71 67 65 65 66 62 61 64 64 70 69 67 73 76 77 79
58 58 58 57 57 56 55 67 71 72 64 67 66 68 73 77 72 75 82 74 72 67 69 68 65 71 73 71 72 71 68 62 64 64 65 60 60 69 70 71 68 70 75 76 77
58 57 57 56 56 55 61 68 72 73 63 68 68 69 73 76 73 72 79 75 70 66 67 67 70 73 72 69 70 70 68 66 63 63 65 62 56 58 70 70 71 70 75 79 76
58 57 56 54 58 63 66 72 72 71 61 64 69 73 74 75 72 80 83 78 71 67 68 69 72 71 68 66 70 64 73 69 64 65 58 66 56 60 64 67 67 67 70 79 81
57 56 55 54 59 65 71 70 69 69 47 67 70 80 76 73 75 73 81 79 69 68 69 66 68 68 66 70 70 67 72 67 68 61 62 60 58 61 67 63 65 68 72 78 82
57 56 55 55 56 67 68 69 70 59 45 61 69 66 69 71 72 75 76 81 77 70 70 70 75 74 74 72 74 75 67 68 64 63 55 64 64 63 62 66 68 69 71 76 81
55 53 54 60 70 66 68 71 58 49 62 58 60 64 63 63 67 70 69 69 66 60 61 66 68 74 75 70 71 71 66 54 50 54 57 62 61 69 70 72 72 71 72 74 80
53 52 54 60 63 64 73 66 48 55 56 63 62 63 59 61 62 65 67 65 66 68 63 59 57 69 74 72 69 69 68 62 48 52 59 61 59 69 72 74 77 76 77 76 78
52 59 61 66 62 64 71 54 53 56 61 60 61 59 59 61 61 62 62 66 68 70 62 59 59 70 73 75 75 66 64 73 63 62 61 61 64 69 70 71 75 76 76 75 75
59 66 68 66 66 73 65 50 57 61 63 62 56 58 55 57 59 60 60 64 64 67 69 64 58 67 71 74 72 72 76 63 64 52 52 59 59 67 64 66 72 74 75 75 76
64 70 70 69 70 69 57 56 59 65 64 63 59 58 56 56 56 56 58 63 66 65 67 68 65 64 68 68 68 68 67 66 69 65 59 57 61 67 67 65 70 72 75 74 75
66 67 71 70 66 56 58 58 54 64 65 64 64 61 59 57 57 56 55 60 66 66 64 65 66 59 64 68 69 70 69 70 63 57 63 64 64 67 68 68 68 70 71 74 75
64 66 72 71 62 59 59 61 62 64 63 64 63 63 62 59 55 57 59 66 66 66 64 65 60 56 59 65 67 65 65 66 65 66 62 61 65 65 66 64 67 65 67 69 70
65 64 68 65 61 63 60 60 61 66 64 64 63 64 61 59 59 57 59 65 67 67 64 66 60 59 56 59 62 61 62 64 65 64 65 66 66 59 62 62 63 65 67 69 70
63 60 60 62 62 60 61 60 60 59 64 65 61 61 59 57 58 57 60 63 66 65 65 66 57 58 59 61 60 60 60 61 61 66 64 69 67 68 65 64 64 64 64 66 65
64 63 60 59 58 61 55 59 60 61 62 60 59 61 61 58 59 58 60 61 59 66 64 63 57 57 56 60 60 59 61 63 62 64 64 65 67 70 69 66 63 63 63 63 64
61 62 66 52 59 62 61 60 61 62 63 64 61 60 59 61 65 66 66 64 63 61 60 60 59 55 53 56 58 55 59 60 60 63 64 62 67 70 63 62 63 62 64 63 64

GFSSW_sfc_temp_102.txt.gz
Temp
62 62 62 62 62 62 62 62 62 62 62 62 62 62 62 62 62 74 77 84 84 78 79 90 89 89 90 80 81 73 65 66 73 73 74 83 79 84 88 83 86 86 88 86 85
62 62 62 62 61 61 62 61 62 62 62 62 61 61 62 62 73 77 84 78 79 78 89 86 85 87 84 81 79 73 66 69 77 75 80 83 82 83 83 81 81 84 87 86 88
62 61 61 61 61 62 61 62 61 61 62 62 61 61 62 66 74 85 79 78 78 81 94 93 91 87 82 79 82 76 69 77 70 76 86 83 81 85 83 78 81 79 81 85 86
62 62 61 61 61 61 61 61 61 61 61 61 61 62 62 74 74 86 78 77 79 91 92 89 87 82 79 77 82 70 76 76 75 80 84 81 85 81 83 84 87 87 87 86 86
61 61 61 61 61 61 61 61 61 61 61 61 62 62 69 74 81 90 79 80 87 90 88 87 84 82 77 80 79 75 76 74 75 78 84 85 81 80 80 86 88 88 87 87 88
61 61 60 60 61 61 61 61 60 60 60 61 62 62 72 73 89 89 89 88 90 90 89 90 87 87 82 80 78 80 78 76 70 73 76 81 82 83 81 86 85 86 87 88 89
60 61 60 60 60 60 60 59 59 59 59 61 62 70 72 80 88 89 91 91 93 93 88 93 91 86 86 80 83 81 71 71 73 76 66 78 75 77 83 86 83 85 87 88 90
60 60 60 60 60 59 58 57 58 59 60 62 63 74 76 87 91 88 90 88 92 93 93 93 92 88 85 87 81 72 75 65 71 73 67 67 66 73 84 84 83 85 86 87 89
60 60 60 59 59 58 57 57 58 59 62 64 71 74 77 80 83 90 93 86 90 91 91 91 89 84 85 80 78 72 66 65 64 67 62 62 62 67 81 84 83 85 86 86 87
59 59 59 59 58 57 56 58 59 62 67 74 75 71 81 80 85 88 91 91 86 86 84 84 84 79 82 80 69 73 67 66 67 63 60 58 58 63 73 81 83 85 86 86 87
59 58 59 58 58 56 63 74 73 71 74 76 78 76 81 87 90 86 89 87 86 83 77 82 77 73 78 81 81 79 71 62 61 62 60 59 61 64 68 71 78 84 85 86 88
58 58 58 57 57 57 67 78 79 80 73 79 77 78 83 85 78 83 91 81 79 75 81 76 73 82 81 80 79 79 73 61 61 64 65 59 60 64 69 67 74 82 85 87 89
58 58 57 56 56 61 77 79 85 83 74 76 79 79 82 84 81 80 86 83 78 76 76 76 80 83 78 76 76 78 75 71 64 67 67 63 56 60 70 68 69 72 86 89 89
58 58 57 55 59 82 79 83 85 81 70 70 76 79 82 84 77 89 90 84 78 75 77 77 81 78 77 73 76 71 79 77 70 66 62 72 53 58 65 67 68 70 76 87 88
57 57 56 53 74 79 82 85 85 79 55 72 75 87 85 79 81 80 91 84 76 76 77 74 76 76 74 75 78 70 80 75 76 75 72 69 66 70 67 67 71 75 80 81 90
57 55 55 63 73 83 85 85 81 65 50 66 75 74 76 79 79 82 81 87 85 77 79 77 84 82 81 81 80 76 73 74 74 73 65 73 72 64 65 70 74 74 75 78 84
55 53 57 75 82 84 84 81 66 60 69 64 67 73 74 72 74 77 74 74 72 66 67 73 76 81 83 77 80 77 65 59 55 61 63 74 71 75 77 80 82 79 75 81 82
52 52 59 75 81 80 82 74 56 61 64 71 70 73 69 71 72 74 74 71 75 76 72 66 63 76 81 79 75 76 68 58 55 54 66 72 67 76 84 86 88 88 84 82 82
52 78 82 85 81 80 79 68 62 64 68 68 70 67 67 70 71 72 73 73 76 78 69 68 67 79 80 83 81 76 70 79 66 74 68 72 76 80 81 81 83 86 86 81 80
81 87 83 82 84 83 77 58 66 71 71 72 63 67 63 67 68 69 70 74 73 77 81 73 65 76 79 82 82 79 83 71 72 60 58 69 70 77 74 77 81 83 83 80 78
81 81 84 86 84 82 67 66 69 74 73 70 67 66 66 65 67 68 67 72 74 75 78 78 73 70 76 74 74 74 74 76 78 74 65 63 69 79 78 80 81 84 86 83 78
84 76 87 87 77 78 71 70 57 73 75 73 73 70 67 67 67 66 65 69 73 76 72 78 75 67 71 79 80 80 77 78 68 65 72 72 74 79 77 78 80 84 86 85 83
83 81 89 84 71 70 71 71 72 72 72 71 69 72 71 67 62 66 67 72 73 74 72 76 70 63 66 73 77 74 77 78 80 79 69 66 71 78 77 75 75 79 82 82 81
80 74 80 85 81 73 69 68 68 73 72 72 71 73 69 67 70 65 67 71 74 74 65 71 73 67 64 66 74 70 72 75 76 69 70 73 75 75 74 75 74 73 74 77 77
80 75 73 73 74 74 73 70 67 66 72 74 69 68 67 64 66 65 68 71 73 66 72 74 66 69 71 71 71 71 71 72 71 74 70 75 76 81 81 77 76 73 71 72 74
77 78 79 75 71 72 63 68 66 68 69 67 66 68 69 65 66 64 68 70 69 73 72 74 65 67 65 68 69 67 70 71 73 74 75 76 77 84 84 80 75 72 71 69 71
78 79 76 60 72 72 71 69 67 70 70 71 68 67 67 68 72 74 75 75 74 71 68 68 68 63 60 68 67 62 70 70 71 73 74 72 78 80 76 75 73 72 71 70 70

GFSSW_sfc_temp_105.txt.gz
Temp
63 63 63 63 63 63 63 63 63 63 63 63 62 62 62 63 62 75 82 87 88 79 77 96 95 95 95 80 82 76 63 70 74 74 75 85 81 87 88 88 90 93 90 92 96
63 63 63 63 63 63 63 63 62 63 63 62 62 62 62 63 76 83 85 80 80 80 89 91 89 92 89 84 85 76 66 72 81 84 82 87 86 86 86 86 86 89 93 93 95
62 62 62 63 63 63 63 62 62 62 62 62 62 62 62 67 78 88 80 79 79 82 97 98 96 92 83 84 82 80 70 72 82 82 88 87 86 92 88 83 87 83 85 90 92
62 62 62 62 62 62 62 62 62 62 62 62 62 62 63 75 76 90 79 79 79 92 96 95 93 87 81 78 85 73 79 79 81 81 85 86 90 84 89 88 92 90 91 91 91
61 61 61 61 62 61 62 62 61 61 61 61 62 63 71 79 85 92 79 80 89 91 93 92 89 88 79 81 85 78 77 79 80 82 84 88 86 85 85 91 94 93 92 91 93
61 61 61 61 61 61 61 61 60 60 61 61 62 62 75 76 96 97 93 90 94 93 94 95 92 94 82 80 81 80 80 77 78 83 85 84 84 87 87 91 90 90 91 93 93
61 61 61 61 61 61 61 60 60 60 60 61 63 71 79 84 96 97 96 94 97 96 93 98 99 92 88 84 90 80 75 77 71 74 77 75 78 78 88 91 88 89 91 92 94
60 60 61 61 60 60 59 58 58 59 60 61 63 76 80 95 98 95 98 97 99 101 100 101 98 93 91 92 80 75 71 64 69 69 75 77 66 79 88 88 87 89 91 91 93
60 60 60 60 60 59 57 57 58 60 62 64 71 78 82 83 89 96 97 92 95 97 98 97 95 89 90 83 74 64 60 63 61 66 67 69 67 81 89 88 87 89 90 91 92
60 59 59 59 58 58 57 57 60 61 67 79 82 77 86 85 93 95 99 96 91 91 88 88 88 83 85 81 67 58 59 64 60 61 63 60 62 74 87 86 83 86 89 87 89
59 59 59 58 58 57 61 76 74 74 82 81 83 82 85 92 95 91 95 93 92 87 80 85 80 77 83 83 81 65 60 62 61 63 61 60 61 65 74 81 76 80 85 85 86
59 59 58 57 57 57 66 83 85 87 78 86 85 85 90 93 83 89 96 85 83 78 84 81 77 87 85 81 83 81 71 61 59 64 65 59 59 62 67 77 76 79 81 86 86
59 58 57 56 56 63 84 87 94 92 78 81 86 85 86 89 84 85 91 88 82 79 81 79 84 89 84 80 80 82 64 62 59 61 63 62 55 58 64 70 74 74 78 90 88
58 58 57 56 59 91 86 93 94 91 72 74 80 84 87 89 82 93 94 89 84 79 82 82 90 85 81 80 83 74 77 68 61 65 56 66 49 57 62 63 66 74 77 81 91
58 57 56 53 75 86 90 96 95 89 55 76 80 92 90 83 86 85 95 89 80 81 82 79 82 81 78 81 85 77 84 65 65 69 70 63 61 61 63 61 62 68 77 81 79
57 56 55 67 79 91 95 95 89 68 54 72 81 78 79 84 83 87 86 91 90 83 83 83 90 86 85 87 85 85 79 78 78 73 66 69 73 64 63 67 69 72 74 76 84
56 54 58 82 87 97 94 87 69 61 75 70 74 79 79 76 79 81 78 77 76 70 71 79 79 87 89 81 84 82 77 65 63 67 66 73 72 71 76 77 77 78 78 81 87
53 52 64 86 94 93 89 77 61 68 71 77 77 77 73 77 77 79 77 75 82 81 78 71 68 80 86 84 78 78 79 67 55 60 69 77 68 70 85 86 88 88 85 86 87
52 80 90 95 94 92 80 68 67 71 75 74 76 72 72 76 76 76 77 77 81 82 73 73 72 85 86 87 87 79 74 84 73 59 60 68 77 74 88 85 87 89 87 85 87
81 92 92 95 95 88 77 61 71 78 78 78 66 72 66 72 72 73 75 81 78 83 86 77 70 81 83 86 87 83 87 74 76 59 57 68 69 71 75 81 85 89 89 87 88
81 86 94 99 95 82 73 71 75 80 80 76 72 70 72 70 71 73 69 76 80 80 83 81 77 74 81 77 77 78 77 79 81 77 67 65 68 79 78 84 85 88 91 89 83
89 80 97 97 79 84 76 76 63 79 81 78 78 76 72 72 72 71 69 72 80 83 75 81 78 70 74 84 87 86 80 80 72 68 76 75 62 86 87 88 89 89 90 90 84
84 86 98 94 75 76 77 76 78 77 77 76 74 76 76 73 67 72 73 79 79 79 76 79 74 66 69 78 81 78 81 83 84 81 72 70 70 85 85 84 86 88 90 89 86
85 78 86 90 88 80 74 73 73 78 76 77 75 78 74 72 75 70 72 78 79 81 70 75 76 71 59 65 72 73 77 81 80 74 74 77 78 80 82 81 83 85 88 88 85
87 83 83 78 79 78 78 75 71 71 77 78 74 73 72 67 70 69 73 76 78 69 75 79 69 71 72 73 76 74 76 78 75 77 73 78 79 85 85 84 82 82 81 82 79
81 84 85 81 77 77 67 73 71 73 73 72 70 74 74 69 70 64 73 74 72 79 76 80 67 66 65 74 74 72 75 75 77 78 78 80 80 90 88 87 83 77 74 74 74
90 90 84 67 77 77 75 73 72 74 75 76 73 73 73 74 77 79 81 81 78 74 72 72 69 67 61 72 72 65 73 76 77 80 80 74 82 84 84 83 82 77 72 72 75

GFSSW_sfc_temp_108.txt.gz
Temp
63 63 63 63 63 63 63 63 63 63 63 63 63 63 63 62 62 73 78 86 89 81 79 94 92 94 95 87 83 76 65 62 71 76 80 90 82 88 89 85 89 91 89 90 96
63 63 63 63 63 63 63 63 63 63 63 63 63 63 63 63 71 78 88 82 81 81 87 89 88 92 86 83 83 71 61 68 79 84 84 87 84 85 82 87 84 88 90 94 95
63 63 63 62 62 63 63 63 63 63 63 63 63 63 63 65 74 87 81 81 81 83 93 96 95 92 83 85 78 76 62 66 76 83 88 85 81 91 86 80 84 83 87 92 93
62 62 62 62 63 63 62 63 62 62 62 62 62 63 63 70 72 88 80 80 80 91 90 93 93 84 81 78 84 74 68 69 70 86 82 87 91 88 88 85 91 90 90 92 91
62 62 62 62 62 62 62 62 61 61 61 62 62 63 69 75 82 90 80 81 89 88 88 90 88 86 77 81 82 72 78 76 77 85 86 91 87 83 86 89 92 91 91 90 92
61 61 61 61 61 61 61 61 61 61 61 61 62 62 70 72 98 94 94 88 92 89 90 94 91 93 84 81 73 79 80 80 82 82 76 84 84 87 87 92 90 89 89 91 92
61 61 61 61 61 61 61 60 60 60 60 62 63 70 75 81 98 100 96 92 95 93 91 97 98 93 90 77 86 82 74 78 74 77 73 83 77 80 89 92 88 89 90 91 92
61 61 60 61 60 60 60 59 59 59 60 62 63 74 75 98 100 97 98 95 98 98 97 100 100 94 88 86 84 76 73 66 72 74 70 77 65 82 89 88 86 88 90 90 92
60 60 60 60 59 59 58 58 59 61 62 64 68 74 79 86 90 98 100 94 96 97 98 101 97 89 89 74 72 69 56 63 62 66 68 72 67 80 89 88 85 87 89 90 90
60 60 59 59 59 58 57 58 64 61 66 78 80 76 85 85 94 96 100 98 92 93 90 88 86 80 82 73 62 58 56 58 59 62 63 69 69 80 86 86 85 86 88 89 89
60 59 59 59 58 57 60 74 72 72 79 80 82 83 87 95 97 93 97 94 92 88 78 84 77 74 80 82 74 70 64 58 58 62 61 61 61 69 78 83 79 86 86 86 87
59 59 58 58 57 56 63 77 86 89 77 87 88 88 92 93 83 90 97 85 84 77 83 81 74 84 88 82 73 72 62 56 58 62 61 59 60 62 68 70 81 78 84 86 86
59 59 58 57 56 60 80 86 97 95 78 83 88 87 88 91 85 85 91 88 81 77 80 76 83 88 86 83 65 62 60 58 57 61 61 59 55 58 65 68 72 74 79 80 84
59 58 57 56 58 88 86 95 98 96 69 75 81 86 89 90 82 94 94 89 84 78 81 81 88 86 84 82 82 61 71 68 61 59 54 65 50 55 59 63 69 72 77 79 79
58 58 57 55 68 84 92 98 97 90 50 79 82 94 91 83 87 86 95 90 80 81 83 78 81 82 80 80 85 67 76 72 66 60 62 58 57 57 59 58 64 70 77 81 74
58 56 56 65 70 86 98 98 92 67 47 73 82 80 79 84 85 88 86 91 90 83 84 83 92 88 85 87 87 81 74 70 63 57 50 61 61 57 58 63 68 74 78 79 82
56 55 57 77 87 99 97 88 67 58 75 72 76 79 79 77 80 81 78 77 74 69 71 79 81 87 88 82 86 81 68 60 52 49 55 70 61 63 67 72 73 73 77 76 78
54 52 65 81 93 97 91 76 58 68 72 79 78 79 73 78 77 79 77 74 80 79 76 70 67 81 87 83 78 77 76 67 53 56 50 58 63 71 75 80 79 78 80 77 76
52 80 84 94 93 95 81 64 64 72 78 76 77 72 71 77 76 76 77 76 81 83 72 69 72 86 87 88 85 77 72 83 64 61 63 59 67 77 77 80 79 79 78 81 82
73 86 94 100 99 90 76 64 73 81 81 80 67 73 64 70 73 73 74 81 77 83 86 76 67 83 85 88 87 83 85 72 74 56 54 57 59 54 72 77 81 78 79 82 84
79 81 97 102 98 83 69 73 77 83 83 76 72 72 71 70 72 72 69 77 81 81 84 80 73 73 82 77 76 78 76 77 79 74 61 50 53 65 72 80 82 82 81 82 85
84 74 98 101 79 82 76 78 66 81 83 80 79 77 74 73 72 71 70 74 82 82 75 81 76 65 73 85 87 84 79 79 70 66 72 68 62 75 68 68 77 87 83 83 86
79 86 99 95 72 77 79 78 81 79 79 79 77 78 79 74 68 71 74 77 81 80 74 78 72 64 69 76 83 78 81 82 81 80 69 67 66 72 69 68 86 87 87 87 86
79 77 87 89 88 81 76 75 75 81 79 80 77 79 76 74 77 67 68 79 82 81 72 76 74 69 60 60 71 72 77 80 79 71 72 74 72 77 78 81 83 86 86 85 84
82 79 85 76 80 80 79 76 74 73 79 80 75 75 74 68 67 69 75 77 80 73 78 77 66 71 69 73 74 72 73 76 75 77 72 76 76 78 81 83 86 86 86 83 82
77 80 87 82 79 78 68 74 74 76 75 74 72 76 76 70 72 67 73 74 70 76 75 79 67 71 67 73 74 72 74 75 78 79 78 79 77 85 77 77 83 83 80 80 79
90 90 84 69 79 77 76 76 74 76 77 79 75 73 73 76 80 81 81 82 79 72 66 69 70 67 61 70 70 63 73 73 77 80 80 74 74 83 76 71 65 76 77 77 78

GFSSW_sfc_temp_111.txt.gz
Temp
63 63 63 63 63 63 64 64 64 63 63 63 63 63 62 62 62 68 68 81 80 81 79 87 87 86 87 83 77 74 60 59 64 66 73 79 74 83 88 83 85 87 82 84 88
63 63 63 62 62 63 63 63 63 63 63 63 63 62 62 62 63 67 80 82 81 81 83 82 81 84 79 79 78 69 60 60 68 70 77 79 77 81 79 78 80 80 86 89 85
62 62 62 62 63 63 63 62 62 62 62 62 62 62 62 62 64 77 81 82 82 82 86 88 88 87 79 78 78 69 61 64 66 71 84 81 80 85 80 73 79 77 81 86 85
62 62 62 62 62 62 62 62 62 62 62 62 62 62 62 62 63 84 80 81 81 85 85 82 83 80 77 75 80 69 67 66 66 70 69 80 85 80 83 79 85 85 86 86 83
61 61 61 61 62 62 62 62 61 61 61 62 62 62 61 61 70 86 80 80 82 82 81 79 77 81 75 78 80 71 64 66 66 68 69 82 80 81 81 84 88 88 88 84 82
61 61 61 61 61 61 61 61 61 60 61 61 62 62 58 60 89 87 84 80 84 81 80 82 82 88 78 77 74 74 68 69 68 68 77 78 78 83 82 86 85 85 83 85 83
61 61 61 61 61 61 61 60 60 60 60 61 62 66 65 67 92 88 86 79 81 83 79 86 88 84 85 74 82 77 70 73 71 74 70 72 74 75 83 85 82 83 84 86 84
61 61 61 61 60 60 59 59 59 60 61 62 63 62 61 88 89 89 88 84 86 85 86 89 90 84 83 81 71 66 68 61 67 71 70 68 63 76 83 83 80 82 84 85 86
60 60 60 60 59 59 58 58 59 62 62 63 58 58 65 85 84 88 89 85 84 85 87 94 87 77 81 73 64 61 54 56 61 68 66 64 64 76 83 83 79 81 83 84 85
60 60 59 59 59 57 57 57 62 61 63 70 73 62 74 79 84 88 91 91 85 84 83 81 74 66 68 66 52 55 55 57 56 63 64 62 67 75 80 79 80 77 79 79 82
60 59 59 59 58 56 57 64 59 59 67 67 70 75 85 86 91 84 90 87 85 78 66 72 61 58 66 73 70 65 61 57 59 62 61 59 62 65 69 76 75 75 77 80 80
59 59 58 58 57 56 54 64 73 77 67 77 81 84 88 85 80 85 88 76 75 66 72 65 59 71 78 74 69 65 58 55 59 62 60 58 58 63 66 66 69 70 80 79 83
59 58 58 57 56 53 65 74 86 84 65 78 81 82 81 80 79 79 82 79 73 68 69 63 70 80 79 73 66 63 58 57 57 59 61 59 55 58 66 67 70 71 75 78 81
59 58 57 56 54 72 75 83 84 86 57 70 72 81 84 82 75 89 88 81 76 69 71 68 79 79 76 73 66 57 65 64 59 56 51 59 48 54 59 62 64 70 71 73 74
58 57 56 56 52 68 82 88 85 77 43 74 75 87 84 74 78 81 89 80 72 73 70 67 73 73 72 73 72 60 64 63 62 55 55 54 50 55 59 59 62 67 71 76 77
57 56 55 58 56 68 81 84 79 56 47 68 79 75 72 78 80 82 81 82 82 74 74 73 82 77 76 75 77 70 62 62 61 54 47 56 54 54 54 59 66 69 71 74 75
55 54 53 66 72 84 85 77 55 50 71 69 70 74 71 71 76 75 72 67 62 53 57 70 73 78 81 69 75 65 56 45 45 46 47 56 54 59 66 67 70 72 72 74 75
53 53 57 68 79 83 81 64 49 64 67 73 73 73 68 71 73 75 69 63 71 67 61 57 55 71 80 71 67 64 62 53 43 46 49 57 51 59 68 75 74 76 78 76 73
53 66 70 77 73 76 68 55 57 66 75 73 71 64 64 71 69 70 68 66 71 71 57 58 60 78 81 81 76 66 59 71 54 56 51 53 56 65 70 71 73 74 77 76 75
61 72 78 89 88 80 63 56 65 76 77 74 61 67 59 63 65 63 65 73 74 77 74 65 55 70 80 80 78 71 72 57 55 46 45 53 57 55 62 66 70 73 74 75 76
67 69 84 93 88 70 58 63 73 80 79 71 68 66 64 64 66 62 64 73 75 75 74 69 59 62 71 64 63 64 60 61 61 58 50 47 51 61 66 66 64 67 76 76 75
74 65 87 89 67 69 64 71 66 75 79 75 73 71 66 69 64 62 63 71 79 75 65 68 62 51 60 73 78 70 64 63 52 53 58 56 55 71 69 68 67 66 67 74 78
65 73 88 85 61 64 69 76 77 75 73 73 71 72 71 64 57 64 66 76 79 73 62 65 56 50 57 64 70 63 68 61 62 58 53 51 54 70 67 69 69 72 71 72 75
66 65 75 76 76 71 67 70 71 79 76 76 72 72 68 64 65 61 66 77 79 76 72 68 61 56 44 51 61 60 67 69 59 51 54 56 57 62 67 64 65 72 71 78 75
69 69 76 65 69 70 70 70 71 69 76 73 68 71 66 57 58 58 64 70 75 71 68 66 53 60 61 66 69 66 67 69 62 61 53 60 63 58 63 65 69 68 75 77 75
65 69 76 70 71 69 62 65 70 71 70 68 66 71 68 58 62 57 62 62 60 67 63 64 55 55 57 68 68 67 69 70 70 70 67 64 59 65 67 65 64 63 67 71 72
75 77 70 66 70 66 67 69 72 72 73 75 72 67 65 69 72 70 69 69 67 59 60 58 55 52 47 62 64 55 65 68 67 68 62 54 58 63 60 61 62 61 64 64 65

GFSSW_sfc_temp_114.txt.gz
Temp
63 63 63 63 63 63 63 63 63 63 63 63 63 62 62 62 62 65 64 77 76 80 80 82 82 83 82 76 76 73 60 59 64 67 69 79 76 81 84 78 81 83 78 77 80
63 63 63 62 62 63 63 62 62 62 62 62 62 62 62 62 59 62 76 80 81 80 79 79 78 80 71 74 74 68 59 60 66 66 69 77 79 81 77 77 78 77 78 81 80
62 62 62 62 63 62 62 62 62 62 62 62 62 62 62 61 59 71 80 81 81 80 82 84 83 82 73 73 73 70 60 63 68 70 70 74 77 83 77 73 78 72 75 78 78
62 61 61 61 62 62 62 62 61 61 61 61 62 62 62 58 60 81 81 79 81 81 79 80 77 73 74 72 78 63 65 64 67 70 68 70 81 76 79 76 83 80 79 79 78
61 61 61 61 61 61 61 61 61 61 61 61 62 62 57 56 65 83 81 81 80 79 77 77 73 74 71 75 74 65 66 68 69 69 71 71 76 77 76 81 84 81 81 79 77
61 61 61 61 61 61 61 60 60 60 60 61 62 63 54 55 83 82 79 77 78 77 76 77 76 79 76 75 72 69 67 66 67 68 70 72 76 77 76 83 82 82 81 79 78
61 60 60 60 61 61 60 59 59 60 60 61 62 64 57 64 83 81 78 74 74 76 75 80 80 74 80 74 78 69 63 65 66 66 68 73 72 71 80 84 80 81 81 80 80
60 60 60 60 60 60 59 58 58 60 61 61 63 57 56 79 77 81 79 74 77 75 79 80 81 75 74 76 73 63 66 57 62 66 70 70 59 74 81 80 77 79 80 78 80
59 60 60 59 59 58 57 57 59 61 63 62 54 54 59 81 78 81 82 78 74 75 79 90 78 72 72 65 61 59 54 56 60 66 65 67 62 72 80 79 75 76 78 77 79
59 59 59 59 58 57 56 57 59 60 62 66 68 57 68 75 78 82 82 83 77 75 77 74 69 62 62 58 52 54 54 57 56 61 64 61 61 68 77 77 76 75 76 77 80
59 59 58 58 57 55 52 56 60 58 57 63 65 68 76 81 86 80 84 81 77 71 61 67 60 55 60 65 66 63 61 57 59 62 61 59 60 63 67 70 71 71 76 77 79
59 58 58 57 56 56 52 55 66 69 61 70 73 73 79 82 75 80 83 72 71 63 65 61 56 65 70 70 67 65 57 55 59 62 61 58 59 61 65 66 65 70 71 76 74
58 58 57 56 56 52 53 64 74 74 58 71 73 73 75 76 74 75 79 74 67 62 63 57 64 73 72 66 64 63 59 56 57 59 59 58 56 57 64 66 68 69 71 77 77
58 58 56 55 55 57 63 72 73 73 51 62 65 76 77 77 70 84 82 76 69 64 65 62 73 72 71 64 64 56 66 64 58 56 49 59 47 55 58 63 65 67 68 75 78
57 57 56 55 49 58 74 68 73 70 41 71 69 83 76 69 71 75 83 75 67 67 62 62 67 67 67 66 67 59 68 64 61 55 54 54 50 54 59 60 64 65 69 72 73
57 56 55 52 48 58 65 68 70 53 45 65 72 69 65 68 73 77 77 76 75 69 67 67 75 71 70 72 71 68 63 61 58 54 46 54 53 54 54 62 70 70 69 71 73
55 54 53 61 64 69 71 66 51 45 66 64 64 64 62 64 71 70 69 63 59 51 51 63 68 70 73 61 65 63 53 46 45 46 45 55 52 57 62 65 68 71 70 71 74
54 52 52 60 60 66 66 59 44 60 60 68 66 66 60 65 67 70 64 61 65 59 53 51 53 67 72 65 57 59 53 48 44 45 49 57 50 57 71 71 72 73 75 74 74
52 50 55 64 64 66 60 47 49 56 68 66 63 59 61 65 63 67 60 59 66 64 54 50 56 70 74 72 68 59 54 64 50 54 50 51 57 63 68 67 67 71 75 74 74
55 58 63 75 71 65 56 50 57 68 70 67 54 59 53 59 60 59 58 66 67 70 63 58 52 62 72 73 71 65 66 52 51 44 44 49 54 54 61 63 67 68 71 76 74
59 61 73 74 73 60 50 53 65 72 72 63 59 56 61 57 58 54 59 70 71 70 65 53 53 59 63 59 61 61 56 55 56 54 47 44 50 63 65 65 67 69 72 73 73
56 56 74 76 60 54 52 62 65 69 71 68 67 62 59 63 58 57 59 64 75 67 59 59 51 48 57 67 69 64 58 55 50 51 53 50 54 68 67 67 67 68 71 71 73
52 56 73 73 54 52 59 67 70 68 66 66 65 64 64 57 52 59 63 73 76 67 57 60 52 44 52 58 63 58 61 53 53 50 50 49 54 66 67 65 65 65 70 71 72
53 54 62 63 59 56 56 61 63 74 70 68 65 66 61 56 55 55 60 70 74 70 70 66 51 50 43 51 56 56 61 61 52 46 47 53 55 60 61 59 62 65 69 70 74
53 55 61 55 60 56 57 63 65 63 68 66 62 63 56 51 54 55 60 63 69 69 67 63 50 54 61 62 65 63 62 64 55 54 50 57 54 56 59 59 62 63 66 65 67
55 57 59 56 57 60 54 56 63 63 63 60 59 64 60 52 52 50 56 53 54 64 56 58 54 49 50 64 64 63 63 62 62 60 58 57 53 59 62 64 62 62 63 62 63
58 61 58 55 57 55 56 61 64 65 66 68 66 61 59 62 64 61 59 55 53 51 52 51 49 47 44 59 58 50 60 60 58 59 56 51 55 59 57 60 61 61 63 62 62

GFSSW_sfc_temp_117.txt.gz
Temp
62 62 63 63 62 62 62 63 62 62 62 62 62 62 62 62 61 61 62 75 74 79 80 80 78 79 79 73 75 72 60 57 62 65 67 75 73 77 80 74 78 79 73 76 75
62 62 62 62 62 62 62 62 62 62 62 62 62 62 62 62 57 59 74 79 78 79 77 77 75 77 70 70 70 66 57 63 67 67 68 76 75 76 74 74 71 73 76 77 76
62 62 62 62 62 62 62 62 61 62 62 61 61 61 62 60 58 71 79 79 80 79 79 81 80 77 67 73 71 69 59 66 69 70 70 69 74 79 73 70 71 67 71 74 75
61 61 61 61 61 62 62 61 61 61 61 61 61 62 62 56 58 78 81 79 80 78 79 78 76 69 67 65 73 64 67 65 68 71 69 68 74 74 76 75 77 75 75 75 73
61 61 61 61 61 61 61 61 60 60 60 61 61 62 56 54 65 79 80 79 77 77 76 75 71 70 65 70 71 67 66 67 69 69 68 72 72 74 75 77 78 78 76 74 74
60 60 60 60 60 61 61 60 60 60 60 61 62 62 53 54 79 79 76 75 75 74 73 75 74 75 69 72 71 70 67 67 68 68 69 70 73 75 75 79 76 76 75 75 75
60 60 60 60 60 60 60 59 59 59 60 61 62 62 55 65 79 78 76 72 68 73 71 76 78 72 71 68 72 69 63 65 65 66 65 70 66 69 77 77 74 75 75 76 76
60 60 60 60 60 59 58 58 58 60 61 61 62 56 55 75 75 76 74 72 72 68 74 78 78 71 68 72 69 65 62 58 62 64 67 66 58 69 77 76 72 75 75 75 76
59 59 59 59 59 58 56 56 59 60 63 62 53 53 61 77 73 76 77 74 69 71 74 87 75 68 68 61 56 60 53 54 58 62 64 64 61 69 77 77 75 75 75 75 76
59 59 58 58 57 56 55 57 62 60 62 64 66 56 67 74 75 77 76 80 73 72 73 71 65 59 58 55 49 53 53 56 55 60 61 62 62 69 72 75 74 72 73 74 74
59 58 58 57 56 55 52 53 60 58 56 61 62 67 73 78 80 76 80 76 73 69 59 64 58 53 59 61 64 62 59 56 58 62 60 59 59 63 67 70 69 68 70 72 74
58 58 58 56 56 55 52 59 62 63 59 66 69 69 74 74 71 75 80 69 66 60 61 58 53 63 67 66 65 60 58 55 59 62 59 58 58 61 63 66 66 65 68 73 70
58 57 57 56 55 51 53 61 67 64 55 67 69 69 71 73 71 69 76 71 64 60 58 55 62 69 68 64 61 60 59 56 56 59 60 58 56 58 62 66 67 67 68 76 73
57 57 57 55 55 54 61 64 67 66 50 62 64 73 73 72 67 81 78 73 66 63 61 58 68 68 63 61 61 55 64 62 57 55 49 58 47 55 59 60 64 66 67 69 73
57 57 55 55 49 59 68 62 62 66 41 68 66 78 70 67 67 73 78 72 64 63 61 60 62 62 61 63 64 58 66 61 59 54 52 53 48 52 59 58 61 65 67 68 72
57 56 55 51 47 57 62 63 67 52 44 62 69 66 63 65 68 71 72 74 72 65 61 64 71 68 65 69 68 68 61 59 58 52 45 53 50 51 53 59 65 67 69 69 72
55 54 52 58 65 62 65 65 51 45 62 62 60 61 59 62 65 65 65 60 58 51 50 60 62 65 69 60 64 61 54 44 44 45 45 55 51 53 63 66 70 71 70 70 71
53 51 52 58 56 64 64 58 46 58 56 64 61 61 59 64 64 65 60 57 62 60 53 50 50 62 70 61 56 57 54 46 41 44 48 55 49 56 70 71 73 75 75 74 71
52 51 52 60 58 60 60 47 49 55 64 62 61 55 55 60 59 62 58 56 61 60 53 49 53 68 70 67 66 57 50 58 53 47 47 51 57 64 68 67 67 68 76 73 73
53 57 61 66 66 64 55 47 52 65 66 63 51 55 49 56 58 58 55 63 63 66 61 54 49 60 68 69 67 60 63 50 49 42 41 49 52 54 58 61 63 65 71 72 75
57 61 69 66 68 58 50 50 61 68 69 61 56 56 54 55 54 53 58 65 68 68 64 53 50 55 60 56 57 56 53 51 51 48 44 43 50 62 60 62 62 64 71 74 73
54 57 69 68 59 47 49 57 64 64 67 65 63 58 56 57 54 55 58 65 72 64 60 56 49 46 53 63 63 63 53 52 49 48 46 48 51 62 62 61 65 65 67 71 74
50 52 66 68 52 51 55 63 66 63 60 62 62 62 58 53 50 56 59 70 72 65 57 58 49 42 47 55 61 57 56 48 48 46 45 47 51 62 62 61 63 66 67 68 69
53 54 59 59 55 53 53 59 60 70 67 65 60 61 57 55 53 53 58 67 70 70 69 62 49 48 44 48 53 55 59 56 49 45 45 49 52 57 59 59 60 62 65 64 69
52 53 55 51 55 55 52 60 62 59 64 61 58 59 55 47 50 53 57 60 66 66 64 58 49 47 56 55 58 59 57 58 52 48 47 49 52 55 58 58 60 62 65 64 63
52 54 55 53 53 53 51 52 60 60 60 57 58 60 56 51 53 49 52 50 51 59 54 53 47 50 54 61 62 56 58 58 57 55 54 54 53 57 62 62 61 61 61 61 62
52 55 55 51 53 51 52 57 63 64 62 67 64 59 56 60 61 56 54 50 48 48 50 48 47 45 43 53 59 50 53 55 54 56 54 47 52 59 58 57 58 59 60 61 61